GEFSSE_prec_meanprecacc_042.txt.gz
Total_Precipitation_Accumulation
0.01 0.05 0.11 0.20 0.15 0.11 0.10 0.09 0.07 0.06 0.05 0.07 0.09 0.11 0.12 0.12 0.12 0.12 0.12 0.13 0.14 0.15 0.14 0.14 0.13 0.12 0.11 0.11 0.13 0.13 0.16 0.22 0.24 0.22 0.18 0.15 0.16 0.15 0.19 0.20 0.15 0.18 0.27
0.02 0.06 0.10 0.13 0.10 0.08 0.06 0.05 0.05 0.04 0.04 0.05 0.07 0.07 0.07 0.09 0.11 0.12 0.12 0.12 0.13 0.15 0.18 0.19 0.16 0.13 0.12 0.11 0.11 0.10 0.11 0.15 0.19 0.22 0.18 0.11 0.16 0.17 0.16 0.20 0.17 0.31 0.37
0.01 0.04 0.05 0.07 0.07 0.05 0.05 0.04 0.04 0.03 0.03 0.03 0.05 0.05 0.05 0.06 0.08 0.10 0.11 0.12 0.12 0.12 0.13 0.15 0.16 0.12 0.10 0.10 0.10 0.09 0.11 0.11 0.12 0.15 0.15 0.09 0.18 0.25 0.23 0.23 0.17 0.31 0.36
0.01 0.04 0.03 0.03 0.04 0.05 0.04 0.04 0.03 0.03 0.03 0.03 0.03 0.04 0.04 0.05 0.06 0.07 0.08 0.08 0.09 0.10 0.10 0.11 0.10 0.10 0.09 0.07 0.08 0.08 0.10 0.11 0.09 0.08 0.03 0.04 0.21 0.27 0.28 0.24 0.19 0.25 0.32
0.02 0.03 0.03 0.03 0.03 0.02 0.02 0.02 0.02 0.02 0.03 0.03 0.03 0.03 0.03 0.04 0.05 0.06 0.06 0.06 0.05 0.06 0.07 0.08 0.09 0.11 0.10 0.09 0.08 0.10 0.11 0.10 0.08 0.04 0.01 0.03 0.14 0.21 0.21 0.24 0.22 0.26 0.30
0.00 0.01 0.01 0.02 0.01 0.00 0.00 0.00 0.00 0.01 0.01 0.02 0.02 0.03 0.03 0.04 0.04 0.04 0.04 0.04 0.04 0.04 0.05 0.06 0.08 0.11 0.11 0.11 0.11 0.16 0.19 0.16 0.08 0.02 0.01 0.02 0.06 0.12 0.19 0.29 0.29 0.27 0.23
0.00 0.00 0.00 0.00 0.00 0.00 0.00 0.00 0.00 0.00 0.00 0.01 0.01 0.02 0.02 0.04 0.05 0.05 0.03 0.03 0.04 0.04 0.05 0.06 0.07 0.09 0.12 0.13 0.15 0.20 0.27 0.22 0.10 0.12 0.08 0.05 0.05 0.08 0.14 0.27 0.31 0.28 0.28
0.00 0.00 0.00 0.00 0.00 0.00 0.00 0.00 0.00 0.00 0.00 0.00 0.00 0.00 0.00 0.01 0.03 0.04 0.04 0.05 0.06 0.05 0.06 0.05 0.05 0.06 0.08 0.12 0.15 0.18 0.23 0.16 0.13 0.21 0.23 0.18 0.13 0.14 0.18 0.26 0.31 0.32 0.34
0.00 0.00 0.00 0.00 0.00 0.00 0.00 0.00 0.00 0.00 0.00 0.00 0.00 0.00 0.00 0.00 0.00 0.01 0.02 0.03 0.05 0.04 0.06 0.05 0.04 0.04 0.05 0.07 0.10 0.16 0.19 0.15 0.21 0.35 0.30 0.32 0.23 0.27 0.29 0.28 0.28 0.33 0.36
0.00 0.00 0.00 0.00 0.00 0.00 0.00 0.00 0.00 0.00 0.00 0.00 0.00 0.00 0.00 0.00 0.00 0.01 0.01 0.02 0.03 0.04 0.05 0.05 0.05 0.05 0.05 0.05 0.06 0.08 0.12 0.11 0.15 0.25 0.36 0.30 0.26 0.37 0.45 0.39 0.32 0.32 0.37
0.00 0.00 0.00 0.00 0.00 0.00 0.00 0.00 0.00 0.00 0.00 0.00 0.00 0.00 0.00 0.00 0.00 0.00 0.01 0.00 0.01 0.02 0.03 0.03 0.05 0.05 0.04 0.02 0.02 0.04 0.04 0.03 0.11 0.22 0.29 0.24 0.29 0.43 0.54 0.50 0.47 0.40 0.39
0.00 0.00 0.00 0.00 0.00 0.00 0.00 0.00 0.00 0.00 0.00 0.00 0.00 0.00 0.00 0.00 0.00 0.00 0.00 0.01 0.02 0.03 0.04 0.05 0.05 0.04 0.04 0.02 0.02 0.06 0.02 0.00 0.01 0.05 0.10 0.13 0.20 0.31 0.49 0.57 0.58 0.55 0.50
0.00 0.00 0.00 0.00 0.00 0.00 0.00 0.00 0.00 0.00 0.00 0.00 0.00 0.00 0.00 0.00 0.00 0.00 0.00 0.00 0.00 0.01 0.03 0.07 0.10 0.11 0.14 0.13 0.10 0.12 0.06 0.04 0.03 0.02 0.02 0.07 0.09 0.13 0.24 0.40 0.58 0.64 0.64
0.00 0.00 0.00 0.00 0.00 0.00 0.00 0.00 0.00 0.00 0.00 0.00 0.00 0.00 0.00 0.00 0.00 0.00 0.00 0.00 0.00 0.00 0.00 0.02 0.07 0.14 0.19 0.20 0.15 0.11 0.12 0.12 0.09 0.07 0.04 0.07 0.08 0.08 0.13 0.23 0.40 0.57 0.67
0.00 0.00 0.00 0.00 0.00 0.00 0.00 0.00 0.00 0.00 0.00 0.00 0.00 0.00 0.00 0.00 0.00 0.00 0.00 0.00 0.00 0.00 0.00 0.00 0.01 0.03 0.07 0.12 0.14 0.12 0.12 0.11 0.12 0.14 0.12 0.12 0.10 0.08 0.09 0.15 0.25 0.42 0.58
0.00 0.00 0.00 0.00 0.00 0.00 0.00 0.00 0.00 0.00 0.00 0.00 0.00 0.00 0.00 0.00 0.00 0.00 0.00 0.00 0.00 0.00 0.00 0.00 0.00 0.00 0.00 0.01 0.02 0.05 0.09 0.12 0.15 0.16 0.14 0.13 0.12 0.09 0.09 0.11 0.17 0.30 0.49
0.00 0.00 0.00 0.00 0.00 0.00 0.00 0.00 0.00 0.00 0.00 0.00 0.00 0.00 0.00 0.00 0.00 0.00 0.00 0.00 0.00 0.00 0.00 0.00 0.00 0.00 0.00 0.00 0.00 0.00 0.01 0.03 0.07 0.12 0.12 0.14 0.16 0.13 0.11 0.12 0.14 0.19 0.32
0.00 0.00 0.00 0.00 0.00 0.00 0.00 0.00 0.00 0.00 0.00 0.00 0.00 0.00 0.00 0.00 0.00 0.00 0.00 0.00 0.00 0.00 0.00 0.00 0.00 0.00 0.00 0.00 0.00 0.00 0.00 0.00 0.00 0.02 0.04 0.09 0.14 0.17 0.15 0.15 0.16 0.17 0.21
0.00 0.00 0.00 0.00 0.00 0.00 0.00 0.00 0.00 0.00 0.00 0.00 0.00 0.00 0.00 0.00 0.00 0.00 0.00 0.00 0.00 0.00 0.00 0.00 0.00 0.00 0.00 0.00 0.00 0.00 0.00 0.00 0.00 0.00 0.00 0.02 0.05 0.11 0.15 0.16 0.16 0.16 0.16
0.00 0.00 0.00 0.00 0.00 0.00 0.00 0.00 0.00 0.00 0.00 0.00 0.00 0.00 0.00 0.00 0.00 0.00 0.00 0.00 0.00 0.00 0.00 0.00 0.00 0.00 0.00 0.00 0.00 0.00 0.00 0.00 0.00 0.00 0.00 0.00 0.01 0.05 0.09 0.12 0.14 0.15 0.15
0.00 0.00 0.00 0.00 0.00 0.00 0.00 0.00 0.00 0.00 0.00 0.00 0.00 0.00 0.00 0.00 0.00 0.00 0.00 0.00 0.00 0.01 0.00 0.00 0.00 0.00 0.01 0.00 0.00 0.00 0.00 0.00 0.00 0.00 0.00 0.00 0.00 0.02 0.06 0.10 0.13 0.14 0.14
0.00 0.00 0.00 0.00 0.00 0.00 0.00 0.00 0.00 0.00 0.00 0.00 0.00 0.00 0.00 0.00 0.00 0.00 0.00 0.01 0.01 0.01 0.00 0.00 0.01 0.02 0.02 0.01 0.03 0.06 0.04 0.01 0.00 0.00 0.00 0.00 0.00 0.00 0.02 0.06 0.12 0.13 0.12
0.00 0.00 0.00 0.00 0.00 0.00 0.00 0.00 0.00 0.00 0.00 0.00 0.00 0.00 0.00 0.00 0.00 0.00 0.00 0.01 0.02 0.01 0.01 0.01 0.02 0.03 0.04 0.02 0.03 0.14 0.23 0.15 0.04 0.00 0.00 0.00 0.00 0.00 0.00 0.02 0.06 0.11 0.14
0.00 0.00 0.00 0.00 0.00 0.00 0.00 0.00 0.00 0.00 0.00 0.00 0.00 0.00 0.00 0.00 0.00 0.00 0.01 0.01 0.01 0.01 0.01 0.02 0.02 0.04 0.07 0.08 0.04 0.06 0.14 0.19 0.24 0.12 0.02 0.03 0.03 0.03 0.02 0.02 0.03 0.07 0.13
0.00 0.00 0.00 0.00 0.00 0.00 0.00 0.00 0.00 0.00 0.00 0.00 0.00 0.00 0.00 0.00 0.00 0.00 0.01 0.01 0.01 0.01 0.01 0.02 0.03 0.04 0.08 0.11 0.11 0.10 0.08 0.07 0.12 0.22 0.10 0.04 0.07 0.08 0.07 0.05 0.06 0.09 0.12
0.00 0.00 0.00 0.00 0.00 0.00 0.00 0.00 0.00 0.00 0.00 0.00 0.00 0.00 0.00 0.00 0.00 0.00 0.00 0.00 0.01 0.01 0.02 0.03 0.04 0.05 0.06 0.07 0.10 0.12 0.16 0.18 0.13 0.18 0.18 0.06 0.03 0.04 0.06 0.08 0.08 0.12 0.15

GEFSSE_prec_meanprecacc_048.txt.gz
Total_Precipitation_Accumulation
0.01 0.05 0.11 0.20 0.15 0.11 0.10 0.09 0.07 0.06 0.05 0.07 0.09 0.11 0.13 0.13 0.13 0.13 0.13 0.14 0.16 0.17 0.17 0.17 0.16 0.15 0.14 0.14 0.15 0.15 0.18 0.23 0.24 0.22 0.18 0.15 0.16 0.16 0.19 0.20 0.15 0.18 0.28
0.02 0.06 0.10 0.13 0.10 0.08 0.06 0.05 0.05 0.04 0.04 0.05 0.07 0.07 0.07 0.10 0.12 0.13 0.13 0.14 0.15 0.17 0.20 0.22 0.19 0.15 0.15 0.13 0.13 0.13 0.13 0.15 0.20 0.22 0.18 0.11 0.16 0.18 0.17 0.20 0.17 0.32 0.38
0.01 0.04 0.05 0.07 0.07 0.05 0.05 0.04 0.04 0.03 0.03 0.03 0.05 0.05 0.05 0.06 0.08 0.10 0.12 0.13 0.13 0.13 0.14 0.16 0.17 0.14 0.12 0.11 0.12 0.11 0.12 0.11 0.12 0.15 0.15 0.09 0.18 0.26 0.24 0.23 0.18 0.32 0.36
0.01 0.04 0.03 0.03 0.04 0.05 0.04 0.04 0.03 0.03 0.03 0.03 0.03 0.04 0.04 0.05 0.07 0.08 0.08 0.09 0.10 0.11 0.11 0.12 0.11 0.11 0.10 0.08 0.09 0.09 0.11 0.11 0.09 0.08 0.03 0.04 0.21 0.27 0.29 0.25 0.20 0.25 0.32
0.02 0.03 0.03 0.03 0.03 0.02 0.02 0.02 0.02 0.02 0.03 0.03 0.03 0.03 0.03 0.04 0.05 0.06 0.06 0.06 0.06 0.06 0.08 0.09 0.09 0.11 0.10 0.09 0.08 0.10 0.11 0.10 0.08 0.04 0.01 0.03 0.14 0.22 0.22 0.26 0.24 0.27 0.30
0.00 0.01 0.01 0.02 0.01 0.00 0.00 0.00 0.00 0.01 0.01 0.02 0.02 0.03 0.03 0.04 0.04 0.04 0.04 0.04 0.04 0.04 0.06 0.07 0.08 0.11 0.11 0.11 0.11 0.17 0.19 0.16 0.08 0.02 0.01 0.02 0.06 0.12 0.21 0.30 0.30 0.28 0.24
0.00 0.00 0.00 0.00 0.00 0.00 0.00 0.00 0.00 0.00 0.00 0.01 0.01 0.02 0.02 0.04 0.05 0.05 0.03 0.03 0.04 0.04 0.05 0.06 0.07 0.10 0.12 0.13 0.15 0.20 0.27 0.22 0.10 0.12 0.08 0.05 0.05 0.09 0.15 0.28 0.32 0.30 0.29
0.00 0.00 0.00 0.00 0.00 0.00 0.00 0.00 0.00 0.00 0.00 0.00 0.00 0.00 0.00 0.01 0.03 0.04 0.04 0.05 0.06 0.05 0.06 0.05 0.05 0.06 0.08 0.12 0.15 0.18 0.23 0.16 0.13 0.21 0.23 0.18 0.13 0.15 0.19 0.27 0.32 0.33 0.35
0.00 0.00 0.00 0.00 0.00 0.00 0.00 0.00 0.00 0.00 0.00 0.00 0.00 0.00 0.00 0.00 0.00 0.01 0.02 0.03 0.05 0.04 0.06 0.05 0.04 0.04 0.05 0.07 0.10 0.16 0.19 0.15 0.21 0.35 0.30 0.32 0.23 0.27 0.30 0.29 0.29 0.34 0.37
0.00 0.00 0.00 0.00 0.00 0.00 0.00 0.00 0.00 0.00 0.00 0.00 0.00 0.00 0.00 0.00 0.00 0.01 0.01 0.02 0.03 0.04 0.05 0.05 0.05 0.05 0.05 0.05 0.06 0.08 0.12 0.11 0.15 0.25 0.36 0.30 0.26 0.38 0.45 0.40 0.33 0.33 0.38
0.00 0.00 0.00 0.00 0.00 0.00 0.00 0.00 0.00 0.00 0.00 0.00 0.00 0.00 0.00 0.00 0.00 0.00 0.01 0.00 0.01 0.02 0.03 0.03 0.05 0.05 0.04 0.02 0.02 0.04 0.04 0.03 0.11 0.22 0.29 0.24 0.29 0.43 0.55 0.51 0.48 0.41 0.40
0.00 0.00 0.00 0.00 0.00 0.00 0.00 0.00 0.00 0.00 0.00 0.00 0.00 0.00 0.00 0.00 0.00 0.00 0.00 0.01 0.02 0.03 0.04 0.05 0.05 0.04 0.04 0.02 0.02 0.06 0.02 0.00 0.01 0.05 0.10 0.13 0.20 0.31 0.49 0.57 0.59 0.56 0.51
0.00 0.00 0.00 0.00 0.00 0.00 0.00 0.00 0.00 0.00 0.00 0.00 0.00 0.00 0.00 0.00 0.00 0.00 0.00 0.00 0.00 0.01 0.03 0.07 0.10 0.11 0.14 0.13 0.10 0.12 0.06 0.04 0.03 0.02 0.02 0.07 0.09 0.13 0.24 0.41 0.59 0.66 0.66
0.00 0.00 0.00 0.00 0.00 0.00 0.00 0.00 0.00 0.00 0.00 0.00 0.00 0.00 0.00 0.00 0.00 0.00 0.00 0.00 0.00 0.00 0.00 0.02 0.07 0.14 0.19 0.20 0.15 0.11 0.12 0.12 0.09 0.07 0.04 0.07 0.08 0.08 0.13 0.23 0.40 0.58 0.70
0.00 0.00 0.00 0.00 0.00 0.00 0.00 0.00 0.00 0.00 0.00 0.00 0.00 0.00 0.00 0.00 0.00 0.00 0.00 0.00 0.00 0.00 0.00 0.00 0.01 0.03 0.07 0.12 0.14 0.12 0.12 0.11 0.12 0.14 0.12 0.12 0.10 0.08 0.09 0.15 0.26 0.43 0.60
0.00 0.00 0.00 0.00 0.00 0.00 0.00 0.00 0.00 0.00 0.00 0.00 0.00 0.00 0.00 0.00 0.00 0.00 0.00 0.00 0.00 0.00 0.00 0.00 0.00 0.00 0.00 0.01 0.02 0.05 0.09 0.12 0.15 0.16 0.14 0.13 0.12 0.09 0.09 0.11 0.17 0.30 0.50
0.00 0.00 0.00 0.00 0.00 0.00 0.00 0.00 0.00 0.00 0.00 0.00 0.00 0.00 0.00 0.00 0.00 0.00 0.00 0.00 0.00 0.00 0.00 0.00 0.00 0.00 0.00 0.00 0.00 0.00 0.01 0.03 0.07 0.12 0.12 0.14 0.16 0.13 0.11 0.12 0.14 0.19 0.33
0.00 0.00 0.00 0.00 0.00 0.00 0.00 0.00 0.00 0.00 0.00 0.00 0.00 0.00 0.00 0.00 0.00 0.00 0.00 0.00 0.00 0.00 0.00 0.00 0.00 0.00 0.00 0.00 0.00 0.00 0.00 0.00 0.00 0.02 0.04 0.09 0.14 0.17 0.15 0.15 0.16 0.17 0.22
0.00 0.00 0.00 0.00 0.00 0.00 0.00 0.00 0.00 0.00 0.00 0.00 0.00 0.00 0.00 0.00 0.00 0.00 0.00 0.00 0.00 0.00 0.00 0.00 0.00 0.00 0.00 0.00 0.00 0.00 0.00 0.00 0.00 0.00 0.00 0.02 0.05 0.11 0.15 0.16 0.16 0.16 0.16
0.00 0.00 0.00 0.00 0.00 0.00 0.00 0.00 0.00 0.00 0.00 0.00 0.00 0.00 0.00 0.00 0.00 0.00 0.00 0.00 0.00 0.00 0.00 0.00 0.00 0.00 0.00 0.00 0.00 0.00 0.00 0.00 0.00 0.00 0.00 0.00 0.01 0.05 0.09 0.12 0.14 0.15 0.15
0.00 0.00 0.00 0.00 0.00 0.00 0.00 0.00 0.00 0.00 0.00 0.00 0.00 0.00 0.00 0.00 0.00 0.00 0.00 0.00 0.00 0.01 0.00 0.00 0.00 0.00 0.01 0.00 0.00 0.00 0.00 0.00 0.00 0.00 0.00 0.00 0.00 0.02 0.06 0.10 0.13 0.14 0.14
0.00 0.00 0.00 0.00 0.00 0.00 0.00 0.00 0.00 0.00 0.00 0.00 0.00 0.00 0.00 0.00 0.00 0.00 0.00 0.01 0.01 0.01 0.00 0.00 0.01 0.02 0.02 0.01 0.03 0.06 0.04 0.01 0.00 0.00 0.00 0.00 0.00 0.00 0.02 0.06 0.12 0.13 0.12
0.00 0.00 0.00 0.00 0.00 0.00 0.00 0.00 0.00 0.00 0.00 0.00 0.00 0.00 0.00 0.00 0.00 0.00 0.00 0.01 0.02 0.01 0.01 0.01 0.02 0.03 0.04 0.02 0.03 0.14 0.23 0.15 0.04 0.00 0.00 0.00 0.00 0.00 0.00 0.02 0.06 0.11 0.14
0.00 0.00 0.00 0.00 0.00 0.00 0.00 0.00 0.00 0.00 0.00 0.00 0.00 0.00 0.00 0.00 0.00 0.00 0.01 0.01 0.01 0.01 0.01 0.02 0.02 0.04 0.07 0.08 0.04 0.06 0.14 0.19 0.24 0.12 0.02 0.03 0.03 0.03 0.02 0.02 0.03 0.07 0.13
0.00 0.00 0.00 0.00 0.00 0.00 0.00 0.00 0.00 0.00 0.00 0.00 0.00 0.00 0.00 0.00 0.00 0.00 0.01 0.01 0.01 0.01 0.01 0.02 0.03 0.04 0.08 0.11 0.11 0.10 0.08 0.07 0.12 0.22 0.10 0.04 0.07 0.08 0.07 0.05 0.06 0.09 0.12
0.00 0.00 0.00 0.00 0.00 0.00 0.00 0.00 0.00 0.00 0.00 0.00 0.00 0.00 0.00 0.00 0.00 0.00 0.00 0.00 0.01 0.01 0.02 0.03 0.04 0.05 0.06 0.07 0.10 0.12 0.16 0.18 0.13 0.18 0.18 0.06 0.03 0.04 0.06 0.08 0.08 0.12 0.15

GEFSSE_prec_meanprecacc_054.txt.gz
Total_Precipitation_Accumulation
0.01 0.05 0.11 0.20 0.15 0.11 0.10 0.09 0.07 0.06 0.06 0.08 0.10 0.12 0.14 0.14 0.15 0.15 0.15 0.16 0.18 0.19 0.19 0.19 0.18 0.17 0.16 0.16 0.16 0.16 0.18 0.23 0.24 0.22 0.18 0.16 0.18 0.18 0.20 0.21 0.15 0.18 0.29
0.02 0.06 0.10 0.13 0.10 0.08 0.06 0.05 0.05 0.04 0.04 0.06 0.08 0.07 0.08 0.11 0.13 0.14 0.14 0.15 0.16 0.19 0.21 0.23 0.20 0.17 0.16 0.15 0.14 0.13 0.13 0.15 0.20 0.22 0.18 0.11 0.17 0.20 0.19 0.22 0.18 0.33 0.39
0.01 0.04 0.05 0.07 0.07 0.05 0.05 0.04 0.04 0.03 0.03 0.03 0.05 0.05 0.05 0.07 0.09 0.11 0.13 0.13 0.14 0.14 0.15 0.17 0.18 0.15 0.13 0.12 0.12 0.11 0.12 0.11 0.12 0.15 0.15 0.09 0.19 0.28 0.26 0.25 0.19 0.33 0.37
0.01 0.04 0.03 0.03 0.04 0.05 0.04 0.04 0.03 0.03 0.03 0.03 0.04 0.04 0.04 0.06 0.07 0.08 0.08 0.09 0.10 0.11 0.12 0.12 0.11 0.11 0.10 0.08 0.09 0.09 0.11 0.11 0.09 0.08 0.03 0.04 0.21 0.29 0.32 0.27 0.22 0.27 0.34
0.02 0.03 0.03 0.03 0.03 0.02 0.02 0.02 0.02 0.02 0.03 0.03 0.03 0.03 0.03 0.04 0.05 0.06 0.06 0.06 0.06 0.06 0.08 0.09 0.09 0.11 0.11 0.09 0.08 0.10 0.11 0.10 0.08 0.04 0.01 0.03 0.14 0.23 0.24 0.27 0.25 0.29 0.32
0.00 0.01 0.01 0.02 0.01 0.00 0.00 0.00 0.00 0.01 0.01 0.02 0.02 0.03 0.03 0.04 0.04 0.04 0.04 0.04 0.04 0.04 0.06 0.07 0.08 0.11 0.11 0.11 0.11 0.17 0.19 0.16 0.08 0.02 0.01 0.02 0.06 0.13 0.22 0.31 0.31 0.29 0.25
0.00 0.00 0.00 0.00 0.00 0.00 0.00 0.00 0.00 0.00 0.00 0.01 0.01 0.02 0.02 0.04 0.05 0.05 0.03 0.03 0.04 0.04 0.05 0.06 0.07 0.10 0.12 0.13 0.15 0.20 0.27 0.22 0.10 0.12 0.08 0.05 0.05 0.09 0.16 0.29 0.33 0.30 0.30
0.00 0.00 0.00 0.00 0.00 0.00 0.00 0.00 0.00 0.00 0.00 0.00 0.00 0.00 0.00 0.01 0.03 0.04 0.04 0.05 0.06 0.05 0.06 0.05 0.05 0.06 0.08 0.12 0.15 0.18 0.23 0.16 0.13 0.21 0.23 0.18 0.13 0.15 0.20 0.28 0.33 0.34 0.36
0.00 0.00 0.00 0.00 0.00 0.00 0.00 0.00 0.00 0.00 0.00 0.00 0.00 0.00 0.00 0.00 0.00 0.01 0.02 0.03 0.05 0.04 0.06 0.05 0.04 0.04 0.05 0.07 0.10 0.16 0.19 0.15 0.21 0.35 0.30 0.32 0.23 0.27 0.31 0.30 0.29 0.34 0.37
0.00 0.00 0.00 0.00 0.00 0.00 0.00 0.00 0.00 0.00 0.00 0.00 0.00 0.00 0.00 0.00 0.00 0.01 0.01 0.02 0.03 0.04 0.05 0.05 0.05 0.05 0.05 0.05 0.06 0.08 0.12 0.11 0.15 0.25 0.36 0.30 0.26 0.38 0.46 0.40 0.34 0.33 0.39
0.00 0.00 0.00 0.00 0.00 0.00 0.00 0.00 0.00 0.00 0.00 0.00 0.00 0.00 0.00 0.00 0.00 0.00 0.01 0.00 0.01 0.02 0.03 0.03 0.05 0.05 0.04 0.02 0.02 0.04 0.04 0.03 0.11 0.22 0.29 0.24 0.29 0.43 0.55 0.51 0.48 0.41 0.40
0.00 0.00 0.00 0.00 0.00 0.00 0.00 0.00 0.00 0.00 0.00 0.00 0.00 0.00 0.00 0.00 0.00 0.00 0.00 0.01 0.02 0.03 0.04 0.05 0.05 0.04 0.04 0.02 0.02 0.06 0.02 0.00 0.01 0.05 0.10 0.13 0.20 0.31 0.50 0.58 0.60 0.57 0.52
0.00 0.00 0.00 0.00 0.00 0.00 0.00 0.00 0.00 0.00 0.00 0.00 0.00 0.00 0.00 0.00 0.00 0.00 0.00 0.00 0.00 0.01 0.03 0.07 0.10 0.11 0.14 0.13 0.10 0.12 0.06 0.04 0.03 0.02 0.02 0.07 0.09 0.13 0.24 0.41 0.60 0.66 0.67
0.00 0.00 0.00 0.00 0.00 0.00 0.00 0.00 0.00 0.00 0.00 0.00 0.00 0.00 0.00 0.00 0.00 0.00 0.00 0.00 0.00 0.00 0.00 0.02 0.07 0.14 0.19 0.20 0.15 0.11 0.12 0.12 0.09 0.07 0.04 0.07 0.08 0.08 0.13 0.23 0.41 0.58 0.70
0.00 0.00 0.00 0.00 0.00 0.00 0.00 0.00 0.00 0.00 0.00 0.00 0.00 0.00 0.00 0.00 0.00 0.00 0.00 0.00 0.00 0.00 0.00 0.00 0.01 0.03 0.07 0.12 0.14 0.12 0.12 0.11 0.12 0.14 0.12 0.12 0.10 0.08 0.09 0.15 0.26 0.43 0.61
0.00 0.00 0.00 0.00 0.00 0.00 0.00 0.00 0.00 0.00 0.00 0.00 0.00 0.00 0.00 0.00 0.00 0.00 0.00 0.00 0.00 0.00 0.00 0.00 0.00 0.00 0.00 0.01 0.02 0.05 0.09 0.12 0.15 0.16 0.14 0.13 0.12 0.09 0.09 0.11 0.17 0.30 0.50
0.00 0.00 0.00 0.00 0.00 0.00 0.00 0.00 0.00 0.00 0.00 0.00 0.00 0.00 0.00 0.00 0.00 0.00 0.00 0.00 0.00 0.00 0.00 0.00 0.00 0.00 0.00 0.00 0.00 0.00 0.01 0.03 0.07 0.12 0.12 0.14 0.16 0.13 0.11 0.12 0.14 0.19 0.33
0.00 0.00 0.00 0.00 0.00 0.00 0.00 0.00 0.00 0.00 0.00 0.00 0.00 0.00 0.00 0.00 0.00 0.00 0.00 0.00 0.00 0.00 0.00 0.00 0.00 0.00 0.00 0.00 0.00 0.00 0.00 0.00 0.00 0.02 0.04 0.09 0.14 0.17 0.15 0.15 0.16 0.17 0.22
0.00 0.00 0.00 0.00 0.00 0.00 0.00 0.00 0.00 0.00 0.00 0.00 0.00 0.00 0.00 0.00 0.00 0.00 0.00 0.00 0.00 0.00 0.00 0.00 0.00 0.00 0.00 0.00 0.00 0.00 0.00 0.00 0.00 0.00 0.00 0.02 0.05 0.11 0.15 0.16 0.16 0.16 0.16
0.00 0.00 0.00 0.00 0.00 0.00 0.00 0.00 0.00 0.00 0.00 0.00 0.00 0.00 0.00 0.00 0.00 0.00 0.00 0.00 0.00 0.00 0.00 0.00 0.00 0.00 0.00 0.00 0.00 0.00 0.00 0.00 0.00 0.00 0.00 0.00 0.01 0.05 0.09 0.12 0.14 0.15 0.15
0.00 0.00 0.00 0.00 0.00 0.00 0.00 0.00 0.00 0.00 0.00 0.00 0.00 0.00 0.00 0.00 0.00 0.00 0.00 0.00 0.00 0.01 0.00 0.00 0.00 0.00 0.01 0.00 0.00 0.00 0.00 0.00 0.00 0.00 0.00 0.00 0.00 0.02 0.06 0.10 0.13 0.14 0.14
0.00 0.00 0.00 0.00 0.00 0.00 0.00 0.00 0.00 0.00 0.00 0.00 0.00 0.00 0.00 0.00 0.00 0.00 0.00 0.01 0.01 0.01 0.00 0.00 0.01 0.02 0.02 0.01 0.03 0.06 0.04 0.01 0.00 0.00 0.00 0.00 0.00 0.00 0.02 0.06 0.12 0.13 0.12
0.00 0.00 0.00 0.00 0.00 0.00 0.00 0.00 0.00 0.00 0.00 0.00 0.00 0.00 0.00 0.00 0.00 0.00 0.00 0.01 0.02 0.01 0.01 0.01 0.02 0.03 0.04 0.02 0.03 0.14 0.23 0.15 0.04 0.00 0.00 0.00 0.00 0.00 0.00 0.02 0.06 0.11 0.14
0.00 0.00 0.00 0.00 0.00 0.00 0.00 0.00 0.00 0.00 0.00 0.00 0.00 0.00 0.00 0.00 0.00 0.00 0.01 0.01 0.01 0.01 0.01 0.02 0.02 0.04 0.07 0.08 0.04 0.06 0.14 0.19 0.24 0.12 0.02 0.03 0.03 0.03 0.02 0.02 0.03 0.07 0.13
0.00 0.00 0.00 0.00 0.00 0.00 0.00 0.00 0.00 0.00 0.00 0.00 0.00 0.00 0.00 0.00 0.00 0.00 0.01 0.01 0.01 0.01 0.01 0.02 0.03 0.04 0.08 0.11 0.11 0.10 0.08 0.07 0.12 0.22 0.10 0.04 0.07 0.08 0.07 0.05 0.06 0.09 0.12
0.00 0.00 0.00 0.00 0.00 0.00 0.00 0.00 0.00 0.00 0.00 0.00 0.00 0.00 0.00 0.00 0.00 0.00 0.00 0.00 0.01 0.01 0.02 0.03 0.04 0.05 0.06 0.07 0.10 0.12 0.16 0.18 0.13 0.18 0.18 0.06 0.03 0.04 0.06 0.08 0.08 0.12 0.15

GEFSSE_prec_meanprecacc_060.txt.gz
Total_Precipitation_Accumulation
0.01 0.05 0.11 0.20 0.15 0.11 0.10 0.09 0.07 0.06 0.06 0.08 0.11 0.12 0.14 0.15 0.15 0.15 0.16 0.17 0.19 0.20 0.20 0.20 0.19 0.18 0.17 0.16 0.16 0.16 0.18 0.23 0.25 0.22 0.19 0.18 0.21 0.20 0.22 0.22 0.16 0.19 0.30
0.02 0.06 0.10 0.13 0.10 0.08 0.06 0.05 0.05 0.04 0.04 0.06 0.08 0.08 0.09 0.11 0.13 0.15 0.15 0.15 0.16 0.19 0.22 0.24 0.21 0.17 0.16 0.15 0.14 0.13 0.13 0.15 0.20 0.22 0.18 0.12 0.19 0.22 0.20 0.23 0.19 0.34 0.40
0.01 0.04 0.05 0.07 0.07 0.05 0.05 0.04 0.04 0.03 0.03 0.04 0.05 0.06 0.06 0.07 0.09 0.11 0.13 0.14 0.14 0.14 0.15 0.17 0.18 0.15 0.13 0.12 0.12 0.11 0.12 0.11 0.12 0.15 0.15 0.09 0.19 0.30 0.28 0.27 0.21 0.35 0.39
0.01 0.04 0.03 0.03 0.04 0.05 0.04 0.04 0.03 0.03 0.03 0.03 0.04 0.04 0.04 0.06 0.07 0.08 0.09 0.09 0.10 0.11 0.12 0.12 0.11 0.12 0.10 0.08 0.09 0.09 0.11 0.11 0.09 0.08 0.03 0.04 0.21 0.31 0.34 0.29 0.23 0.29 0.35
0.02 0.03 0.03 0.03 0.03 0.02 0.02 0.02 0.02 0.02 0.03 0.03 0.03 0.03 0.04 0.04 0.05 0.06 0.06 0.06 0.06 0.07 0.08 0.09 0.09 0.11 0.11 0.09 0.08 0.10 0.11 0.10 0.08 0.04 0.01 0.03 0.14 0.25 0.26 0.29 0.27 0.30 0.34
0.00 0.01 0.01 0.02 0.01 0.00 0.00 0.00 0.00 0.01 0.01 0.02 0.02 0.03 0.03 0.04 0.04 0.04 0.04 0.04 0.04 0.04 0.06 0.07 0.08 0.11 0.11 0.11 0.11 0.17 0.19 0.16 0.08 0.02 0.01 0.02 0.06 0.14 0.23 0.32 0.32 0.30 0.27
0.00 0.00 0.00 0.00 0.00 0.00 0.00 0.00 0.00 0.00 0.00 0.01 0.01 0.02 0.02 0.04 0.05 0.05 0.03 0.03 0.04 0.04 0.05 0.06 0.07 0.10 0.12 0.13 0.15 0.20 0.27 0.22 0.10 0.12 0.08 0.05 0.06 0.10 0.18 0.30 0.34 0.32 0.31
0.00 0.00 0.00 0.00 0.00 0.00 0.00 0.00 0.00 0.00 0.00 0.00 0.00 0.00 0.00 0.01 0.03 0.04 0.04 0.05 0.06 0.05 0.06 0.05 0.05 0.06 0.08 0.12 0.15 0.18 0.23 0.16 0.13 0.21 0.23 0.18 0.13 0.16 0.20 0.28 0.33 0.35 0.37
0.00 0.00 0.00 0.00 0.00 0.00 0.00 0.00 0.00 0.00 0.00 0.00 0.00 0.00 0.00 0.00 0.00 0.01 0.02 0.03 0.05 0.04 0.06 0.05 0.04 0.04 0.05 0.07 0.10 0.16 0.19 0.15 0.21 0.35 0.30 0.32 0.23 0.27 0.31 0.30 0.30 0.35 0.38
0.00 0.00 0.00 0.00 0.00 0.00 0.00 0.00 0.00 0.00 0.00 0.00 0.00 0.00 0.00 0.00 0.00 0.01 0.01 0.02 0.03 0.04 0.05 0.05 0.05 0.05 0.05 0.05 0.06 0.08 0.12 0.11 0.15 0.25 0.36 0.30 0.26 0.38 0.46 0.41 0.34 0.34 0.39
0.00 0.00 0.00 0.00 0.00 0.00 0.00 0.00 0.00 0.00 0.00 0.00 0.00 0.00 0.00 0.00 0.00 0.00 0.01 0.00 0.01 0.02 0.03 0.03 0.05 0.05 0.04 0.02 0.02 0.04 0.04 0.03 0.11 0.22 0.29 0.24 0.29 0.43 0.55 0.51 0.48 0.42 0.41
0.00 0.00 0.00 0.00 0.00 0.00 0.00 0.00 0.00 0.00 0.00 0.00 0.00 0.00 0.00 0.00 0.00 0.00 0.00 0.01 0.02 0.03 0.04 0.05 0.05 0.04 0.04 0.02 0.02 0.06 0.02 0.00 0.01 0.05 0.10 0.13 0.20 0.31 0.50 0.58 0.60 0.57 0.52
0.00 0.00 0.00 0.00 0.00 0.00 0.00 0.00 0.00 0.00 0.00 0.00 0.00 0.00 0.00 0.00 0.00 0.00 0.00 0.00 0.00 0.01 0.03 0.07 0.10 0.11 0.14 0.13 0.10 0.12 0.06 0.04 0.03 0.02 0.02 0.07 0.09 0.13 0.24 0.41 0.60 0.66 0.67
0.00 0.00 0.00 0.00 0.00 0.00 0.00 0.00 0.00 0.00 0.00 0.00 0.00 0.00 0.00 0.00 0.00 0.00 0.00 0.00 0.00 0.00 0.00 0.02 0.07 0.14 0.19 0.20 0.15 0.11 0.12 0.12 0.09 0.07 0.04 0.07 0.08 0.08 0.13 0.23 0.41 0.58 0.70
0.00 0.00 0.00 0.00 0.00 0.00 0.00 0.00 0.00 0.00 0.00 0.00 0.00 0.00 0.00 0.00 0.00 0.00 0.00 0.00 0.00 0.00 0.00 0.00 0.01 0.03 0.07 0.12 0.14 0.12 0.12 0.11 0.12 0.14 0.12 0.12 0.10 0.08 0.09 0.15 0.26 0.43 0.61
0.00 0.00 0.00 0.00 0.00 0.00 0.00 0.00 0.00 0.00 0.00 0.00 0.00 0.00 0.00 0.00 0.00 0.00 0.00 0.00 0.00 0.00 0.00 0.00 0.00 0.00 0.00 0.01 0.02 0.05 0.09 0.12 0.15 0.16 0.14 0.13 0.12 0.09 0.09 0.11 0.17 0.30 0.50
0.00 0.00 0.00 0.00 0.00 0.00 0.00 0.00 0.00 0.00 0.00 0.00 0.00 0.00 0.00 0.00 0.00 0.00 0.00 0.00 0.00 0.00 0.00 0.00 0.00 0.00 0.00 0.00 0.00 0.00 0.01 0.03 0.07 0.12 0.12 0.14 0.16 0.13 0.11 0.12 0.14 0.19 0.33
0.00 0.00 0.00 0.00 0.00 0.00 0.00 0.00 0.00 0.00 0.00 0.00 0.00 0.00 0.00 0.00 0.00 0.00 0.00 0.00 0.00 0.00 0.00 0.00 0.00 0.00 0.00 0.00 0.00 0.00 0.00 0.00 0.00 0.02 0.04 0.09 0.14 0.17 0.15 0.15 0.16 0.17 0.22
0.00 0.00 0.00 0.00 0.00 0.00 0.00 0.00 0.00 0.00 0.00 0.00 0.00 0.00 0.00 0.00 0.00 0.00 0.00 0.00 0.00 0.00 0.00 0.00 0.00 0.00 0.00 0.00 0.00 0.00 0.00 0.00 0.00 0.00 0.00 0.02 0.05 0.11 0.15 0.16 0.16 0.16 0.16
0.00 0.00 0.00 0.00 0.00 0.00 0.00 0.00 0.00 0.00 0.00 0.00 0.00 0.00 0.00 0.00 0.00 0.00 0.00 0.00 0.00 0.00 0.00 0.00 0.00 0.00 0.00 0.00 0.00 0.00 0.00 0.00 0.00 0.00 0.00 0.00 0.01 0.05 0.09 0.12 0.14 0.15 0.15
0.00 0.00 0.00 0.00 0.00 0.00 0.00 0.00 0.00 0.00 0.00 0.00 0.00 0.00 0.00 0.00 0.00 0.00 0.00 0.00 0.00 0.01 0.00 0.00 0.00 0.00 0.01 0.00 0.00 0.00 0.00 0.00 0.00 0.00 0.00 0.00 0.00 0.02 0.06 0.10 0.13 0.14 0.14
0.00 0.00 0.00 0.00 0.00 0.00 0.00 0.00 0.00 0.00 0.00 0.00 0.00 0.00 0.00 0.00 0.00 0.00 0.00 0.01 0.01 0.01 0.00 0.00 0.01 0.02 0.02 0.01 0.03 0.06 0.04 0.01 0.00 0.00 0.00 0.00 0.00 0.00 0.02 0.06 0.12 0.13 0.12
0.00 0.00 0.00 0.00 0.00 0.00 0.00 0.00 0.00 0.00 0.00 0.00 0.00 0.00 0.00 0.00 0.00 0.00 0.00 0.01 0.02 0.01 0.01 0.01 0.02 0.03 0.04 0.02 0.03 0.14 0.23 0.15 0.04 0.00 0.00 0.00 0.00 0.00 0.00 0.02 0.06 0.11 0.14
0.00 0.00 0.00 0.00 0.00 0.00 0.00 0.00 0.00 0.00 0.00 0.00 0.00 0.00 0.00 0.00 0.00 0.00 0.01 0.01 0.01 0.01 0.01 0.02 0.02 0.04 0.07 0.08 0.04 0.06 0.14 0.19 0.24 0.12 0.02 0.03 0.03 0.03 0.02 0.02 0.03 0.07 0.13
0.00 0.00 0.00 0.00 0.00 0.00 0.00 0.00 0.00 0.00 0.00 0.00 0.00 0.00 0.00 0.00 0.00 0.00 0.01 0.01 0.01 0.01 0.01 0.02 0.03 0.04 0.08 0.11 0.11 0.10 0.08 0.07 0.12 0.22 0.10 0.04 0.07 0.08 0.07 0.05 0.06 0.09 0.12
0.00 0.00 0.00 0.00 0.00 0.00 0.00 0.00 0.00 0.00 0.00 0.00 0.00 0.00 0.00 0.00 0.00 0.00 0.00 0.00 0.01 0.01 0.02 0.03 0.04 0.05 0.06 0.07 0.10 0.12 0.16 0.18 0.13 0.18 0.18 0.06 0.03 0.04 0.06 0.08 0.08 0.12 0.15

GEFSSE_prec_meanprecacc_066.txt.gz
Total_Precipitation_Accumulation
0.01 0.05 0.11 0.20 0.15 0.11 0.10 0.09 0.08 0.06 0.06 0.08 0.11 0.13 0.15 0.16 0.16 0.16 0.16 0.18 0.20 0.21 0.21 0.21 0.20 0.18 0.17 0.16 0.16 0.16 0.19 0.24 0.26 0.23 0.20 0.20 0.22 0.21 0.23 0.23 0.16 0.19 0.31
0.02 0.06 0.10 0.13 0.10 0.08 0.06 0.05 0.05 0.04 0.04 0.06 0.08 0.08 0.09 0.11 0.14 0.15 0.15 0.16 0.17 0.20 0.23 0.24 0.21 0.17 0.16 0.15 0.14 0.13 0.14 0.16 0.20 0.22 0.18 0.12 0.20 0.24 0.22 0.24 0.20 0.35 0.41
0.01 0.04 0.05 0.07 0.07 0.05 0.05 0.04 0.04 0.03 0.03 0.04 0.05 0.06 0.06 0.07 0.09 0.11 0.13 0.14 0.14 0.14 0.15 0.18 0.18 0.15 0.13 0.12 0.12 0.11 0.13 0.12 0.12 0.15 0.15 0.09 0.20 0.31 0.29 0.28 0.22 0.36 0.40
0.01 0.04 0.03 0.03 0.04 0.05 0.04 0.04 0.03 0.03 0.03 0.03 0.04 0.04 0.04 0.06 0.07 0.08 0.09 0.09 0.10 0.11 0.12 0.12 0.11 0.12 0.10 0.08 0.09 0.09 0.11 0.11 0.09 0.08 0.03 0.04 0.21 0.32 0.35 0.30 0.25 0.30 0.36
0.02 0.03 0.03 0.03 0.03 0.02 0.02 0.02 0.02 0.02 0.03 0.03 0.03 0.03 0.04 0.04 0.06 0.06 0.06 0.06 0.06 0.07 0.08 0.09 0.09 0.11 0.11 0.09 0.08 0.10 0.11 0.10 0.08 0.04 0.01 0.03 0.14 0.26 0.27 0.30 0.28 0.31 0.34
0.00 0.01 0.01 0.02 0.01 0.01 0.00 0.00 0.00 0.01 0.01 0.02 0.02 0.03 0.03 0.04 0.04 0.04 0.04 0.04 0.04 0.04 0.06 0.07 0.08 0.11 0.11 0.11 0.11 0.17 0.19 0.16 0.08 0.02 0.01 0.02 0.06 0.15 0.24 0.33 0.33 0.31 0.27
0.00 0.00 0.00 0.00 0.00 0.00 0.00 0.00 0.00 0.00 0.00 0.01 0.01 0.02 0.02 0.04 0.05 0.05 0.03 0.03 0.04 0.04 0.05 0.06 0.07 0.10 0.12 0.13 0.15 0.20 0.27 0.22 0.10 0.12 0.08 0.05 0.06 0.11 0.18 0.31 0.34 0.32 0.32
0.00 0.00 0.00 0.00 0.00 0.00 0.00 0.00 0.00 0.00 0.00 0.00 0.00 0.01 0.00 0.01 0.03 0.04 0.04 0.05 0.06 0.05 0.06 0.05 0.05 0.06 0.08 0.12 0.15 0.18 0.23 0.16 0.13 0.21 0.23 0.18 0.14 0.16 0.21 0.29 0.34 0.35 0.37
0.00 0.00 0.00 0.00 0.00 0.00 0.00 0.00 0.00 0.00 0.00 0.00 0.00 0.00 0.00 0.00 0.00 0.01 0.02 0.03 0.05 0.04 0.06 0.05 0.04 0.04 0.05 0.07 0.10 0.16 0.19 0.15 0.21 0.35 0.30 0.32 0.23 0.28 0.31 0.30 0.30 0.35 0.38
0.00 0.00 0.00 0.00 0.00 0.00 0.00 0.00 0.00 0.00 0.00 0.00 0.00 0.00 0.00 0.00 0.00 0.01 0.01 0.02 0.03 0.04 0.05 0.05 0.05 0.05 0.05 0.05 0.06 0.08 0.12 0.11 0.15 0.25 0.36 0.30 0.26 0.38 0.46 0.41 0.34 0.34 0.39
0.00 0.00 0.00 0.00 0.00 0.00 0.00 0.00 0.00 0.00 0.00 0.00 0.00 0.00 0.00 0.00 0.00 0.00 0.01 0.00 0.01 0.02 0.03 0.03 0.05 0.05 0.04 0.02 0.02 0.04 0.04 0.03 0.11 0.22 0.29 0.24 0.29 0.43 0.55 0.51 0.48 0.42 0.41
0.00 0.00 0.00 0.00 0.00 0.00 0.00 0.00 0.00 0.00 0.00 0.00 0.00 0.00 0.00 0.00 0.00 0.00 0.00 0.01 0.02 0.03 0.04 0.05 0.05 0.04 0.04 0.02 0.02 0.06 0.02 0.00 0.01 0.05 0.10 0.13 0.20 0.31 0.50 0.58 0.60 0.57 0.52
0.00 0.00 0.00 0.00 0.00 0.00 0.00 0.00 0.00 0.00 0.00 0.00 0.00 0.00 0.00 0.00 0.00 0.00 0.00 0.00 0.00 0.01 0.03 0.07 0.10 0.11 0.14 0.13 0.10 0.12 0.06 0.04 0.03 0.02 0.02 0.07 0.09 0.13 0.24 0.41 0.60 0.66 0.67
0.00 0.00 0.00 0.00 0.00 0.00 0.00 0.00 0.00 0.00 0.00 0.00 0.00 0.00 0.00 0.00 0.00 0.00 0.00 0.00 0.00 0.00 0.00 0.02 0.07 0.14 0.19 0.20 0.15 0.11 0.12 0.12 0.09 0.07 0.04 0.07 0.08 0.08 0.13 0.23 0.41 0.58 0.70
0.00 0.00 0.00 0.00 0.00 0.00 0.00 0.00 0.00 0.00 0.00 0.00 0.00 0.00 0.00 0.00 0.00 0.00 0.00 0.00 0.00 0.00 0.00 0.00 0.01 0.03 0.07 0.12 0.14 0.12 0.12 0.11 0.12 0.14 0.12 0.12 0.10 0.08 0.09 0.15 0.26 0.43 0.61
0.00 0.00 0.00 0.00 0.00 0.00 0.00 0.00 0.00 0.00 0.00 0.00 0.00 0.00 0.00 0.00 0.00 0.00 0.00 0.00 0.00 0.00 0.00 0.00 0.00 0.00 0.00 0.01 0.02 0.05 0.09 0.12 0.15 0.16 0.14 0.13 0.12 0.09 0.09 0.11 0.17 0.30 0.50
0.00 0.00 0.00 0.00 0.00 0.00 0.00 0.00 0.00 0.00 0.00 0.00 0.00 0.00 0.00 0.00 0.00 0.00 0.00 0.00 0.00 0.00 0.00 0.00 0.00 0.00 0.00 0.00 0.00 0.00 0.01 0.03 0.07 0.12 0.12 0.14 0.16 0.13 0.11 0.12 0.14 0.19 0.33
0.00 0.00 0.00 0.00 0.00 0.00 0.00 0.00 0.00 0.00 0.00 0.00 0.00 0.00 0.00 0.00 0.00 0.00 0.00 0.00 0.00 0.00 0.00 0.00 0.00 0.00 0.00 0.00 0.00 0.00 0.00 0.00 0.00 0.02 0.04 0.09 0.14 0.17 0.15 0.15 0.16 0.17 0.22
0.00 0.00 0.00 0.00 0.00 0.00 0.00 0.00 0.00 0.00 0.00 0.00 0.00 0.00 0.00 0.00 0.00 0.00 0.00 0.00 0.00 0.00 0.00 0.00 0.00 0.00 0.00 0.00 0.00 0.00 0.00 0.00 0.00 0.00 0.00 0.02 0.05 0.11 0.15 0.16 0.16 0.16 0.16
0.00 0.00 0.00 0.00 0.00 0.00 0.00 0.00 0.00 0.00 0.00 0.00 0.00 0.00 0.00 0.00 0.00 0.00 0.00 0.00 0.00 0.00 0.00 0.00 0.00 0.00 0.00 0.00 0.00 0.00 0.00 0.00 0.00 0.00 0.00 0.00 0.01 0.05 0.09 0.12 0.14 0.15 0.15
0.00 0.00 0.00 0.00 0.00 0.00 0.00 0.00 0.00 0.00 0.00 0.00 0.00 0.00 0.00 0.00 0.00 0.00 0.00 0.00 0.00 0.01 0.00 0.00 0.00 0.00 0.01 0.00 0.00 0.00 0.00 0.00 0.00 0.00 0.00 0.00 0.00 0.02 0.06 0.10 0.13 0.14 0.14
0.00 0.00 0.00 0.00 0.00 0.00 0.00 0.00 0.00 0.00 0.00 0.00 0.00 0.00 0.00 0.00 0.00 0.00 0.00 0.01 0.01 0.01 0.00 0.00 0.01 0.02 0.02 0.01 0.03 0.06 0.04 0.01 0.00 0.00 0.00 0.00 0.00 0.00 0.02 0.06 0.12 0.13 0.12
0.00 0.00 0.00 0.00 0.00 0.00 0.00 0.00 0.00 0.00 0.00 0.00 0.00 0.00 0.00 0.00 0.00 0.00 0.00 0.01 0.02 0.01 0.01 0.01 0.02 0.03 0.04 0.02 0.03 0.14 0.23 0.15 0.04 0.00 0.00 0.00 0.00 0.00 0.00 0.02 0.06 0.11 0.14
0.00 0.00 0.00 0.00 0.00 0.00 0.00 0.00 0.00 0.00 0.00 0.00 0.00 0.00 0.00 0.00 0.00 0.00 0.01 0.01 0.01 0.01 0.01 0.02 0.02 0.04 0.07 0.08 0.04 0.06 0.14 0.19 0.24 0.12 0.02 0.03 0.03 0.03 0.02 0.02 0.03 0.07 0.13
0.00 0.00 0.00 0.00 0.00 0.00 0.00 0.00 0.00 0.00 0.00 0.00 0.00 0.00 0.00 0.00 0.00 0.00 0.01 0.01 0.01 0.01 0.01 0.02 0.03 0.04 0.08 0.11 0.11 0.10 0.08 0.07 0.12 0.22 0.10 0.04 0.07 0.08 0.07 0.05 0.06 0.09 0.12
0.00 0.00 0.00 0.00 0.00 0.00 0.00 0.00 0.00 0.00 0.00 0.00 0.00 0.00 0.00 0.00 0.00 0.00 0.00 0.00 0.01 0.01 0.02 0.03 0.04 0.05 0.06 0.07 0.10 0.12 0.16 0.18 0.13 0.18 0.18 0.06 0.03 0.04 0.06 0.08 0.08 0.12 0.15

GEFSSE_prec_meanprecacc_072.txt.gz
Total_Precipitation_Accumulation
0.01 0.05 0.11 0.20 0.15 0.11 0.10 0.09 0.08 0.07 0.07 0.09 0.12 0.14 0.15 0.16 0.17 0.17 0.17 0.18 0.20 0.21 0.21 0.21 0.20 0.19 0.17 0.17 0.17 0.17 0.20 0.25 0.27 0.24 0.21 0.21 0.24 0.23 0.24 0.24 0.16 0.20 0.31
0.02 0.06 0.10 0.13 0.10 0.08 0.06 0.05 0.05 0.05 0.04 0.06 0.09 0.09 0.09 0.12 0.14 0.16 0.16 0.16 0.17 0.20 0.23 0.24 0.21 0.18 0.17 0.15 0.15 0.14 0.15 0.17 0.21 0.22 0.18 0.12 0.21 0.25 0.23 0.25 0.21 0.36 0.42
0.01 0.04 0.05 0.08 0.07 0.05 0.05 0.04 0.04 0.03 0.03 0.04 0.05 0.06 0.06 0.08 0.10 0.12 0.14 0.14 0.14 0.15 0.16 0.18 0.18 0.15 0.13 0.12 0.13 0.12 0.13 0.12 0.12 0.15 0.15 0.09 0.20 0.33 0.31 0.29 0.23 0.37 0.41
0.01 0.04 0.03 0.03 0.04 0.05 0.04 0.04 0.03 0.03 0.03 0.03 0.04 0.04 0.04 0.06 0.08 0.09 0.09 0.09 0.11 0.11 0.12 0.12 0.11 0.12 0.10 0.08 0.09 0.10 0.11 0.11 0.09 0.08 0.03 0.04 0.21 0.34 0.36 0.31 0.26 0.31 0.37
0.02 0.03 0.03 0.03 0.03 0.02 0.02 0.02 0.02 0.02 0.03 0.03 0.03 0.03 0.04 0.05 0.06 0.07 0.06 0.06 0.06 0.07 0.08 0.09 0.09 0.11 0.11 0.09 0.08 0.10 0.11 0.10 0.08 0.04 0.01 0.03 0.14 0.27 0.28 0.31 0.28 0.32 0.35
0.00 0.01 0.01 0.02 0.02 0.01 0.01 0.01 0.01 0.01 0.01 0.02 0.02 0.03 0.03 0.04 0.04 0.04 0.04 0.04 0.04 0.04 0.06 0.07 0.08 0.11 0.11 0.11 0.11 0.17 0.19 0.16 0.08 0.02 0.01 0.02 0.06 0.16 0.25 0.34 0.34 0.32 0.28
0.00 0.00 0.00 0.00 0.01 0.01 0.00 0.00 0.00 0.00 0.00 0.01 0.01 0.02 0.02 0.04 0.05 0.05 0.03 0.03 0.04 0.04 0.05 0.06 0.07 0.10 0.12 0.13 0.15 0.20 0.27 0.22 0.10 0.12 0.08 0.05 0.06 0.12 0.19 0.31 0.35 0.33 0.32
0.00 0.00 0.00 0.00 0.01 0.01 0.01 0.01 0.00 0.00 0.00 0.00 0.00 0.01 0.00 0.01 0.03 0.04 0.04 0.05 0.06 0.05 0.06 0.05 0.05 0.06 0.08 0.12 0.15 0.18 0.23 0.16 0.13 0.21 0.23 0.18 0.14 0.17 0.21 0.29 0.34 0.36 0.37
0.00 0.00 0.00 0.00 0.01 0.01 0.01 0.01 0.01 0.00 0.00 0.00 0.00 0.00 0.00 0.00 0.00 0.01 0.02 0.03 0.05 0.04 0.06 0.05 0.04 0.04 0.05 0.07 0.10 0.16 0.19 0.15 0.21 0.35 0.30 0.32 0.23 0.28 0.32 0.30 0.30 0.35 0.38
0.00 0.00 0.00 0.00 0.00 0.00 0.00 0.01 0.01 0.01 0.00 0.00 0.00 0.00 0.00 0.00 0.00 0.01 0.01 0.02 0.03 0.04 0.05 0.05 0.05 0.05 0.05 0.05 0.06 0.08 0.12 0.11 0.15 0.25 0.36 0.30 0.26 0.38 0.46 0.41 0.34 0.34 0.39
0.00 0.00 0.00 0.00 0.00 0.00 0.00 0.00 0.01 0.01 0.00 0.00 0.00 0.00 0.00 0.00 0.00 0.00 0.01 0.00 0.01 0.02 0.03 0.03 0.05 0.05 0.04 0.02 0.02 0.04 0.04 0.03 0.11 0.22 0.29 0.24 0.29 0.43 0.55 0.51 0.48 0.42 0.41
0.00 0.00 0.00 0.00 0.00 0.00 0.00 0.00 0.00 0.00 0.00 0.00 0.00 0.00 0.00 0.00 0.00 0.00 0.00 0.01 0.02 0.03 0.04 0.05 0.05 0.04 0.04 0.02 0.02 0.06 0.02 0.00 0.01 0.05 0.10 0.13 0.20 0.31 0.50 0.58 0.60 0.57 0.52
0.00 0.00 0.00 0.00 0.00 0.00 0.00 0.00 0.00 0.00 0.00 0.00 0.00 0.00 0.00 0.00 0.00 0.00 0.00 0.00 0.00 0.01 0.03 0.07 0.10 0.11 0.14 0.13 0.10 0.12 0.06 0.04 0.03 0.02 0.02 0.07 0.09 0.13 0.24 0.41 0.60 0.66 0.67
0.00 0.00 0.00 0.00 0.00 0.00 0.00 0.00 0.00 0.00 0.00 0.00 0.00 0.00 0.00 0.00 0.00 0.00 0.00 0.00 0.00 0.00 0.00 0.02 0.07 0.14 0.19 0.20 0.15 0.11 0.12 0.12 0.09 0.07 0.04 0.07 0.08 0.08 0.13 0.23 0.41 0.58 0.70
0.00 0.00 0.00 0.00 0.00 0.00 0.00 0.00 0.00 0.00 0.00 0.00 0.00 0.00 0.00 0.00 0.00 0.00 0.00 0.00 0.00 0.00 0.00 0.00 0.01 0.03 0.07 0.12 0.14 0.12 0.12 0.11 0.12 0.14 0.12 0.12 0.10 0.08 0.09 0.15 0.26 0.43 0.61
0.00 0.00 0.00 0.00 0.00 0.00 0.00 0.00 0.00 0.00 0.00 0.00 0.00 0.00 0.00 0.00 0.00 0.00 0.00 0.00 0.00 0.00 0.00 0.00 0.00 0.00 0.00 0.01 0.02 0.05 0.09 0.12 0.15 0.16 0.14 0.13 0.12 0.09 0.09 0.11 0.17 0.30 0.50
0.00 0.00 0.00 0.00 0.00 0.00 0.00 0.00 0.00 0.00 0.00 0.00 0.00 0.00 0.00 0.00 0.00 0.00 0.00 0.00 0.00 0.00 0.00 0.00 0.00 0.00 0.00 0.00 0.00 0.00 0.01 0.03 0.07 0.12 0.12 0.14 0.16 0.13 0.11 0.12 0.14 0.19 0.33
0.00 0.00 0.00 0.00 0.00 0.00 0.00 0.00 0.00 0.00 0.00 0.00 0.00 0.00 0.00 0.00 0.00 0.00 0.00 0.00 0.00 0.00 0.00 0.00 0.00 0.00 0.00 0.00 0.00 0.00 0.00 0.00 0.00 0.02 0.04 0.09 0.14 0.17 0.15 0.15 0.16 0.17 0.22
0.00 0.00 0.00 0.00 0.00 0.00 0.00 0.00 0.00 0.00 0.00 0.00 0.00 0.00 0.00 0.00 0.00 0.00 0.00 0.00 0.00 0.00 0.00 0.00 0.00 0.00 0.00 0.00 0.00 0.00 0.00 0.00 0.00 0.00 0.00 0.02 0.05 0.11 0.15 0.16 0.16 0.16 0.16
0.00 0.00 0.00 0.00 0.00 0.00 0.00 0.00 0.00 0.00 0.00 0.00 0.00 0.00 0.00 0.00 0.00 0.00 0.00 0.00 0.00 0.00 0.00 0.00 0.00 0.00 0.00 0.00 0.00 0.00 0.00 0.00 0.00 0.00 0.00 0.00 0.01 0.05 0.09 0.12 0.14 0.15 0.15
0.00 0.00 0.00 0.00 0.00 0.00 0.00 0.00 0.00 0.00 0.00 0.00 0.00 0.00 0.00 0.00 0.00 0.00 0.00 0.00 0.00 0.01 0.00 0.00 0.00 0.00 0.01 0.00 0.00 0.00 0.00 0.00 0.00 0.00 0.00 0.00 0.00 0.02 0.06 0.10 0.13 0.14 0.14
0.00 0.00 0.00 0.00 0.00 0.00 0.00 0.00 0.00 0.00 0.00 0.00 0.00 0.00 0.00 0.00 0.00 0.00 0.00 0.01 0.01 0.01 0.00 0.00 0.01 0.02 0.02 0.01 0.03 0.06 0.04 0.01 0.00 0.00 0.00 0.00 0.00 0.00 0.02 0.06 0.12 0.13 0.12
0.00 0.00 0.00 0.00 0.00 0.00 0.00 0.00 0.00 0.00 0.00 0.00 0.00 0.00 0.00 0.00 0.00 0.00 0.00 0.01 0.02 0.01 0.01 0.01 0.02 0.03 0.04 0.02 0.03 0.14 0.23 0.15 0.04 0.00 0.00 0.00 0.00 0.00 0.00 0.02 0.06 0.11 0.14
0.00 0.00 0.00 0.00 0.00 0.00 0.00 0.00 0.00 0.00 0.00 0.00 0.00 0.00 0.00 0.00 0.00 0.00 0.01 0.01 0.01 0.01 0.01 0.02 0.02 0.04 0.07 0.08 0.04 0.06 0.14 0.19 0.24 0.12 0.02 0.03 0.03 0.03 0.02 0.02 0.03 0.07 0.13
0.00 0.00 0.00 0.00 0.00 0.00 0.00 0.00 0.00 0.00 0.00 0.00 0.00 0.00 0.00 0.00 0.00 0.00 0.01 0.01 0.01 0.01 0.01 0.02 0.03 0.04 0.08 0.11 0.11 0.10 0.08 0.07 0.12 0.22 0.10 0.04 0.07 0.08 0.07 0.05 0.06 0.09 0.12
0.00 0.00 0.00 0.00 0.00 0.00 0.00 0.00 0.00 0.00 0.00 0.00 0.00 0.00 0.00 0.00 0.00 0.00 0.00 0.00 0.01 0.01 0.02 0.03 0.04 0.05 0.06 0.07 0.10 0.12 0.16 0.18 0.13 0.18 0.18 0.06 0.03 0.04 0.06 0.08 0.08 0.12 0.15

GEFSSE_prec_meanprecacc_078.txt.gz
Total_Precipitation_Accumulation
0.01 0.05 0.11 0.20 0.15 0.11 0.10 0.10 0.09 0.08 0.07 0.09 0.12 0.14 0.16 0.17 0.17 0.17 0.17 0.19 0.21 0.21 0.22 0.22 0.21 0.19 0.19 0.18 0.18 0.18 0.20 0.25 0.27 0.25 0.22 0.23 0.25 0.24 0.25 0.24 0.17 0.20 0.32
0.02 0.06 0.10 0.13 0.10 0.08 0.07 0.06 0.06 0.05 0.05 0.07 0.09 0.09 0.10 0.12 0.15 0.16 0.16 0.17 0.18 0.20 0.23 0.25 0.21 0.18 0.17 0.16 0.16 0.15 0.15 0.17 0.21 0.22 0.18 0.13 0.22 0.27 0.24 0.26 0.22 0.37 0.43
0.01 0.04 0.05 0.08 0.07 0.05 0.06 0.05 0.04 0.03 0.03 0.04 0.06 0.07 0.06 0.08 0.10 0.12 0.14 0.14 0.15 0.15 0.16 0.18 0.18 0.15 0.13 0.13 0.13 0.13 0.14 0.13 0.12 0.15 0.15 0.09 0.21 0.35 0.32 0.30 0.24 0.38 0.42
0.01 0.04 0.03 0.03 0.04 0.05 0.05 0.04 0.03 0.03 0.03 0.03 0.04 0.04 0.05 0.07 0.08 0.09 0.09 0.10 0.11 0.12 0.12 0.12 0.11 0.12 0.10 0.08 0.09 0.10 0.12 0.11 0.09 0.08 0.03 0.05 0.21 0.35 0.37 0.32 0.27 0.32 0.38
0.02 0.03 0.03 0.03 0.03 0.03 0.02 0.02 0.02 0.02 0.03 0.04 0.03 0.03 0.04 0.05 0.06 0.07 0.07 0.06 0.06 0.07 0.08 0.09 0.09 0.11 0.11 0.09 0.08 0.10 0.11 0.10 0.08 0.04 0.01 0.03 0.15 0.28 0.29 0.31 0.29 0.33 0.36
0.00 0.01 0.01 0.02 0.02 0.01 0.01 0.01 0.01 0.01 0.01 0.02 0.03 0.03 0.04 0.04 0.04 0.04 0.04 0.04 0.04 0.04 0.06 0.07 0.08 0.11 0.11 0.11 0.11 0.17 0.19 0.16 0.08 0.02 0.01 0.02 0.06 0.17 0.26 0.35 0.35 0.32 0.29
0.00 0.00 0.00 0.00 0.01 0.01 0.01 0.00 0.00 0.00 0.01 0.01 0.01 0.02 0.02 0.04 0.05 0.05 0.03 0.03 0.04 0.04 0.05 0.06 0.07 0.10 0.12 0.13 0.15 0.20 0.27 0.22 0.10 0.12 0.08 0.05 0.06 0.12 0.19 0.31 0.35 0.33 0.32
0.00 0.00 0.00 0.01 0.01 0.01 0.01 0.01 0.01 0.00 0.00 0.01 0.01 0.01 0.01 0.01 0.03 0.04 0.04 0.05 0.06 0.05 0.06 0.05 0.05 0.06 0.08 0.12 0.15 0.18 0.23 0.16 0.13 0.21 0.23 0.18 0.14 0.17 0.21 0.29 0.34 0.36 0.37
0.00 0.00 0.00 0.00 0.01 0.01 0.01 0.01 0.01 0.01 0.01 0.01 0.00 0.00 0.00 0.00 0.01 0.01 0.02 0.03 0.05 0.04 0.06 0.05 0.04 0.04 0.05 0.07 0.10 0.16 0.19 0.15 0.21 0.35 0.30 0.32 0.23 0.28 0.32 0.30 0.30 0.35 0.38
0.00 0.00 0.00 0.00 0.00 0.00 0.01 0.01 0.01 0.01 0.01 0.01 0.01 0.00 0.00 0.00 0.00 0.01 0.01 0.02 0.03 0.04 0.05 0.05 0.05 0.05 0.05 0.05 0.06 0.08 0.12 0.11 0.15 0.25 0.36 0.30 0.26 0.38 0.46 0.41 0.34 0.34 0.39
0.00 0.00 0.00 0.00 0.00 0.00 0.00 0.00 0.01 0.01 0.01 0.01 0.01 0.00 0.00 0.00 0.00 0.00 0.01 0.01 0.01 0.02 0.03 0.03 0.05 0.05 0.04 0.02 0.02 0.04 0.04 0.03 0.11 0.22 0.29 0.24 0.29 0.43 0.55 0.51 0.48 0.42 0.41
0.00 0.00 0.00 0.00 0.00 0.00 0.00 0.00 0.00 0.00 0.00 0.00 0.00 0.00 0.00 0.00 0.00 0.00 0.00 0.01 0.02 0.03 0.04 0.05 0.05 0.04 0.04 0.02 0.02 0.06 0.02 0.00 0.01 0.05 0.10 0.13 0.20 0.31 0.50 0.58 0.60 0.57 0.52
0.00 0.00 0.00 0.00 0.00 0.00 0.00 0.00 0.00 0.00 0.00 0.00 0.00 0.00 0.00 0.00 0.00 0.00 0.00 0.00 0.00 0.01 0.03 0.07 0.10 0.11 0.14 0.13 0.10 0.12 0.06 0.04 0.03 0.02 0.02 0.07 0.09 0.13 0.24 0.41 0.60 0.66 0.67
0.00 0.00 0.00 0.00 0.00 0.00 0.00 0.00 0.00 0.00 0.00 0.00 0.00 0.00 0.00 0.00 0.00 0.00 0.00 0.00 0.00 0.00 0.00 0.02 0.07 0.14 0.19 0.20 0.15 0.11 0.12 0.12 0.09 0.07 0.04 0.07 0.08 0.08 0.13 0.23 0.41 0.58 0.70
0.00 0.00 0.00 0.00 0.00 0.00 0.00 0.00 0.00 0.00 0.00 0.00 0.00 0.00 0.00 0.00 0.00 0.00 0.00 0.00 0.00 0.00 0.00 0.00 0.01 0.03 0.07 0.12 0.14 0.12 0.12 0.11 0.12 0.14 0.12 0.12 0.10 0.08 0.09 0.15 0.26 0.43 0.61
0.00 0.00 0.00 0.00 0.00 0.00 0.00 0.00 0.00 0.00 0.00 0.00 0.00 0.00 0.00 0.00 0.00 0.00 0.00 0.00 0.00 0.00 0.00 0.00 0.00 0.00 0.00 0.01 0.02 0.05 0.09 0.12 0.15 0.16 0.14 0.13 0.12 0.09 0.09 0.11 0.17 0.30 0.50
0.00 0.00 0.00 0.00 0.00 0.00 0.00 0.00 0.00 0.00 0.00 0.00 0.00 0.00 0.00 0.00 0.00 0.00 0.00 0.00 0.00 0.00 0.00 0.00 0.00 0.00 0.00 0.00 0.00 0.00 0.01 0.03 0.07 0.12 0.12 0.14 0.16 0.13 0.11 0.12 0.14 0.19 0.33
0.00 0.00 0.00 0.00 0.00 0.00 0.00 0.00 0.00 0.00 0.00 0.00 0.00 0.00 0.00 0.00 0.00 0.00 0.00 0.00 0.00 0.00 0.00 0.00 0.00 0.00 0.00 0.00 0.00 0.00 0.00 0.00 0.00 0.02 0.04 0.09 0.14 0.17 0.15 0.15 0.16 0.17 0.22
0.00 0.00 0.00 0.00 0.00 0.00 0.00 0.00 0.00 0.00 0.00 0.00 0.00 0.00 0.00 0.00 0.00 0.00 0.00 0.00 0.00 0.00 0.00 0.00 0.00 0.00 0.00 0.00 0.00 0.00 0.00 0.00 0.00 0.00 0.00 0.02 0.05 0.11 0.15 0.16 0.16 0.16 0.16
0.00 0.00 0.00 0.00 0.00 0.00 0.00 0.00 0.00 0.00 0.00 0.00 0.00 0.00 0.00 0.00 0.00 0.00 0.00 0.00 0.00 0.00 0.00 0.00 0.00 0.00 0.00 0.00 0.00 0.00 0.00 0.00 0.00 0.00 0.00 0.00 0.01 0.05 0.09 0.12 0.14 0.15 0.15
0.00 0.00 0.00 0.00 0.00 0.00 0.00 0.00 0.00 0.00 0.00 0.00 0.00 0.00 0.00 0.00 0.00 0.00 0.00 0.00 0.00 0.01 0.00 0.00 0.00 0.00 0.01 0.00 0.00 0.00 0.00 0.00 0.00 0.00 0.00 0.00 0.00 0.02 0.06 0.10 0.13 0.14 0.14
0.00 0.00 0.00 0.00 0.00 0.00 0.00 0.00 0.00 0.00 0.00 0.00 0.00 0.00 0.00 0.00 0.00 0.00 0.00 0.01 0.01 0.01 0.00 0.00 0.01 0.02 0.02 0.01 0.03 0.06 0.04 0.01 0.00 0.00 0.00 0.00 0.00 0.00 0.02 0.06 0.12 0.13 0.12
0.00 0.00 0.00 0.00 0.00 0.00 0.00 0.00 0.00 0.00 0.00 0.00 0.00 0.00 0.00 0.00 0.00 0.00 0.00 0.01 0.02 0.01 0.01 0.01 0.02 0.03 0.04 0.02 0.03 0.14 0.23 0.15 0.04 0.00 0.00 0.00 0.00 0.00 0.00 0.02 0.06 0.11 0.14
0.00 0.00 0.00 0.00 0.00 0.00 0.00 0.00 0.00 0.00 0.00 0.00 0.00 0.00 0.00 0.00 0.00 0.00 0.01 0.01 0.01 0.01 0.01 0.02 0.02 0.04 0.07 0.08 0.04 0.06 0.14 0.19 0.24 0.12 0.02 0.03 0.03 0.03 0.02 0.02 0.03 0.07 0.13
0.00 0.00 0.00 0.00 0.00 0.00 0.00 0.00 0.00 0.00 0.00 0.00 0.00 0.00 0.00 0.00 0.00 0.00 0.01 0.01 0.01 0.01 0.01 0.02 0.03 0.04 0.08 0.11 0.11 0.10 0.08 0.07 0.12 0.22 0.10 0.04 0.07 0.08 0.07 0.05 0.06 0.09 0.12
0.00 0.00 0.00 0.00 0.00 0.00 0.00 0.00 0.00 0.00 0.00 0.00 0.00 0.00 0.00 0.00 0.00 0.00 0.00 0.00 0.01 0.01 0.02 0.03 0.04 0.05 0.06 0.07 0.10 0.12 0.16 0.18 0.13 0.18 0.18 0.06 0.03 0.04 0.06 0.08 0.08 0.12 0.15

GEFSSE_prec_meanprecacc_084.txt.gz
Total_Precipitation_Accumulation
0.01 0.05 0.11 0.20 0.15 0.12 0.11 0.11 0.10 0.09 0.08 0.10 0.13 0.15 0.17 0.18 0.18 0.18 0.18 0.19 0.21 0.22 0.22 0.23 0.22 0.21 0.20 0.19 0.19 0.18 0.21 0.26 0.27 0.25 0.23 0.24 0.27 0.25 0.26 0.25 0.17 0.20 0.32
0.02 0.06 0.10 0.13 0.10 0.08 0.07 0.06 0.06 0.05 0.05 0.07 0.10 0.10 0.10 0.13 0.15 0.17 0.17 0.17 0.18 0.20 0.23 0.25 0.22 0.19 0.18 0.17 0.16 0.15 0.15 0.18 0.21 0.22 0.19 0.14 0.23 0.28 0.25 0.27 0.23 0.37 0.44
0.01 0.04 0.05 0.08 0.07 0.06 0.06 0.05 0.04 0.03 0.04 0.04 0.07 0.07 0.07 0.08 0.10 0.12 0.14 0.15 0.15 0.15 0.16 0.18 0.19 0.16 0.14 0.13 0.14 0.13 0.14 0.13 0.13 0.15 0.15 0.09 0.21 0.36 0.33 0.31 0.25 0.39 0.43
0.01 0.04 0.03 0.03 0.04 0.05 0.05 0.04 0.03 0.03 0.03 0.04 0.05 0.04 0.05 0.07 0.08 0.09 0.09 0.10 0.11 0.12 0.12 0.12 0.12 0.12 0.10 0.09 0.09 0.10 0.12 0.11 0.09 0.08 0.03 0.05 0.22 0.36 0.38 0.33 0.28 0.33 0.39
0.02 0.03 0.03 0.03 0.03 0.03 0.02 0.02 0.02 0.02 0.03 0.04 0.04 0.04 0.05 0.06 0.06 0.07 0.07 0.06 0.06 0.07 0.08 0.09 0.09 0.11 0.11 0.09 0.08 0.10 0.11 0.10 0.08 0.04 0.01 0.03 0.15 0.29 0.30 0.32 0.29 0.33 0.37
0.00 0.01 0.01 0.02 0.02 0.01 0.01 0.01 0.01 0.01 0.02 0.02 0.03 0.03 0.04 0.05 0.05 0.04 0.04 0.04 0.04 0.04 0.06 0.07 0.08 0.11 0.11 0.11 0.11 0.17 0.19 0.16 0.08 0.02 0.01 0.02 0.06 0.17 0.26 0.35 0.35 0.33 0.29
0.00 0.00 0.00 0.01 0.01 0.01 0.01 0.01 0.01 0.01 0.01 0.01 0.01 0.02 0.02 0.04 0.05 0.05 0.03 0.03 0.04 0.04 0.05 0.06 0.07 0.10 0.12 0.13 0.15 0.20 0.27 0.22 0.10 0.12 0.08 0.05 0.06 0.12 0.19 0.31 0.35 0.33 0.32
0.00 0.00 0.00 0.01 0.01 0.01 0.01 0.01 0.01 0.01 0.01 0.01 0.01 0.01 0.01 0.01 0.03 0.04 0.04 0.05 0.06 0.05 0.06 0.05 0.05 0.06 0.08 0.12 0.15 0.18 0.23 0.16 0.13 0.21 0.23 0.18 0.14 0.17 0.21 0.29 0.34 0.36 0.37
0.00 0.00 0.00 0.00 0.01 0.01 0.01 0.01 0.01 0.01 0.01 0.01 0.00 0.00 0.00 0.00 0.01 0.01 0.02 0.03 0.05 0.04 0.06 0.05 0.04 0.04 0.05 0.07 0.10 0.16 0.19 0.15 0.21 0.35 0.30 0.32 0.23 0.28 0.32 0.30 0.30 0.35 0.38
0.00 0.00 0.00 0.00 0.00 0.00 0.01 0.01 0.01 0.01 0.01 0.01 0.01 0.00 0.00 0.00 0.00 0.01 0.01 0.02 0.03 0.04 0.05 0.05 0.05 0.05 0.05 0.05 0.06 0.08 0.12 0.11 0.15 0.25 0.36 0.30 0.26 0.38 0.46 0.41 0.34 0.34 0.39
0.00 0.00 0.00 0.00 0.00 0.00 0.00 0.01 0.01 0.01 0.01 0.01 0.01 0.00 0.00 0.00 0.00 0.00 0.01 0.01 0.01 0.02 0.03 0.03 0.05 0.05 0.04 0.02 0.02 0.04 0.04 0.03 0.11 0.22 0.29 0.24 0.29 0.43 0.55 0.51 0.48 0.42 0.41
0.00 0.00 0.00 0.00 0.00 0.00 0.00 0.00 0.00 0.00 0.01 0.00 0.00 0.00 0.00 0.00 0.00 0.00 0.00 0.01 0.02 0.03 0.04 0.05 0.05 0.04 0.04 0.02 0.02 0.06 0.02 0.00 0.01 0.05 0.10 0.13 0.20 0.31 0.50 0.58 0.60 0.57 0.52
0.00 0.00 0.00 0.00 0.00 0.00 0.00 0.00 0.00 0.00 0.00 0.00 0.00 0.00 0.00 0.00 0.00 0.00 0.00 0.00 0.00 0.01 0.03 0.07 0.10 0.11 0.14 0.13 0.10 0.12 0.06 0.04 0.03 0.02 0.02 0.07 0.09 0.13 0.24 0.41 0.60 0.66 0.67
0.00 0.00 0.00 0.00 0.00 0.00 0.00 0.00 0.00 0.00 0.00 0.00 0.00 0.00 0.00 0.00 0.00 0.00 0.00 0.00 0.00 0.00 0.00 0.02 0.07 0.14 0.19 0.20 0.15 0.11 0.12 0.12 0.09 0.07 0.04 0.07 0.08 0.08 0.13 0.23 0.41 0.58 0.70
0.00 0.00 0.00 0.00 0.00 0.00 0.00 0.00 0.00 0.00 0.00 0.00 0.00 0.00 0.00 0.00 0.00 0.00 0.00 0.00 0.00 0.00 0.00 0.00 0.01 0.03 0.07 0.12 0.14 0.12 0.12 0.11 0.12 0.14 0.12 0.12 0.10 0.08 0.09 0.15 0.26 0.43 0.61
0.00 0.00 0.00 0.00 0.00 0.00 0.00 0.00 0.00 0.00 0.00 0.00 0.00 0.00 0.00 0.00 0.00 0.00 0.00 0.00 0.00 0.00 0.00 0.00 0.00 0.00 0.00 0.01 0.02 0.05 0.09 0.12 0.15 0.16 0.14 0.13 0.12 0.09 0.09 0.11 0.17 0.30 0.50
0.00 0.00 0.00 0.00 0.00 0.00 0.00 0.00 0.00 0.00 0.00 0.00 0.00 0.00 0.00 0.00 0.00 0.00 0.00 0.00 0.00 0.00 0.00 0.00 0.00 0.00 0.00 0.00 0.00 0.00 0.01 0.03 0.07 0.12 0.12 0.14 0.16 0.13 0.11 0.12 0.14 0.19 0.33
0.00 0.00 0.00 0.00 0.00 0.00 0.00 0.00 0.00 0.00 0.00 0.00 0.00 0.00 0.00 0.00 0.00 0.00 0.00 0.00 0.00 0.00 0.00 0.00 0.00 0.00 0.00 0.00 0.00 0.00 0.00 0.00 0.00 0.02 0.04 0.09 0.14 0.17 0.15 0.15 0.16 0.17 0.22
0.00 0.00 0.00 0.00 0.00 0.00 0.00 0.00 0.00 0.00 0.00 0.00 0.00 0.00 0.00 0.00 0.00 0.00 0.00 0.00 0.00 0.00 0.00 0.00 0.00 0.00 0.00 0.00 0.00 0.00 0.00 0.00 0.00 0.00 0.00 0.02 0.05 0.11 0.15 0.16 0.16 0.16 0.16
0.00 0.00 0.00 0.00 0.00 0.00 0.00 0.00 0.00 0.00 0.00 0.00 0.00 0.00 0.00 0.00 0.00 0.00 0.00 0.00 0.00 0.00 0.00 0.00 0.00 0.00 0.00 0.00 0.00 0.00 0.00 0.00 0.00 0.00 0.00 0.00 0.01 0.05 0.09 0.12 0.14 0.15 0.15
0.00 0.00 0.00 0.00 0.00 0.00 0.00 0.00 0.00 0.00 0.00 0.00 0.00 0.00 0.00 0.00 0.00 0.00 0.00 0.00 0.00 0.01 0.00 0.00 0.00 0.00 0.01 0.00 0.00 0.00 0.00 0.00 0.00 0.00 0.00 0.00 0.00 0.02 0.06 0.10 0.13 0.14 0.14
0.00 0.00 0.00 0.00 0.00 0.00 0.00 0.00 0.00 0.00 0.00 0.00 0.00 0.00 0.00 0.00 0.00 0.00 0.00 0.01 0.01 0.01 0.00 0.00 0.01 0.02 0.02 0.01 0.03 0.06 0.04 0.01 0.00 0.00 0.00 0.00 0.00 0.00 0.02 0.06 0.12 0.13 0.12
0.00 0.00 0.00 0.00 0.00 0.00 0.00 0.00 0.00 0.00 0.00 0.00 0.00 0.00 0.00 0.00 0.00 0.00 0.00 0.01 0.02 0.01 0.01 0.01 0.02 0.03 0.04 0.02 0.03 0.14 0.23 0.15 0.04 0.00 0.00 0.00 0.00 0.00 0.00 0.02 0.06 0.11 0.14
0.00 0.00 0.00 0.00 0.00 0.00 0.00 0.00 0.00 0.00 0.00 0.00 0.00 0.00 0.00 0.00 0.00 0.00 0.01 0.01 0.01 0.01 0.01 0.02 0.02 0.04 0.07 0.08 0.04 0.06 0.14 0.19 0.24 0.12 0.02 0.03 0.03 0.03 0.02 0.02 0.03 0.07 0.13
0.00 0.00 0.00 0.00 0.00 0.00 0.00 0.00 0.00 0.00 0.00 0.00 0.00 0.00 0.00 0.00 0.00 0.00 0.01 0.01 0.01 0.01 0.01 0.02 0.03 0.04 0.08 0.11 0.11 0.10 0.08 0.07 0.12 0.22 0.10 0.04 0.07 0.08 0.07 0.05 0.06 0.09 0.12
0.00 0.00 0.00 0.00 0.00 0.00 0.00 0.00 0.00 0.00 0.00 0.00 0.00 0.00 0.00 0.00 0.00 0.00 0.00 0.00 0.01 0.01 0.02 0.03 0.04 0.05 0.06 0.07 0.10 0.12 0.16 0.18 0.13 0.18 0.18 0.06 0.03 0.04 0.06 0.08 0.08 0.12 0.15

GEFSSE_prec_meanprecacc_090.txt.gz
Total_Precipitation_Accumulation
0.01 0.05 0.12 0.21 0.16 0.12 0.12 0.12 0.11 0.09 0.09 0.11 0.14 0.17 0.18 0.19 0.19 0.19 0.18 0.19 0.21 0.22 0.23 0.24 0.23 0.22 0.20 0.20 0.19 0.19 0.21 0.26 0.28 0.26 0.25 0.26 0.28 0.27 0.27 0.25 0.17 0.21 0.33
0.02 0.06 0.11 0.14 0.11 0.09 0.09 0.07 0.07 0.06 0.06 0.08 0.11 0.10 0.11 0.13 0.16 0.17 0.17 0.17 0.18 0.21 0.24 0.25 0.22 0.19 0.18 0.17 0.17 0.16 0.16 0.18 0.22 0.23 0.19 0.14 0.25 0.30 0.27 0.28 0.24 0.38 0.44
0.01 0.04 0.06 0.08 0.08 0.07 0.07 0.05 0.04 0.04 0.04 0.05 0.07 0.07 0.07 0.09 0.11 0.13 0.14 0.15 0.15 0.15 0.16 0.18 0.19 0.16 0.14 0.13 0.14 0.13 0.14 0.13 0.13 0.15 0.15 0.09 0.22 0.37 0.35 0.32 0.27 0.40 0.44
0.01 0.04 0.03 0.03 0.05 0.06 0.05 0.04 0.04 0.04 0.04 0.05 0.05 0.05 0.05 0.07 0.08 0.09 0.09 0.10 0.11 0.12 0.12 0.12 0.12 0.12 0.10 0.09 0.10 0.10 0.12 0.11 0.09 0.08 0.03 0.05 0.22 0.36 0.39 0.34 0.29 0.34 0.40
0.02 0.03 0.03 0.04 0.03 0.03 0.03 0.03 0.02 0.02 0.03 0.04 0.05 0.04 0.05 0.06 0.06 0.07 0.07 0.06 0.06 0.07 0.08 0.09 0.09 0.11 0.11 0.09 0.08 0.10 0.11 0.10 0.08 0.04 0.01 0.03 0.15 0.29 0.30 0.32 0.30 0.34 0.37
0.00 0.01 0.01 0.02 0.02 0.02 0.01 0.01 0.01 0.01 0.02 0.03 0.03 0.03 0.04 0.05 0.05 0.04 0.04 0.04 0.04 0.04 0.06 0.07 0.08 0.11 0.11 0.11 0.11 0.17 0.19 0.16 0.08 0.02 0.01 0.02 0.06 0.17 0.26 0.35 0.35 0.33 0.29
0.00 0.00 0.00 0.01 0.01 0.01 0.01 0.01 0.01 0.01 0.01 0.01 0.01 0.02 0.03 0.04 0.05 0.05 0.03 0.03 0.04 0.04 0.05 0.06 0.07 0.10 0.12 0.13 0.15 0.20 0.27 0.22 0.10 0.12 0.08 0.05 0.06 0.12 0.19 0.31 0.35 0.33 0.32
0.00 0.00 0.00 0.01 0.02 0.02 0.02 0.01 0.01 0.01 0.01 0.01 0.01 0.01 0.01 0.01 0.03 0.04 0.04 0.05 0.06 0.05 0.06 0.05 0.05 0.06 0.08 0.12 0.15 0.18 0.23 0.16 0.13 0.21 0.23 0.18 0.14 0.17 0.21 0.29 0.34 0.36 0.37
0.00 0.00 0.00 0.01 0.01 0.02 0.02 0.02 0.02 0.01 0.01 0.01 0.01 0.01 0.01 0.00 0.01 0.01 0.02 0.03 0.05 0.04 0.06 0.05 0.04 0.04 0.05 0.07 0.10 0.16 0.19 0.15 0.21 0.35 0.30 0.32 0.23 0.28 0.32 0.30 0.30 0.35 0.38
0.00 0.00 0.00 0.00 0.00 0.01 0.01 0.02 0.02 0.01 0.01 0.01 0.01 0.00 0.00 0.00 0.01 0.01 0.01 0.02 0.03 0.04 0.05 0.06 0.05 0.05 0.05 0.05 0.06 0.08 0.12 0.11 0.15 0.25 0.36 0.30 0.26 0.38 0.46 0.41 0.34 0.34 0.39
0.00 0.00 0.00 0.00 0.00 0.00 0.00 0.01 0.02 0.02 0.01 0.01 0.01 0.00 0.00 0.00 0.00 0.00 0.01 0.01 0.01 0.03 0.03 0.04 0.05 0.06 0.05 0.02 0.02 0.04 0.04 0.03 0.11 0.22 0.29 0.24 0.29 0.43 0.55 0.51 0.48 0.42 0.41
0.00 0.00 0.00 0.00 0.00 0.00 0.00 0.00 0.01 0.01 0.01 0.01 0.00 0.00 0.00 0.00 0.00 0.00 0.00 0.01 0.02 0.03 0.04 0.05 0.05 0.04 0.04 0.02 0.02 0.06 0.02 0.00 0.01 0.05 0.10 0.13 0.20 0.31 0.50 0.58 0.60 0.57 0.52
0.00 0.00 0.00 0.00 0.00 0.00 0.00 0.00 0.00 0.00 0.00 0.00 0.00 0.00 0.00 0.00 0.00 0.00 0.00 0.00 0.01 0.01 0.03 0.07 0.10 0.11 0.14 0.13 0.10 0.12 0.06 0.04 0.03 0.02 0.02 0.07 0.09 0.13 0.24 0.41 0.60 0.66 0.67
0.00 0.00 0.00 0.00 0.00 0.00 0.00 0.00 0.00 0.00 0.00 0.00 0.00 0.00 0.00 0.00 0.00 0.00 0.00 0.00 0.00 0.00 0.00 0.02 0.07 0.14 0.19 0.20 0.15 0.11 0.12 0.12 0.09 0.07 0.04 0.07 0.08 0.08 0.13 0.23 0.41 0.59 0.71
0.00 0.00 0.00 0.00 0.00 0.00 0.00 0.00 0.00 0.00 0.00 0.00 0.00 0.00 0.00 0.00 0.00 0.00 0.00 0.00 0.00 0.00 0.00 0.00 0.01 0.03 0.07 0.12 0.14 0.12 0.12 0.11 0.12 0.14 0.12 0.12 0.10 0.08 0.09 0.15 0.26 0.43 0.61
0.00 0.00 0.00 0.00 0.00 0.00 0.00 0.00 0.00 0.00 0.00 0.00 0.00 0.00 0.00 0.00 0.00 0.00 0.00 0.00 0.00 0.00 0.00 0.00 0.00 0.00 0.00 0.01 0.02 0.05 0.09 0.12 0.15 0.16 0.14 0.13 0.12 0.09 0.09 0.11 0.17 0.31 0.50
0.00 0.00 0.00 0.00 0.00 0.00 0.00 0.00 0.00 0.00 0.00 0.01 0.00 0.00 0.00 0.00 0.00 0.00 0.00 0.00 0.00 0.00 0.00 0.00 0.00 0.00 0.00 0.00 0.00 0.00 0.01 0.03 0.07 0.12 0.12 0.14 0.16 0.13 0.11 0.12 0.14 0.19 0.33
0.00 0.00 0.00 0.00 0.00 0.00 0.00 0.00 0.00 0.00 0.00 0.01 0.00 0.00 0.00 0.00 0.00 0.00 0.00 0.00 0.00 0.00 0.00 0.00 0.00 0.00 0.00 0.00 0.00 0.00 0.00 0.00 0.00 0.02 0.04 0.09 0.14 0.17 0.15 0.15 0.16 0.17 0.22
0.00 0.00 0.00 0.00 0.00 0.00 0.00 0.00 0.00 0.01 0.00 0.00 0.00 0.00 0.00 0.00 0.00 0.00 0.00 0.00 0.00 0.00 0.00 0.00 0.00 0.00 0.00 0.00 0.00 0.00 0.00 0.00 0.00 0.00 0.00 0.02 0.05 0.11 0.15 0.16 0.16 0.16 0.16
0.00 0.00 0.00 0.00 0.00 0.00 0.00 0.00 0.00 0.00 0.00 0.00 0.00 0.00 0.00 0.00 0.00 0.00 0.00 0.00 0.00 0.00 0.00 0.00 0.00 0.00 0.00 0.00 0.00 0.00 0.00 0.00 0.00 0.00 0.00 0.00 0.01 0.05 0.09 0.12 0.14 0.15 0.15
0.00 0.00 0.00 0.00 0.00 0.00 0.00 0.00 0.00 0.00 0.00 0.00 0.00 0.00 0.00 0.00 0.00 0.00 0.00 0.00 0.00 0.01 0.00 0.00 0.00 0.00 0.01 0.00 0.00 0.00 0.00 0.00 0.00 0.00 0.00 0.00 0.00 0.02 0.06 0.10 0.13 0.14 0.14
0.00 0.00 0.00 0.00 0.00 0.00 0.00 0.00 0.00 0.00 0.00 0.00 0.00 0.00 0.00 0.00 0.00 0.00 0.00 0.01 0.01 0.01 0.00 0.00 0.01 0.02 0.02 0.01 0.03 0.06 0.04 0.01 0.00 0.00 0.00 0.00 0.00 0.00 0.02 0.06 0.12 0.13 0.12
0.00 0.00 0.00 0.00 0.00 0.00 0.00 0.00 0.00 0.00 0.00 0.00 0.00 0.00 0.00 0.00 0.00 0.00 0.00 0.01 0.02 0.01 0.01 0.01 0.02 0.03 0.04 0.02 0.03 0.14 0.23 0.15 0.04 0.00 0.00 0.00 0.00 0.00 0.00 0.02 0.06 0.11 0.14
0.00 0.00 0.00 0.00 0.00 0.00 0.00 0.00 0.00 0.00 0.00 0.00 0.00 0.00 0.00 0.00 0.00 0.00 0.01 0.01 0.01 0.01 0.01 0.02 0.02 0.04 0.07 0.08 0.04 0.06 0.14 0.19 0.24 0.12 0.02 0.03 0.03 0.03 0.02 0.02 0.03 0.07 0.13
0.00 0.00 0.00 0.00 0.00 0.00 0.00 0.00 0.00 0.00 0.00 0.00 0.00 0.00 0.00 0.00 0.00 0.00 0.01 0.01 0.01 0.01 0.01 0.02 0.03 0.04 0.08 0.11 0.11 0.10 0.08 0.07 0.12 0.22 0.10 0.04 0.07 0.08 0.07 0.05 0.06 0.09 0.12
0.00 0.00 0.00 0.00 0.00 0.00 0.00 0.00 0.00 0.00 0.00 0.00 0.00 0.00 0.00 0.00 0.00 0.00 0.00 0.00 0.01 0.01 0.02 0.03 0.04 0.05 0.06 0.07 0.10 0.12 0.16 0.18 0.13 0.18 0.18 0.06 0.03 0.04 0.06 0.08 0.08 0.12 0.15

GEFSSE_prec_meanprecacc_096.txt.gz
Total_Precipitation_Accumulation
0.01 0.05 0.12 0.22 0.17 0.13 0.13 0.13 0.12 0.10 0.09 0.12 0.16 0.18 0.20 0.20 0.20 0.19 0.19 0.20 0.22 0.23 0.24 0.24 0.24 0.23 0.21 0.20 0.20 0.19 0.22 0.27 0.28 0.27 0.25 0.28 0.31 0.28 0.28 0.26 0.18 0.21 0.34
0.02 0.06 0.11 0.14 0.12 0.10 0.09 0.08 0.07 0.06 0.07 0.09 0.12 0.11 0.12 0.14 0.16 0.18 0.18 0.18 0.19 0.21 0.24 0.26 0.23 0.20 0.19 0.18 0.17 0.16 0.17 0.19 0.22 0.23 0.19 0.15 0.26 0.32 0.28 0.29 0.25 0.39 0.45
0.01 0.04 0.06 0.09 0.08 0.08 0.07 0.06 0.05 0.04 0.05 0.07 0.08 0.08 0.07 0.09 0.11 0.13 0.15 0.15 0.15 0.15 0.16 0.18 0.19 0.16 0.14 0.14 0.14 0.14 0.15 0.13 0.13 0.15 0.15 0.09 0.22 0.39 0.36 0.33 0.27 0.41 0.45
0.01 0.04 0.03 0.04 0.06 0.06 0.06 0.05 0.04 0.04 0.04 0.06 0.06 0.05 0.06 0.07 0.09 0.09 0.10 0.10 0.11 0.12 0.12 0.12 0.12 0.12 0.10 0.09 0.10 0.10 0.12 0.11 0.09 0.08 0.03 0.05 0.22 0.37 0.40 0.35 0.29 0.34 0.40
0.02 0.03 0.03 0.04 0.04 0.04 0.03 0.03 0.03 0.03 0.03 0.06 0.06 0.05 0.05 0.06 0.06 0.07 0.07 0.06 0.06 0.07 0.08 0.09 0.09 0.11 0.11 0.09 0.08 0.10 0.11 0.10 0.08 0.04 0.01 0.03 0.15 0.30 0.30 0.32 0.30 0.34 0.38
0.00 0.01 0.01 0.03 0.03 0.02 0.02 0.02 0.02 0.01 0.03 0.05 0.04 0.03 0.04 0.05 0.05 0.04 0.04 0.04 0.04 0.04 0.06 0.07 0.08 0.11 0.11 0.11 0.11 0.17 0.19 0.16 0.08 0.02 0.01 0.02 0.06 0.17 0.26 0.35 0.35 0.33 0.29
0.00 0.00 0.00 0.02 0.02 0.02 0.02 0.02 0.01 0.01 0.02 0.02 0.02 0.02 0.03 0.04 0.05 0.05 0.03 0.03 0.04 0.04 0.05 0.06 0.07 0.10 0.12 0.13 0.15 0.20 0.27 0.22 0.10 0.12 0.08 0.05 0.06 0.12 0.19 0.31 0.35 0.33 0.32
0.00 0.00 0.00 0.02 0.02 0.02 0.03 0.02 0.01 0.01 0.02 0.01 0.01 0.01 0.01 0.01 0.03 0.04 0.04 0.05 0.06 0.05 0.06 0.05 0.05 0.06 0.08 0.12 0.15 0.18 0.23 0.16 0.13 0.21 0.23 0.18 0.14 0.17 0.21 0.29 0.34 0.36 0.37
0.00 0.00 0.00 0.01 0.02 0.03 0.03 0.02 0.02 0.02 0.02 0.01 0.01 0.01 0.01 0.00 0.01 0.01 0.02 0.03 0.05 0.05 0.06 0.05 0.04 0.04 0.05 0.07 0.10 0.16 0.19 0.15 0.21 0.35 0.30 0.32 0.23 0.28 0.32 0.30 0.30 0.35 0.38
0.00 0.00 0.00 0.00 0.01 0.01 0.02 0.02 0.02 0.02 0.02 0.01 0.01 0.01 0.01 0.00 0.01 0.01 0.01 0.02 0.03 0.04 0.05 0.06 0.05 0.05 0.05 0.05 0.06 0.08 0.12 0.11 0.15 0.25 0.36 0.30 0.26 0.38 0.46 0.41 0.34 0.34 0.39
0.00 0.00 0.00 0.00 0.00 0.01 0.01 0.01 0.02 0.02 0.02 0.02 0.01 0.01 0.00 0.00 0.00 0.01 0.01 0.01 0.01 0.03 0.04 0.04 0.05 0.06 0.05 0.02 0.02 0.04 0.04 0.03 0.11 0.22 0.29 0.24 0.29 0.44 0.55 0.51 0.49 0.42 0.41
0.00 0.00 0.00 0.00 0.00 0.00 0.00 0.01 0.01 0.01 0.01 0.01 0.00 0.00 0.00 0.00 0.00 0.00 0.00 0.01 0.02 0.04 0.05 0.06 0.05 0.04 0.04 0.02 0.02 0.06 0.02 0.00 0.01 0.05 0.10 0.13 0.20 0.31 0.50 0.58 0.60 0.57 0.53
0.00 0.00 0.00 0.00 0.00 0.00 0.00 0.00 0.01 0.01 0.01 0.01 0.00 0.00 0.00 0.00 0.00 0.00 0.00 0.00 0.01 0.01 0.03 0.07 0.10 0.11 0.14 0.13 0.10 0.12 0.06 0.04 0.03 0.02 0.02 0.07 0.09 0.13 0.25 0.41 0.60 0.67 0.68
0.00 0.00 0.00 0.00 0.00 0.00 0.00 0.00 0.00 0.01 0.01 0.00 0.00 0.00 0.00 0.00 0.00 0.00 0.00 0.00 0.00 0.00 0.01 0.02 0.07 0.14 0.19 0.20 0.15 0.11 0.12 0.12 0.09 0.07 0.04 0.07 0.08 0.08 0.13 0.24 0.41 0.59 0.72
0.00 0.00 0.00 0.00 0.00 0.00 0.00 0.00 0.01 0.01 0.01 0.00 0.00 0.00 0.00 0.00 0.00 0.00 0.00 0.00 0.00 0.00 0.00 0.00 0.01 0.03 0.07 0.12 0.14 0.12 0.12 0.11 0.12 0.14 0.12 0.12 0.10 0.08 0.09 0.15 0.26 0.44 0.61
0.00 0.00 0.00 0.00 0.00 0.00 0.01 0.01 0.01 0.01 0.01 0.01 0.01 0.00 0.00 0.00 0.00 0.00 0.00 0.00 0.00 0.00 0.00 0.00 0.00 0.00 0.00 0.01 0.02 0.05 0.09 0.12 0.15 0.16 0.14 0.13 0.12 0.09 0.09 0.11 0.17 0.31 0.50
0.00 0.00 0.00 0.00 0.00 0.00 0.01 0.01 0.01 0.01 0.01 0.01 0.01 0.01 0.01 0.01 0.01 0.01 0.01 0.01 0.00 0.00 0.00 0.00 0.00 0.00 0.00 0.00 0.00 0.00 0.01 0.03 0.07 0.12 0.12 0.14 0.16 0.13 0.11 0.12 0.14 0.19 0.33
0.00 0.00 0.00 0.00 0.00 0.01 0.01 0.01 0.01 0.01 0.01 0.01 0.01 0.01 0.01 0.01 0.01 0.01 0.01 0.01 0.00 0.00 0.00 0.00 0.00 0.00 0.00 0.00 0.00 0.00 0.00 0.00 0.00 0.02 0.04 0.09 0.14 0.17 0.15 0.15 0.16 0.17 0.22
0.00 0.00 0.00 0.00 0.00 0.00 0.01 0.01 0.01 0.01 0.02 0.01 0.01 0.01 0.01 0.01 0.01 0.01 0.01 0.01 0.00 0.00 0.00 0.00 0.00 0.00 0.00 0.00 0.00 0.00 0.00 0.00 0.00 0.00 0.00 0.02 0.05 0.11 0.15 0.16 0.16 0.16 0.16
0.00 0.00 0.00 0.00 0.00 0.00 0.00 0.01 0.01 0.01 0.01 0.01 0.01 0.00 0.00 0.00 0.00 0.00 0.00 0.00 0.00 0.01 0.00 0.00 0.00 0.00 0.00 0.00 0.00 0.00 0.00 0.00 0.00 0.00 0.00 0.00 0.01 0.05 0.09 0.12 0.14 0.15 0.15
0.00 0.00 0.00 0.00 0.00 0.00 0.00 0.01 0.01 0.01 0.00 0.00 0.00 0.00 0.00 0.00 0.00 0.00 0.00 0.00 0.01 0.01 0.01 0.00 0.00 0.00 0.01 0.00 0.00 0.00 0.00 0.00 0.00 0.00 0.00 0.00 0.00 0.02 0.06 0.10 0.13 0.14 0.14
0.00 0.00 0.00 0.00 0.00 0.00 0.00 0.00 0.00 0.00 0.00 0.00 0.00 0.00 0.00 0.00 0.00 0.00 0.00 0.01 0.01 0.01 0.00 0.00 0.01 0.02 0.02 0.01 0.03 0.06 0.04 0.01 0.00 0.00 0.00 0.00 0.00 0.00 0.02 0.06 0.12 0.13 0.12
0.00 0.00 0.00 0.00 0.00 0.00 0.00 0.00 0.00 0.00 0.00 0.00 0.00 0.00 0.00 0.00 0.00 0.00 0.00 0.01 0.02 0.01 0.01 0.01 0.02 0.03 0.04 0.02 0.03 0.14 0.23 0.15 0.04 0.00 0.00 0.00 0.00 0.00 0.00 0.02 0.06 0.11 0.14
0.00 0.00 0.00 0.00 0.00 0.00 0.00 0.00 0.00 0.00 0.00 0.00 0.00 0.00 0.00 0.00 0.00 0.00 0.01 0.01 0.01 0.01 0.01 0.02 0.02 0.04 0.07 0.08 0.04 0.06 0.14 0.19 0.24 0.12 0.02 0.03 0.03 0.03 0.02 0.02 0.03 0.07 0.13
0.00 0.00 0.00 0.00 0.00 0.00 0.00 0.00 0.00 0.00 0.00 0.00 0.00 0.00 0.00 0.00 0.00 0.00 0.01 0.01 0.01 0.01 0.01 0.02 0.03 0.04 0.08 0.11 0.11 0.10 0.08 0.07 0.12 0.22 0.10 0.04 0.07 0.08 0.07 0.05 0.06 0.09 0.12
0.00 0.00 0.00 0.00 0.00 0.00 0.00 0.00 0.00 0.00 0.00 0.00 0.00 0.00 0.00 0.00 0.00 0.00 0.00 0.00 0.01 0.01 0.02 0.03 0.04 0.05 0.06 0.07 0.10 0.12 0.16 0.18 0.13 0.18 0.18 0.06 0.03 0.04 0.06 0.08 0.08 0.12 0.15

GEFSSE_prec_meanprecacc_102.txt.gz
Total_Precipitation_Accumulation
0.01 0.05 0.12 0.22 0.18 0.15 0.15 0.15 0.14 0.11 0.10 0.14 0.18 0.20 0.20 0.20 0.20 0.20 0.19 0.20 0.22 0.24 0.25 0.25 0.24 0.23 0.22 0.21 0.21 0.20 0.22 0.27 0.29 0.27 0.26 0.29 0.32 0.30 0.29 0.27 0.18 0.21 0.34
0.02 0.06 0.11 0.15 0.12 0.11 0.11 0.09 0.08 0.07 0.07 0.10 0.13 0.12 0.12 0.14 0.17 0.18 0.18 0.18 0.19 0.22 0.25 0.26 0.23 0.20 0.20 0.19 0.18 0.17 0.17 0.19 0.22 0.23 0.19 0.15 0.27 0.33 0.29 0.30 0.26 0.40 0.46
0.01 0.04 0.06 0.09 0.09 0.08 0.09 0.07 0.05 0.05 0.05 0.08 0.08 0.08 0.07 0.09 0.11 0.13 0.15 0.16 0.15 0.15 0.16 0.18 0.19 0.16 0.14 0.14 0.14 0.14 0.15 0.13 0.13 0.15 0.15 0.10 0.23 0.39 0.36 0.34 0.28 0.42 0.45
0.01 0.04 0.03 0.04 0.06 0.07 0.07 0.06 0.05 0.05 0.05 0.07 0.07 0.05 0.06 0.08 0.09 0.09 0.10 0.10 0.11 0.12 0.12 0.12 0.12 0.12 0.10 0.09 0.10 0.11 0.12 0.11 0.09 0.08 0.03 0.05 0.22 0.38 0.40 0.35 0.30 0.35 0.41
0.02 0.03 0.03 0.05 0.05 0.04 0.04 0.04 0.03 0.03 0.04 0.07 0.06 0.05 0.05 0.06 0.07 0.07 0.07 0.06 0.06 0.07 0.08 0.09 0.09 0.11 0.11 0.09 0.08 0.10 0.11 0.10 0.08 0.04 0.01 0.03 0.15 0.30 0.30 0.32 0.30 0.34 0.38
0.00 0.01 0.01 0.03 0.03 0.03 0.02 0.02 0.02 0.02 0.04 0.06 0.04 0.04 0.04 0.05 0.05 0.04 0.04 0.04 0.04 0.04 0.06 0.07 0.08 0.11 0.11 0.11 0.11 0.17 0.19 0.16 0.08 0.02 0.01 0.02 0.06 0.17 0.26 0.35 0.35 0.33 0.29
0.00 0.00 0.00 0.02 0.03 0.02 0.02 0.02 0.01 0.01 0.03 0.03 0.02 0.02 0.03 0.04 0.05 0.05 0.03 0.03 0.04 0.04 0.05 0.06 0.07 0.10 0.12 0.13 0.15 0.20 0.27 0.22 0.10 0.12 0.08 0.05 0.06 0.12 0.19 0.32 0.35 0.33 0.32
0.00 0.00 0.00 0.02 0.03 0.03 0.03 0.02 0.02 0.02 0.02 0.02 0.01 0.01 0.01 0.01 0.03 0.04 0.04 0.05 0.06 0.05 0.06 0.05 0.05 0.06 0.08 0.12 0.15 0.18 0.23 0.16 0.13 0.21 0.23 0.18 0.14 0.17 0.21 0.29 0.34 0.36 0.38
0.00 0.00 0.00 0.01 0.02 0.03 0.04 0.03 0.02 0.02 0.02 0.02 0.01 0.01 0.01 0.00 0.01 0.01 0.02 0.03 0.05 0.05 0.06 0.05 0.04 0.04 0.05 0.07 0.10 0.16 0.19 0.15 0.21 0.35 0.30 0.32 0.23 0.28 0.32 0.30 0.30 0.35 0.38
0.00 0.00 0.00 0.01 0.01 0.02 0.02 0.03 0.02 0.02 0.02 0.02 0.01 0.01 0.01 0.00 0.01 0.01 0.01 0.02 0.03 0.04 0.06 0.06 0.06 0.05 0.05 0.05 0.06 0.08 0.12 0.11 0.15 0.25 0.36 0.30 0.26 0.38 0.46 0.41 0.34 0.34 0.40
0.00 0.00 0.00 0.00 0.00 0.01 0.01 0.02 0.02 0.02 0.02 0.02 0.01 0.01 0.00 0.00 0.00 0.01 0.01 0.01 0.02 0.03 0.04 0.05 0.06 0.06 0.05 0.02 0.02 0.04 0.04 0.03 0.11 0.22 0.29 0.24 0.29 0.44 0.55 0.52 0.49 0.42 0.41
0.00 0.00 0.00 0.00 0.00 0.01 0.01 0.01 0.01 0.01 0.01 0.01 0.01 0.00 0.00 0.00 0.00 0.00 0.01 0.01 0.02 0.04 0.05 0.06 0.05 0.04 0.04 0.02 0.02 0.07 0.02 0.00 0.01 0.05 0.10 0.13 0.20 0.31 0.50 0.58 0.61 0.58 0.53
0.00 0.00 0.00 0.00 0.00 0.00 0.01 0.01 0.01 0.01 0.01 0.01 0.00 0.00 0.00 0.00 0.00 0.00 0.00 0.00 0.01 0.01 0.03 0.07 0.10 0.12 0.14 0.13 0.10 0.12 0.06 0.04 0.03 0.02 0.02 0.07 0.09 0.13 0.25 0.42 0.61 0.67 0.68
0.00 0.00 0.00 0.00 0.00 0.01 0.01 0.00 0.01 0.01 0.01 0.01 0.00 0.00 0.00 0.00 0.00 0.00 0.00 0.00 0.00 0.00 0.01 0.02 0.07 0.14 0.19 0.20 0.15 0.11 0.12 0.12 0.09 0.07 0.04 0.07 0.08 0.08 0.13 0.24 0.41 0.59 0.72
0.00 0.00 0.00 0.00 0.00 0.00 0.01 0.01 0.01 0.01 0.01 0.01 0.01 0.00 0.00 0.00 0.00 0.00 0.00 0.00 0.00 0.00 0.00 0.00 0.01 0.03 0.07 0.12 0.14 0.12 0.12 0.11 0.12 0.14 0.12 0.12 0.10 0.08 0.09 0.15 0.26 0.44 0.62
0.00 0.00 0.00 0.00 0.00 0.01 0.01 0.01 0.01 0.01 0.01 0.01 0.01 0.01 0.00 0.01 0.01 0.01 0.01 0.01 0.01 0.00 0.00 0.00 0.00 0.00 0.00 0.01 0.02 0.05 0.10 0.12 0.15 0.16 0.14 0.13 0.12 0.09 0.09 0.11 0.17 0.31 0.50
0.00 0.00 0.00 0.00 0.00 0.01 0.01 0.01 0.01 0.01 0.01 0.01 0.01 0.01 0.01 0.01 0.01 0.01 0.01 0.01 0.01 0.00 0.00 0.00 0.00 0.00 0.00 0.00 0.00 0.00 0.01 0.03 0.07 0.12 0.12 0.14 0.16 0.13 0.11 0.12 0.14 0.19 0.33
0.00 0.00 0.00 0.00 0.00 0.01 0.01 0.02 0.02 0.02 0.02 0.02 0.02 0.01 0.01 0.01 0.01 0.01 0.01 0.01 0.01 0.00 0.00 0.01 0.00 0.00 0.00 0.00 0.00 0.00 0.00 0.00 0.00 0.02 0.04 0.09 0.14 0.17 0.15 0.15 0.16 0.17 0.22
0.00 0.00 0.00 0.00 0.00 0.01 0.01 0.02 0.02 0.02 0.03 0.02 0.01 0.01 0.01 0.01 0.01 0.01 0.01 0.01 0.01 0.01 0.01 0.01 0.00 0.00 0.00 0.00 0.00 0.00 0.00 0.00 0.00 0.00 0.00 0.02 0.05 0.11 0.15 0.16 0.16 0.16 0.16
0.00 0.00 0.00 0.00 0.00 0.00 0.01 0.01 0.02 0.02 0.02 0.01 0.01 0.01 0.01 0.01 0.01 0.01 0.01 0.01 0.01 0.01 0.01 0.00 0.00 0.00 0.00 0.00 0.00 0.00 0.00 0.00 0.00 0.00 0.00 0.00 0.01 0.05 0.09 0.12 0.14 0.15 0.15
0.00 0.00 0.00 0.00 0.00 0.00 0.01 0.01 0.01 0.01 0.01 0.01 0.01 0.00 0.00 0.00 0.00 0.00 0.00 0.01 0.01 0.01 0.01 0.00 0.00 0.00 0.01 0.00 0.00 0.00 0.00 0.00 0.00 0.00 0.00 0.00 0.00 0.02 0.06 0.10 0.13 0.14 0.14
0.00 0.00 0.00 0.00 0.00 0.00 0.00 0.00 0.01 0.01 0.01 0.00 0.00 0.00 0.00 0.00 0.00 0.00 0.00 0.01 0.01 0.01 0.00 0.00 0.01 0.02 0.02 0.01 0.03 0.06 0.04 0.01 0.00 0.00 0.00 0.00 0.00 0.00 0.02 0.06 0.12 0.13 0.12
0.00 0.00 0.00 0.00 0.00 0.00 0.00 0.00 0.00 0.00 0.00 0.00 0.00 0.00 0.00 0.00 0.00 0.00 0.01 0.01 0.02 0.01 0.01 0.01 0.02 0.03 0.04 0.02 0.03 0.14 0.23 0.15 0.04 0.00 0.00 0.00 0.00 0.00 0.00 0.02 0.06 0.11 0.14
0.00 0.00 0.00 0.00 0.00 0.00 0.00 0.00 0.00 0.00 0.00 0.00 0.00 0.00 0.00 0.00 0.00 0.00 0.01 0.01 0.01 0.01 0.01 0.02 0.02 0.04 0.07 0.08 0.04 0.06 0.14 0.19 0.24 0.12 0.02 0.03 0.03 0.03 0.02 0.02 0.03 0.07 0.13
0.00 0.00 0.00 0.00 0.00 0.00 0.00 0.00 0.00 0.00 0.00 0.00 0.00 0.00 0.00 0.00 0.00 0.00 0.01 0.01 0.01 0.01 0.01 0.02 0.03 0.04 0.08 0.11 0.11 0.10 0.08 0.07 0.12 0.22 0.10 0.04 0.07 0.08 0.07 0.05 0.06 0.09 0.12
0.00 0.00 0.00 0.00 0.00 0.00 0.00 0.00 0.00 0.00 0.00 0.00 0.00 0.00 0.00 0.00 0.00 0.00 0.00 0.00 0.01 0.01 0.02 0.03 0.04 0.05 0.06 0.07 0.10 0.12 0.16 0.18 0.13 0.18 0.18 0.06 0.03 0.04 0.06 0.08 0.08 0.12 0.15

GEFSSE_prec_meanprecacc_108.txt.gz
Total_Precipitation_Accumulation
0.01 0.05 0.13 0.23 0.19 0.16 0.16 0.16 0.15 0.11 0.11 0.14 0.18 0.20 0.21 0.21 0.21 0.20 0.20 0.21 0.23 0.24 0.26 0.26 0.25 0.24 0.23 0.22 0.22 0.20 0.22 0.27 0.29 0.27 0.27 0.30 0.34 0.31 0.30 0.27 0.18 0.22 0.35
0.02 0.06 0.12 0.16 0.14 0.12 0.12 0.11 0.09 0.07 0.08 0.11 0.13 0.12 0.12 0.15 0.18 0.19 0.18 0.19 0.20 0.22 0.25 0.27 0.24 0.21 0.20 0.19 0.18 0.17 0.17 0.19 0.22 0.23 0.19 0.15 0.28 0.34 0.29 0.31 0.26 0.41 0.47
0.01 0.04 0.07 0.10 0.10 0.09 0.09 0.08 0.06 0.05 0.06 0.08 0.09 0.08 0.08 0.10 0.12 0.14 0.15 0.16 0.16 0.16 0.17 0.19 0.20 0.17 0.14 0.14 0.15 0.14 0.15 0.13 0.13 0.15 0.15 0.10 0.23 0.40 0.37 0.34 0.28 0.42 0.46
0.01 0.04 0.03 0.05 0.07 0.08 0.07 0.06 0.05 0.05 0.05 0.07 0.07 0.06 0.06 0.08 0.09 0.10 0.10 0.10 0.11 0.12 0.12 0.13 0.12 0.12 0.11 0.09 0.10 0.11 0.12 0.11 0.09 0.08 0.03 0.05 0.22 0.38 0.40 0.35 0.30 0.35 0.41
0.02 0.03 0.03 0.05 0.05 0.05 0.05 0.04 0.04 0.03 0.04 0.07 0.06 0.05 0.06 0.06 0.07 0.07 0.07 0.07 0.06 0.07 0.08 0.09 0.09 0.11 0.11 0.09 0.08 0.10 0.11 0.10 0.08 0.04 0.01 0.03 0.15 0.30 0.30 0.32 0.30 0.34 0.38
0.00 0.01 0.02 0.04 0.04 0.03 0.03 0.03 0.02 0.02 0.04 0.06 0.04 0.04 0.04 0.05 0.05 0.04 0.04 0.04 0.04 0.05 0.06 0.07 0.08 0.11 0.11 0.11 0.12 0.17 0.19 0.16 0.08 0.02 0.01 0.02 0.06 0.17 0.27 0.35 0.35 0.33 0.29
0.00 0.00 0.01 0.02 0.03 0.03 0.03 0.02 0.02 0.02 0.03 0.03 0.02 0.03 0.03 0.04 0.05 0.05 0.03 0.03 0.04 0.04 0.05 0.06 0.07 0.10 0.12 0.13 0.15 0.20 0.27 0.22 0.10 0.12 0.08 0.05 0.06 0.12 0.20 0.32 0.35 0.33 0.33
0.00 0.00 0.01 0.02 0.03 0.03 0.03 0.02 0.02 0.02 0.03 0.02 0.01 0.01 0.01 0.01 0.03 0.04 0.04 0.05 0.06 0.05 0.06 0.05 0.05 0.06 0.08 0.12 0.15 0.18 0.23 0.16 0.13 0.21 0.23 0.18 0.14 0.17 0.21 0.29 0.34 0.36 0.38
0.00 0.00 0.00 0.01 0.02 0.03 0.04 0.03 0.02 0.02 0.02 0.02 0.01 0.01 0.01 0.00 0.01 0.01 0.02 0.03 0.05 0.05 0.06 0.05 0.05 0.04 0.05 0.07 0.11 0.16 0.19 0.15 0.21 0.35 0.30 0.32 0.23 0.28 0.32 0.31 0.31 0.36 0.39
0.00 0.00 0.00 0.01 0.01 0.02 0.03 0.03 0.03 0.02 0.02 0.02 0.01 0.01 0.01 0.00 0.01 0.01 0.01 0.02 0.03 0.04 0.06 0.06 0.06 0.05 0.05 0.05 0.06 0.08 0.12 0.11 0.15 0.25 0.36 0.30 0.26 0.38 0.46 0.41 0.35 0.35 0.40
0.00 0.00 0.00 0.00 0.01 0.01 0.01 0.02 0.02 0.02 0.02 0.02 0.01 0.01 0.00 0.00 0.00 0.01 0.01 0.01 0.02 0.03 0.04 0.05 0.06 0.06 0.05 0.02 0.02 0.04 0.04 0.03 0.11 0.22 0.29 0.24 0.29 0.44 0.55 0.52 0.49 0.43 0.42
0.00 0.00 0.00 0.00 0.00 0.01 0.01 0.01 0.01 0.01 0.01 0.01 0.01 0.00 0.00 0.00 0.00 0.00 0.01 0.01 0.02 0.04 0.05 0.06 0.05 0.04 0.04 0.02 0.02 0.07 0.02 0.00 0.01 0.05 0.10 0.13 0.20 0.31 0.50 0.59 0.61 0.58 0.54
0.00 0.00 0.00 0.00 0.00 0.00 0.01 0.01 0.01 0.01 0.01 0.01 0.00 0.00 0.00 0.00 0.00 0.00 0.00 0.00 0.01 0.01 0.03 0.07 0.11 0.12 0.14 0.13 0.10 0.12 0.06 0.04 0.03 0.02 0.02 0.07 0.09 0.13 0.25 0.42 0.61 0.68 0.69
0.00 0.00 0.00 0.00 0.00 0.01 0.01 0.00 0.01 0.01 0.01 0.01 0.00 0.00 0.00 0.00 0.00 0.00 0.00 0.00 0.00 0.00 0.01 0.02 0.07 0.14 0.19 0.20 0.15 0.11 0.12 0.12 0.09 0.07 0.04 0.07 0.08 0.08 0.13 0.24 0.41 0.60 0.72
0.00 0.00 0.00 0.00 0.00 0.01 0.01 0.01 0.01 0.01 0.01 0.01 0.01 0.00 0.00 0.00 0.00 0.00 0.00 0.00 0.00 0.00 0.00 0.00 0.01 0.03 0.07 0.12 0.14 0.12 0.12 0.11 0.12 0.14 0.12 0.12 0.10 0.08 0.09 0.15 0.26 0.44 0.62
0.00 0.00 0.00 0.00 0.00 0.01 0.01 0.01 0.01 0.01 0.01 0.01 0.01 0.01 0.00 0.01 0.01 0.01 0.01 0.01 0.01 0.00 0.00 0.00 0.00 0.00 0.00 0.01 0.02 0.05 0.10 0.12 0.15 0.16 0.14 0.13 0.12 0.09 0.09 0.11 0.17 0.31 0.50
0.00 0.00 0.00 0.00 0.00 0.01 0.01 0.01 0.01 0.01 0.01 0.01 0.01 0.01 0.01 0.01 0.01 0.01 0.01 0.01 0.01 0.00 0.00 0.00 0.00 0.00 0.00 0.00 0.00 0.00 0.01 0.03 0.07 0.12 0.12 0.14 0.16 0.13 0.11 0.12 0.14 0.19 0.33
0.00 0.00 0.00 0.00 0.00 0.01 0.01 0.02 0.02 0.02 0.02 0.02 0.02 0.01 0.01 0.01 0.01 0.01 0.01 0.01 0.01 0.00 0.00 0.01 0.00 0.00 0.00 0.00 0.00 0.00 0.00 0.00 0.00 0.02 0.04 0.09 0.14 0.17 0.15 0.15 0.16 0.17 0.22
0.00 0.00 0.00 0.00 0.00 0.01 0.01 0.02 0.02 0.02 0.03 0.02 0.02 0.01 0.01 0.01 0.01 0.01 0.01 0.01 0.01 0.01 0.01 0.01 0.00 0.00 0.00 0.00 0.00 0.00 0.00 0.00 0.00 0.00 0.00 0.02 0.05 0.11 0.15 0.16 0.16 0.16 0.16
0.00 0.00 0.00 0.00 0.00 0.00 0.01 0.02 0.02 0.02 0.02 0.02 0.01 0.01 0.01 0.01 0.01 0.01 0.01 0.01 0.01 0.01 0.01 0.00 0.00 0.00 0.00 0.00 0.00 0.00 0.00 0.00 0.00 0.00 0.00 0.00 0.01 0.05 0.09 0.12 0.14 0.15 0.15
0.00 0.00 0.00 0.00 0.00 0.00 0.01 0.01 0.02 0.02 0.01 0.01 0.01 0.00 0.00 0.00 0.00 0.00 0.00 0.01 0.01 0.01 0.01 0.00 0.00 0.00 0.01 0.00 0.00 0.00 0.00 0.00 0.00 0.00 0.00 0.00 0.00 0.02 0.06 0.10 0.13 0.14 0.14
0.00 0.00 0.00 0.00 0.00 0.00 0.00 0.01 0.01 0.01 0.01 0.01 0.00 0.00 0.00 0.00 0.00 0.00 0.00 0.01 0.01 0.01 0.00 0.00 0.01 0.02 0.02 0.01 0.03 0.06 0.04 0.01 0.00 0.00 0.00 0.00 0.00 0.00 0.02 0.06 0.12 0.13 0.12
0.00 0.00 0.00 0.00 0.00 0.00 0.00 0.00 0.01 0.01 0.01 0.01 0.00 0.00 0.00 0.00 0.00 0.00 0.01 0.01 0.02 0.01 0.01 0.01 0.02 0.03 0.04 0.02 0.03 0.14 0.23 0.15 0.04 0.00 0.00 0.00 0.00 0.00 0.00 0.02 0.06 0.11 0.14
0.00 0.00 0.00 0.00 0.00 0.00 0.00 0.00 0.00 0.00 0.00 0.00 0.00 0.00 0.00 0.00 0.00 0.00 0.01 0.01 0.01 0.01 0.01 0.02 0.02 0.04 0.07 0.08 0.04 0.06 0.14 0.19 0.24 0.12 0.02 0.03 0.03 0.03 0.02 0.02 0.03 0.07 0.13
0.00 0.00 0.00 0.00 0.00 0.00 0.00 0.00 0.00 0.00 0.00 0.00 0.00 0.00 0.00 0.00 0.00 0.00 0.01 0.01 0.01 0.01 0.01 0.02 0.03 0.04 0.08 0.11 0.11 0.10 0.08 0.07 0.12 0.22 0.10 0.04 0.07 0.08 0.07 0.05 0.06 0.09 0.12
0.00 0.00 0.00 0.00 0.00 0.00 0.00 0.00 0.00 0.00 0.00 0.00 0.00 0.00 0.00 0.00 0.00 0.00 0.01 0.01 0.01 0.01 0.02 0.03 0.04 0.05 0.06 0.07 0.10 0.12 0.16 0.18 0.13 0.18 0.18 0.06 0.03 0.04 0.06 0.08 0.08 0.12 0.15

GEFSSE_prec_meanprecacc_114.txt.gz
Total_Precipitation_Accumulation
0.01 0.06 0.15 0.24 0.21 0.18 0.17 0.17 0.16 0.12 0.12 0.15 0.19 0.21 0.22 0.22 0.22 0.21 0.21 0.22 0.24 0.25 0.26 0.26 0.26 0.25 0.24 0.23 0.22 0.21 0.23 0.27 0.29 0.28 0.28 0.32 0.35 0.32 0.31 0.28 0.19 0.22 0.35
0.02 0.07 0.14 0.17 0.15 0.15 0.13 0.12 0.10 0.08 0.08 0.11 0.14 0.13 0.13 0.16 0.18 0.19 0.19 0.19 0.20 0.22 0.26 0.27 0.24 0.21 0.21 0.19 0.19 0.18 0.18 0.19 0.22 0.23 0.19 0.16 0.28 0.34 0.30 0.31 0.26 0.41 0.47
0.01 0.05 0.08 0.11 0.12 0.11 0.11 0.09 0.07 0.06 0.06 0.08 0.09 0.09 0.09 0.11 0.12 0.14 0.16 0.16 0.16 0.16 0.17 0.19 0.20 0.17 0.15 0.15 0.15 0.14 0.15 0.14 0.13 0.15 0.15 0.10 0.23 0.40 0.37 0.34 0.28 0.43 0.46
0.01 0.04 0.04 0.06 0.08 0.09 0.09 0.07 0.06 0.05 0.05 0.07 0.07 0.06 0.07 0.09 0.10 0.10 0.10 0.11 0.12 0.12 0.13 0.13 0.12 0.12 0.11 0.09 0.10 0.11 0.12 0.11 0.09 0.08 0.03 0.05 0.22 0.38 0.41 0.35 0.30 0.35 0.41
0.02 0.03 0.04 0.06 0.07 0.06 0.06 0.05 0.04 0.04 0.05 0.07 0.06 0.05 0.06 0.07 0.07 0.07 0.07 0.07 0.06 0.07 0.08 0.09 0.10 0.11 0.11 0.09 0.08 0.10 0.11 0.10 0.08 0.04 0.01 0.03 0.15 0.30 0.30 0.33 0.31 0.35 0.38
0.00 0.01 0.02 0.05 0.05 0.04 0.04 0.03 0.03 0.02 0.04 0.06 0.04 0.04 0.04 0.05 0.05 0.05 0.04 0.04 0.04 0.05 0.06 0.07 0.08 0.11 0.12 0.11 0.12 0.17 0.19 0.16 0.08 0.02 0.01 0.02 0.06 0.18 0.27 0.35 0.35 0.33 0.30
0.00 0.00 0.01 0.03 0.04 0.04 0.04 0.03 0.02 0.02 0.03 0.03 0.02 0.03 0.03 0.05 0.06 0.05 0.03 0.04 0.04 0.04 0.05 0.06 0.07 0.10 0.12 0.13 0.15 0.20 0.27 0.22 0.10 0.12 0.08 0.05 0.06 0.12 0.20 0.32 0.36 0.34 0.33
0.00 0.00 0.01 0.04 0.04 0.04 0.04 0.03 0.02 0.02 0.03 0.02 0.01 0.01 0.01 0.02 0.03 0.04 0.04 0.05 0.06 0.06 0.06 0.05 0.05 0.06 0.09 0.12 0.15 0.18 0.23 0.16 0.13 0.21 0.23 0.18 0.14 0.17 0.22 0.30 0.35 0.37 0.39
0.00 0.00 0.01 0.02 0.03 0.04 0.05 0.03 0.03 0.02 0.03 0.02 0.01 0.01 0.01 0.01 0.01 0.01 0.02 0.04 0.05 0.05 0.06 0.05 0.05 0.05 0.05 0.07 0.11 0.16 0.19 0.15 0.21 0.35 0.30 0.32 0.23 0.28 0.32 0.31 0.31 0.37 0.40
0.00 0.00 0.00 0.01 0.01 0.02 0.03 0.03 0.03 0.03 0.02 0.02 0.01 0.01 0.01 0.01 0.01 0.01 0.01 0.02 0.03 0.04 0.06 0.06 0.06 0.06 0.05 0.05 0.06 0.08 0.12 0.11 0.15 0.25 0.36 0.30 0.26 0.38 0.47 0.42 0.35 0.36 0.42
0.00 0.00 0.00 0.00 0.01 0.01 0.01 0.02 0.03 0.03 0.02 0.02 0.01 0.01 0.00 0.00 0.00 0.01 0.01 0.01 0.02 0.03 0.04 0.05 0.06 0.06 0.05 0.02 0.02 0.04 0.04 0.03 0.11 0.22 0.29 0.24 0.29 0.44 0.56 0.52 0.50 0.44 0.44
0.00 0.00 0.00 0.00 0.00 0.01 0.01 0.01 0.02 0.01 0.01 0.01 0.01 0.00 0.00 0.00 0.00 0.00 0.01 0.01 0.02 0.04 0.05 0.06 0.05 0.04 0.04 0.02 0.02 0.07 0.02 0.00 0.01 0.05 0.10 0.13 0.20 0.32 0.51 0.59 0.61 0.59 0.55
0.00 0.00 0.00 0.00 0.00 0.00 0.01 0.01 0.01 0.01 0.01 0.01 0.00 0.00 0.00 0.00 0.00 0.00 0.00 0.00 0.01 0.01 0.03 0.07 0.11 0.12 0.14 0.13 0.10 0.12 0.06 0.04 0.03 0.02 0.02 0.07 0.09 0.14 0.25 0.42 0.61 0.68 0.69
0.00 0.00 0.00 0.00 0.00 0.01 0.01 0.01 0.01 0.01 0.01 0.01 0.00 0.00 0.00 0.00 0.00 0.00 0.00 0.00 0.00 0.00 0.01 0.02 0.07 0.14 0.19 0.20 0.15 0.11 0.12 0.12 0.09 0.07 0.04 0.07 0.08 0.08 0.13 0.24 0.42 0.60 0.72
0.00 0.00 0.00 0.00 0.00 0.01 0.01 0.01 0.01 0.01 0.01 0.01 0.01 0.00 0.00 0.00 0.00 0.00 0.00 0.00 0.00 0.00 0.00 0.00 0.01 0.03 0.07 0.12 0.14 0.12 0.12 0.11 0.12 0.14 0.12 0.12 0.10 0.08 0.09 0.15 0.26 0.44 0.62
0.00 0.00 0.00 0.00 0.00 0.01 0.01 0.01 0.01 0.01 0.01 0.01 0.01 0.01 0.00 0.01 0.01 0.01 0.01 0.01 0.01 0.00 0.00 0.00 0.00 0.00 0.00 0.01 0.02 0.05 0.10 0.12 0.15 0.16 0.14 0.13 0.12 0.09 0.09 0.11 0.17 0.31 0.51
0.00 0.00 0.00 0.00 0.00 0.01 0.01 0.01 0.01 0.01 0.01 0.01 0.01 0.01 0.01 0.01 0.01 0.01 0.01 0.01 0.01 0.00 0.00 0.00 0.00 0.00 0.00 0.00 0.00 0.00 0.01 0.03 0.07 0.12 0.12 0.14 0.16 0.13 0.11 0.12 0.14 0.19 0.33
0.00 0.00 0.00 0.00 0.00 0.01 0.01 0.02 0.02 0.02 0.02 0.02 0.02 0.01 0.01 0.01 0.01 0.01 0.01 0.01 0.01 0.00 0.00 0.01 0.00 0.00 0.00 0.00 0.00 0.00 0.00 0.00 0.00 0.02 0.04 0.09 0.14 0.17 0.15 0.15 0.16 0.17 0.22
0.00 0.00 0.00 0.00 0.00 0.01 0.01 0.02 0.02 0.02 0.03 0.02 0.02 0.01 0.01 0.01 0.01 0.01 0.01 0.01 0.01 0.01 0.01 0.01 0.00 0.00 0.00 0.00 0.00 0.00 0.00 0.00 0.00 0.00 0.00 0.02 0.05 0.11 0.15 0.16 0.16 0.16 0.16
0.00 0.00 0.00 0.00 0.00 0.00 0.01 0.02 0.02 0.02 0.02 0.02 0.01 0.01 0.01 0.01 0.01 0.01 0.01 0.01 0.01 0.01 0.01 0.00 0.00 0.00 0.00 0.00 0.00 0.00 0.00 0.00 0.00 0.00 0.00 0.00 0.01 0.05 0.09 0.12 0.14 0.15 0.15
0.00 0.00 0.00 0.00 0.00 0.00 0.01 0.01 0.02 0.02 0.01 0.01 0.01 0.01 0.01 0.00 0.00 0.00 0.00 0.01 0.01 0.01 0.01 0.00 0.00 0.00 0.01 0.00 0.00 0.00 0.00 0.00 0.00 0.00 0.00 0.00 0.00 0.02 0.06 0.10 0.13 0.14 0.14
0.00 0.00 0.00 0.00 0.00 0.00 0.00 0.01 0.01 0.01 0.01 0.01 0.00 0.00 0.00 0.00 0.00 0.00 0.01 0.01 0.01 0.01 0.00 0.00 0.01 0.02 0.02 0.01 0.03 0.06 0.04 0.01 0.00 0.00 0.00 0.00 0.00 0.00 0.02 0.06 0.12 0.13 0.12
0.00 0.00 0.00 0.00 0.00 0.00 0.00 0.00 0.01 0.01 0.01 0.01 0.01 0.00 0.00 0.00 0.00 0.00 0.01 0.01 0.02 0.01 0.01 0.01 0.02 0.04 0.04 0.02 0.03 0.14 0.23 0.15 0.04 0.00 0.00 0.00 0.00 0.00 0.00 0.02 0.06 0.11 0.14
0.00 0.00 0.00 0.00 0.00 0.00 0.00 0.00 0.01 0.01 0.00 0.00 0.00 0.00 0.00 0.00 0.00 0.00 0.01 0.02 0.01 0.01 0.01 0.02 0.03 0.04 0.07 0.08 0.05 0.06 0.14 0.19 0.24 0.12 0.02 0.03 0.03 0.03 0.02 0.02 0.03 0.07 0.13
0.00 0.00 0.00 0.00 0.00 0.00 0.00 0.00 0.00 0.00 0.00 0.00 0.00 0.00 0.01 0.00 0.00 0.01 0.02 0.01 0.01 0.01 0.02 0.03 0.03 0.05 0.08 0.11 0.11 0.10 0.08 0.07 0.12 0.22 0.10 0.04 0.07 0.08 0.07 0.05 0.06 0.09 0.12
0.00 0.00 0.00 0.00 0.00 0.00 0.00 0.00 0.00 0.01 0.01 0.00 0.01 0.01 0.01 0.01 0.01 0.01 0.01 0.01 0.01 0.01 0.02 0.03 0.04 0.05 0.06 0.08 0.10 0.12 0.16 0.18 0.13 0.18 0.18 0.06 0.03 0.04 0.06 0.08 0.08 0.12 0.15

GEFSSE_prec_meanprecacc_120.txt.gz
Total_Precipitation_Accumulation
0.01 0.06 0.17 0.26 0.22 0.20 0.19 0.18 0.17 0.13 0.12 0.15 0.19 0.21 0.22 0.22 0.22 0.22 0.21 0.22 0.24 0.25 0.26 0.27 0.26 0.25 0.24 0.23 0.22 0.21 0.23 0.27 0.29 0.28 0.28 0.32 0.36 0.32 0.31 0.28 0.19 0.23 0.36
0.02 0.07 0.15 0.19 0.17 0.16 0.15 0.13 0.11 0.08 0.09 0.12 0.14 0.14 0.14 0.16 0.19 0.20 0.20 0.20 0.20 0.23 0.26 0.27 0.24 0.21 0.21 0.20 0.19 0.18 0.18 0.19 0.22 0.23 0.19 0.16 0.29 0.34 0.30 0.31 0.27 0.41 0.48
0.01 0.05 0.09 0.12 0.14 0.13 0.12 0.10 0.07 0.06 0.06 0.09 0.10 0.10 0.09 0.11 0.13 0.15 0.16 0.16 0.16 0.16 0.17 0.19 0.20 0.17 0.15 0.15 0.15 0.14 0.15 0.14 0.13 0.15 0.15 0.10 0.23 0.40 0.37 0.34 0.29 0.43 0.46
0.01 0.04 0.04 0.07 0.10 0.11 0.10 0.08 0.06 0.06 0.05 0.08 0.08 0.07 0.07 0.09 0.10 0.10 0.10 0.11 0.12 0.13 0.13 0.13 0.12 0.12 0.11 0.09 0.10 0.11 0.12 0.11 0.09 0.08 0.03 0.05 0.22 0.38 0.41 0.35 0.30 0.35 0.42
0.02 0.03 0.04 0.07 0.08 0.07 0.07 0.06 0.04 0.04 0.05 0.08 0.07 0.06 0.07 0.07 0.07 0.08 0.07 0.07 0.07 0.07 0.08 0.09 0.10 0.11 0.11 0.09 0.08 0.10 0.11 0.10 0.08 0.04 0.01 0.03 0.15 0.30 0.31 0.33 0.31 0.35 0.39
0.00 0.01 0.03 0.06 0.06 0.05 0.05 0.04 0.03 0.03 0.04 0.07 0.05 0.04 0.05 0.06 0.05 0.05 0.04 0.04 0.04 0.05 0.06 0.07 0.08 0.11 0.12 0.11 0.12 0.17 0.19 0.16 0.08 0.02 0.01 0.02 0.06 0.18 0.28 0.35 0.35 0.34 0.31
0.00 0.00 0.02 0.05 0.06 0.05 0.05 0.04 0.02 0.02 0.04 0.04 0.02 0.03 0.04 0.05 0.06 0.05 0.03 0.04 0.05 0.04 0.05 0.06 0.07 0.10 0.12 0.13 0.15 0.20 0.27 0.22 0.10 0.12 0.08 0.05 0.06 0.13 0.21 0.33 0.36 0.35 0.34
0.00 0.00 0.02 0.05 0.06 0.05 0.05 0.04 0.03 0.02 0.03 0.03 0.02 0.02 0.01 0.02 0.03 0.04 0.04 0.05 0.06 0.06 0.06 0.05 0.05 0.06 0.09 0.12 0.15 0.19 0.23 0.16 0.13 0.21 0.23 0.18 0.14 0.17 0.23 0.30 0.35 0.38 0.40
0.00 0.00 0.02 0.04 0.04 0.05 0.06 0.04 0.03 0.03 0.03 0.02 0.01 0.01 0.01 0.01 0.01 0.01 0.02 0.04 0.05 0.05 0.06 0.05 0.05 0.05 0.06 0.08 0.11 0.16 0.19 0.15 0.21 0.35 0.30 0.32 0.23 0.29 0.33 0.32 0.32 0.38 0.41
0.00 0.00 0.01 0.02 0.02 0.03 0.04 0.04 0.03 0.03 0.03 0.02 0.01 0.01 0.01 0.01 0.01 0.01 0.01 0.02 0.03 0.04 0.06 0.06 0.06 0.06 0.05 0.05 0.06 0.08 0.12 0.11 0.15 0.25 0.36 0.30 0.26 0.39 0.47 0.42 0.36 0.37 0.43
0.00 0.00 0.01 0.01 0.01 0.02 0.02 0.02 0.03 0.03 0.02 0.02 0.01 0.01 0.00 0.00 0.00 0.01 0.01 0.01 0.02 0.04 0.04 0.05 0.06 0.06 0.05 0.02 0.02 0.04 0.04 0.03 0.11 0.22 0.29 0.25 0.29 0.45 0.56 0.53 0.50 0.44 0.44
0.00 0.00 0.01 0.01 0.01 0.01 0.01 0.02 0.02 0.02 0.02 0.01 0.01 0.00 0.00 0.00 0.00 0.00 0.01 0.01 0.02 0.04 0.05 0.06 0.06 0.05 0.04 0.02 0.02 0.07 0.02 0.00 0.01 0.05 0.10 0.14 0.20 0.32 0.51 0.59 0.62 0.59 0.55
0.00 0.00 0.01 0.01 0.01 0.01 0.01 0.01 0.01 0.01 0.01 0.01 0.00 0.00 0.00 0.00 0.00 0.00 0.00 0.00 0.01 0.01 0.04 0.07 0.11 0.12 0.14 0.13 0.10 0.12 0.06 0.04 0.03 0.02 0.03 0.07 0.10 0.14 0.25 0.42 0.61 0.68 0.69
0.00 0.00 0.00 0.01 0.01 0.01 0.01 0.01 0.01 0.01 0.01 0.01 0.00 0.00 0.00 0.00 0.00 0.00 0.00 0.00 0.00 0.00 0.01 0.02 0.07 0.14 0.19 0.20 0.16 0.12 0.12 0.12 0.09 0.07 0.04 0.07 0.08 0.08 0.13 0.24 0.42 0.60 0.72
0.00 0.00 0.00 0.00 0.00 0.01 0.01 0.01 0.01 0.01 0.01 0.01 0.01 0.00 0.00 0.00 0.00 0.00 0.00 0.00 0.00 0.00 0.00 0.00 0.01 0.03 0.07 0.12 0.14 0.12 0.12 0.11 0.12 0.14 0.12 0.12 0.10 0.08 0.09 0.15 0.26 0.44 0.62
0.00 0.00 0.00 0.00 0.00 0.01 0.01 0.01 0.01 0.01 0.01 0.01 0.01 0.01 0.00 0.01 0.01 0.01 0.01 0.01 0.01 0.00 0.00 0.00 0.00 0.00 0.00 0.01 0.02 0.05 0.10 0.12 0.15 0.16 0.14 0.13 0.12 0.09 0.09 0.11 0.18 0.31 0.51
0.00 0.00 0.00 0.00 0.00 0.01 0.01 0.01 0.01 0.01 0.01 0.01 0.01 0.01 0.01 0.01 0.01 0.01 0.01 0.01 0.01 0.00 0.00 0.00 0.00 0.00 0.00 0.00 0.00 0.00 0.01 0.03 0.07 0.12 0.12 0.14 0.16 0.13 0.11 0.12 0.14 0.19 0.33
0.00 0.00 0.00 0.00 0.00 0.01 0.01 0.02 0.02 0.02 0.02 0.02 0.02 0.01 0.01 0.01 0.01 0.01 0.01 0.01 0.01 0.00 0.00 0.01 0.00 0.01 0.00 0.00 0.00 0.00 0.00 0.00 0.00 0.02 0.04 0.09 0.14 0.17 0.15 0.15 0.16 0.17 0.22
0.00 0.00 0.00 0.00 0.00 0.01 0.01 0.02 0.02 0.02 0.03 0.02 0.02 0.02 0.01 0.01 0.01 0.01 0.01 0.01 0.01 0.01 0.01 0.01 0.00 0.00 0.00 0.00 0.00 0.00 0.00 0.00 0.00 0.00 0.00 0.02 0.05 0.11 0.15 0.16 0.16 0.16 0.16
0.00 0.00 0.00 0.00 0.00 0.01 0.01 0.02 0.02 0.02 0.02 0.02 0.01 0.01 0.01 0.01 0.01 0.01 0.01 0.01 0.01 0.01 0.01 0.00 0.00 0.00 0.00 0.00 0.00 0.00 0.00 0.00 0.00 0.00 0.00 0.00 0.01 0.05 0.09 0.12 0.14 0.15 0.15
0.00 0.00 0.00 0.00 0.00 0.01 0.01 0.02 0.02 0.02 0.01 0.01 0.01 0.01 0.01 0.01 0.00 0.01 0.01 0.01 0.01 0.01 0.01 0.00 0.00 0.01 0.01 0.00 0.00 0.00 0.00 0.00 0.00 0.00 0.00 0.00 0.00 0.02 0.06 0.10 0.13 0.14 0.14
0.00 0.00 0.00 0.00 0.00 0.00 0.00 0.01 0.01 0.01 0.01 0.01 0.01 0.00 0.00 0.00 0.00 0.01 0.01 0.01 0.01 0.01 0.01 0.00 0.01 0.02 0.02 0.01 0.03 0.06 0.04 0.01 0.00 0.00 0.00 0.00 0.00 0.00 0.02 0.06 0.12 0.13 0.12
0.00 0.00 0.00 0.00 0.00 0.00 0.00 0.01 0.01 0.01 0.01 0.01 0.01 0.01 0.01 0.01 0.01 0.01 0.01 0.02 0.02 0.01 0.01 0.01 0.02 0.04 0.04 0.02 0.03 0.14 0.24 0.15 0.04 0.00 0.00 0.00 0.00 0.00 0.00 0.02 0.06 0.11 0.14
0.00 0.00 0.00 0.00 0.00 0.00 0.00 0.01 0.01 0.01 0.01 0.00 0.00 0.01 0.01 0.01 0.01 0.01 0.01 0.02 0.02 0.01 0.02 0.02 0.03 0.04 0.07 0.08 0.05 0.06 0.14 0.19 0.24 0.12 0.02 0.03 0.03 0.03 0.02 0.02 0.03 0.07 0.13
0.00 0.00 0.00 0.00 0.00 0.00 0.00 0.00 0.01 0.01 0.01 0.00 0.00 0.01 0.01 0.01 0.01 0.01 0.02 0.02 0.01 0.01 0.02 0.03 0.04 0.05 0.08 0.11 0.11 0.10 0.08 0.07 0.12 0.22 0.10 0.04 0.07 0.08 0.07 0.05 0.06 0.09 0.12
0.00 0.00 0.00 0.00 0.00 0.00 0.00 0.00 0.01 0.01 0.01 0.01 0.01 0.01 0.01 0.01 0.01 0.01 0.02 0.02 0.02 0.02 0.03 0.03 0.05 0.05 0.06 0.08 0.10 0.13 0.16 0.18 0.14 0.18 0.18 0.06 0.03 0.04 0.06 0.08 0.08 0.12 0.15

GEFSSE_prec_meanprecacc_126.txt.gz
Total_Precipitation_Accumulation
0.01 0.06 0.17 0.27 0.23 0.21 0.20 0.19 0.17 0.13 0.13 0.16 0.20 0.22 0.23 0.23 0.23 0.22 0.22 0.23 0.24 0.26 0.27 0.28 0.27 0.26 0.25 0.23 0.22 0.21 0.23 0.28 0.29 0.28 0.28 0.32 0.36 0.33 0.31 0.28 0.19 0.23 0.36
0.02 0.07 0.16 0.19 0.18 0.17 0.16 0.13 0.11 0.09 0.09 0.12 0.15 0.14 0.14 0.17 0.19 0.20 0.20 0.20 0.21 0.23 0.27 0.28 0.25 0.22 0.21 0.20 0.19 0.18 0.18 0.19 0.22 0.23 0.19 0.16 0.29 0.35 0.30 0.31 0.27 0.42 0.48
0.01 0.05 0.09 0.13 0.14 0.14 0.13 0.11 0.07 0.06 0.07 0.09 0.10 0.10 0.10 0.11 0.13 0.15 0.16 0.17 0.17 0.17 0.18 0.20 0.20 0.17 0.15 0.15 0.15 0.14 0.15 0.14 0.13 0.15 0.15 0.10 0.24 0.41 0.37 0.35 0.29 0.44 0.47
0.01 0.04 0.05 0.07 0.11 0.12 0.11 0.08 0.06 0.06 0.06 0.08 0.08 0.07 0.08 0.10 0.10 0.11 0.11 0.11 0.12 0.13 0.13 0.13 0.12 0.12 0.11 0.09 0.10 0.11 0.12 0.11 0.09 0.08 0.03 0.05 0.22 0.39 0.41 0.36 0.31 0.36 0.42
0.02 0.03 0.05 0.08 0.09 0.09 0.08 0.06 0.05 0.04 0.05 0.08 0.07 0.06 0.07 0.07 0.07 0.08 0.08 0.07 0.07 0.07 0.08 0.09 0.10 0.12 0.11 0.09 0.08 0.10 0.11 0.10 0.08 0.04 0.01 0.03 0.15 0.31 0.32 0.33 0.31 0.36 0.40
0.01 0.01 0.03 0.06 0.08 0.07 0.06 0.04 0.03 0.03 0.05 0.07 0.05 0.05 0.05 0.06 0.06 0.05 0.05 0.05 0.04 0.05 0.06 0.07 0.08 0.11 0.12 0.11 0.12 0.17 0.19 0.16 0.08 0.02 0.01 0.02 0.06 0.19 0.29 0.36 0.36 0.35 0.32
0.00 0.01 0.02 0.06 0.07 0.06 0.05 0.04 0.03 0.03 0.04 0.04 0.03 0.04 0.04 0.05 0.06 0.05 0.04 0.04 0.05 0.04 0.06 0.06 0.07 0.10 0.12 0.13 0.15 0.20 0.27 0.22 0.10 0.12 0.08 0.05 0.06 0.13 0.22 0.33 0.37 0.36 0.36
0.00 0.01 0.03 0.06 0.07 0.06 0.06 0.04 0.03 0.03 0.04 0.03 0.02 0.02 0.02 0.02 0.03 0.04 0.04 0.05 0.06 0.06 0.06 0.05 0.05 0.07 0.09 0.12 0.15 0.19 0.23 0.16 0.13 0.21 0.23 0.18 0.14 0.18 0.24 0.31 0.37 0.39 0.41
0.00 0.01 0.03 0.05 0.05 0.06 0.06 0.05 0.03 0.03 0.04 0.03 0.02 0.02 0.01 0.01 0.01 0.02 0.02 0.04 0.05 0.05 0.07 0.06 0.05 0.05 0.06 0.08 0.11 0.16 0.19 0.15 0.21 0.35 0.30 0.32 0.24 0.29 0.34 0.33 0.33 0.39 0.42
0.00 0.01 0.02 0.03 0.03 0.04 0.05 0.04 0.04 0.03 0.03 0.02 0.02 0.01 0.01 0.01 0.01 0.01 0.01 0.02 0.04 0.05 0.06 0.07 0.06 0.06 0.05 0.05 0.06 0.09 0.12 0.11 0.15 0.25 0.36 0.30 0.27 0.40 0.48 0.43 0.37 0.37 0.43
0.01 0.01 0.02 0.02 0.02 0.02 0.03 0.03 0.03 0.03 0.03 0.02 0.01 0.01 0.01 0.00 0.00 0.01 0.01 0.01 0.02 0.04 0.05 0.05 0.06 0.06 0.05 0.02 0.02 0.04 0.04 0.03 0.11 0.22 0.29 0.25 0.30 0.45 0.57 0.53 0.50 0.44 0.44
0.01 0.01 0.01 0.01 0.01 0.02 0.02 0.02 0.03 0.02 0.02 0.01 0.01 0.00 0.00 0.00 0.00 0.00 0.01 0.01 0.02 0.04 0.05 0.07 0.06 0.05 0.04 0.02 0.02 0.07 0.02 0.00 0.01 0.05 0.10 0.14 0.21 0.33 0.51 0.59 0.62 0.59 0.55
0.00 0.01 0.01 0.01 0.01 0.01 0.02 0.02 0.02 0.02 0.01 0.01 0.01 0.00 0.00 0.00 0.00 0.00 0.00 0.00 0.01 0.01 0.04 0.08 0.11 0.12 0.14 0.13 0.10 0.12 0.06 0.04 0.03 0.02 0.03 0.07 0.10 0.14 0.26 0.42 0.61 0.68 0.70
0.00 0.00 0.01 0.01 0.01 0.01 0.01 0.01 0.01 0.01 0.01 0.01 0.01 0.00 0.00 0.00 0.00 0.00 0.00 0.00 0.00 0.00 0.01 0.03 0.07 0.14 0.19 0.20 0.16 0.12 0.12 0.12 0.09 0.07 0.04 0.07 0.08 0.08 0.13 0.24 0.42 0.60 0.73
0.00 0.00 0.00 0.01 0.01 0.01 0.01 0.01 0.01 0.01 0.01 0.01 0.01 0.00 0.00 0.00 0.00 0.00 0.00 0.00 0.00 0.00 0.00 0.00 0.01 0.03 0.07 0.12 0.14 0.12 0.12 0.11 0.12 0.14 0.12 0.12 0.10 0.08 0.10 0.15 0.26 0.44 0.62
0.00 0.00 0.00 0.01 0.01 0.01 0.01 0.01 0.01 0.01 0.01 0.01 0.01 0.01 0.01 0.01 0.01 0.01 0.01 0.01 0.01 0.00 0.00 0.00 0.00 0.00 0.00 0.01 0.02 0.05 0.10 0.12 0.15 0.16 0.14 0.13 0.12 0.09 0.09 0.11 0.18 0.31 0.51
0.00 0.00 0.00 0.00 0.01 0.01 0.02 0.02 0.01 0.01 0.01 0.01 0.01 0.01 0.01 0.01 0.01 0.01 0.01 0.01 0.01 0.00 0.00 0.00 0.00 0.00 0.00 0.00 0.00 0.00 0.01 0.03 0.07 0.12 0.12 0.14 0.16 0.13 0.11 0.12 0.14 0.19 0.33
0.00 0.00 0.00 0.00 0.01 0.01 0.02 0.02 0.02 0.02 0.02 0.02 0.02 0.01 0.01 0.01 0.01 0.01 0.01 0.01 0.01 0.00 0.01 0.01 0.01 0.01 0.01 0.00 0.00 0.00 0.00 0.00 0.00 0.02 0.04 0.09 0.14 0.17 0.15 0.15 0.16 0.17 0.22
0.00 0.00 0.00 0.00 0.00 0.01 0.02 0.02 0.02 0.02 0.03 0.02 0.02 0.02 0.01 0.01 0.01 0.01 0.01 0.01 0.01 0.01 0.01 0.01 0.01 0.00 0.00 0.00 0.00 0.00 0.00 0.00 0.00 0.00 0.00 0.02 0.05 0.11 0.15 0.16 0.16 0.16 0.16
0.00 0.00 0.00 0.00 0.00 0.01 0.02 0.02 0.02 0.02 0.03 0.02 0.01 0.01 0.01 0.01 0.01 0.01 0.01 0.01 0.01 0.01 0.01 0.01 0.01 0.00 0.00 0.01 0.00 0.00 0.00 0.00 0.00 0.00 0.00 0.00 0.01 0.05 0.09 0.12 0.14 0.15 0.15
0.00 0.00 0.00 0.00 0.00 0.01 0.01 0.02 0.02 0.02 0.01 0.01 0.01 0.01 0.01 0.01 0.00 0.01 0.01 0.01 0.01 0.01 0.01 0.01 0.00 0.01 0.01 0.00 0.01 0.00 0.00 0.00 0.00 0.00 0.00 0.00 0.00 0.02 0.06 0.10 0.13 0.14 0.14
0.00 0.00 0.00 0.00 0.00 0.00 0.01 0.01 0.01 0.01 0.01 0.01 0.01 0.01 0.00 0.01 0.00 0.01 0.01 0.01 0.02 0.01 0.01 0.00 0.01 0.02 0.02 0.01 0.03 0.06 0.04 0.01 0.00 0.00 0.00 0.00 0.00 0.00 0.02 0.06 0.12 0.13 0.12
0.00 0.00 0.00 0.00 0.00 0.00 0.00 0.01 0.01 0.01 0.01 0.01 0.01 0.01 0.01 0.01 0.01 0.01 0.01 0.02 0.02 0.02 0.01 0.01 0.02 0.04 0.04 0.02 0.03 0.14 0.24 0.15 0.04 0.00 0.00 0.00 0.00 0.00 0.00 0.02 0.06 0.11 0.14
0.00 0.00 0.00 0.00 0.00 0.00 0.00 0.01 0.01 0.01 0.01 0.01 0.00 0.01 0.01 0.01 0.01 0.01 0.01 0.02 0.02 0.01 0.02 0.02 0.03 0.04 0.08 0.08 0.05 0.06 0.14 0.19 0.24 0.12 0.02 0.03 0.03 0.03 0.02 0.02 0.03 0.07 0.13
0.00 0.00 0.00 0.00 0.00 0.00 0.00 0.00 0.01 0.01 0.01 0.00 0.01 0.01 0.01 0.01 0.01 0.01 0.02 0.02 0.02 0.01 0.02 0.03 0.04 0.05 0.08 0.11 0.11 0.10 0.08 0.07 0.12 0.22 0.10 0.04 0.07 0.08 0.07 0.05 0.06 0.09 0.12
0.00 0.00 0.00 0.00 0.00 0.00 0.00 0.01 0.01 0.01 0.01 0.01 0.01 0.01 0.01 0.01 0.01 0.01 0.02 0.02 0.02 0.02 0.03 0.04 0.05 0.06 0.06 0.08 0.10 0.13 0.16 0.18 0.14 0.18 0.18 0.06 0.03 0.04 0.06 0.08 0.08 0.12 0.15

GEFSSE_prec_meanprecacc_132.txt.gz
Total_Precipitation_Accumulation
0.01 0.06 0.18 0.27 0.24 0.21 0.20 0.19 0.18 0.14 0.13 0.17 0.21 0.23 0.24 0.24 0.23 0.23 0.23 0.24 0.25 0.27 0.29 0.29 0.28 0.27 0.25 0.24 0.23 0.21 0.23 0.28 0.30 0.28 0.29 0.33 0.36 0.33 0.31 0.28 0.19 0.23 0.37
0.02 0.07 0.16 0.20 0.19 0.18 0.17 0.14 0.11 0.09 0.10 0.13 0.16 0.15 0.15 0.17 0.20 0.21 0.21 0.21 0.22 0.24 0.28 0.29 0.26 0.22 0.22 0.20 0.19 0.18 0.18 0.19 0.22 0.23 0.20 0.16 0.30 0.35 0.31 0.32 0.28 0.42 0.49
0.01 0.05 0.10 0.14 0.15 0.15 0.14 0.11 0.07 0.07 0.07 0.10 0.11 0.11 0.10 0.12 0.14 0.16 0.17 0.18 0.17 0.17 0.18 0.20 0.21 0.18 0.15 0.15 0.15 0.14 0.15 0.14 0.13 0.15 0.15 0.10 0.24 0.42 0.39 0.36 0.30 0.45 0.48
0.01 0.04 0.05 0.08 0.12 0.13 0.11 0.09 0.07 0.06 0.06 0.09 0.09 0.08 0.09 0.10 0.11 0.12 0.12 0.12 0.13 0.13 0.13 0.13 0.13 0.13 0.11 0.09 0.10 0.11 0.12 0.12 0.09 0.08 0.03 0.05 0.23 0.41 0.43 0.37 0.32 0.38 0.44
0.02 0.03 0.05 0.09 0.10 0.09 0.09 0.07 0.05 0.04 0.05 0.09 0.08 0.07 0.08 0.08 0.08 0.09 0.08 0.08 0.07 0.08 0.09 0.10 0.10 0.12 0.11 0.09 0.08 0.10 0.12 0.10 0.08 0.04 0.01 0.03 0.16 0.33 0.33 0.34 0.32 0.37 0.42
0.01 0.01 0.04 0.07 0.08 0.07 0.07 0.05 0.03 0.03 0.05 0.07 0.06 0.05 0.06 0.06 0.06 0.06 0.05 0.05 0.05 0.05 0.06 0.07 0.08 0.11 0.12 0.11 0.12 0.17 0.19 0.16 0.08 0.02 0.01 0.02 0.07 0.20 0.30 0.37 0.37 0.36 0.33
0.00 0.01 0.03 0.06 0.08 0.07 0.06 0.04 0.03 0.03 0.04 0.05 0.03 0.04 0.04 0.05 0.06 0.06 0.04 0.04 0.05 0.05 0.06 0.07 0.07 0.10 0.12 0.13 0.15 0.20 0.27 0.22 0.10 0.12 0.08 0.05 0.07 0.14 0.23 0.34 0.38 0.37 0.37
0.00 0.01 0.03 0.08 0.08 0.07 0.06 0.05 0.03 0.03 0.04 0.04 0.02 0.02 0.02 0.02 0.03 0.04 0.04 0.05 0.07 0.07 0.07 0.06 0.06 0.07 0.09 0.12 0.15 0.19 0.23 0.16 0.13 0.21 0.23 0.18 0.15 0.19 0.24 0.32 0.37 0.40 0.42
0.00 0.01 0.03 0.05 0.06 0.07 0.07 0.05 0.04 0.04 0.04 0.03 0.02 0.02 0.01 0.01 0.02 0.02 0.02 0.04 0.06 0.06 0.07 0.06 0.05 0.05 0.06 0.08 0.11 0.16 0.19 0.15 0.21 0.35 0.30 0.32 0.24 0.30 0.35 0.33 0.33 0.39 0.43
0.01 0.01 0.02 0.03 0.04 0.04 0.05 0.05 0.04 0.04 0.04 0.03 0.02 0.01 0.01 0.01 0.01 0.02 0.01 0.02 0.04 0.05 0.06 0.07 0.07 0.06 0.05 0.05 0.06 0.09 0.12 0.11 0.15 0.25 0.36 0.30 0.27 0.40 0.49 0.43 0.37 0.37 0.43
0.01 0.01 0.02 0.02 0.02 0.03 0.04 0.03 0.04 0.04 0.03 0.02 0.02 0.01 0.01 0.00 0.01 0.01 0.01 0.01 0.02 0.04 0.05 0.05 0.06 0.06 0.05 0.02 0.02 0.04 0.04 0.03 0.11 0.22 0.29 0.25 0.30 0.45 0.57 0.53 0.51 0.44 0.45
0.01 0.01 0.02 0.02 0.02 0.02 0.02 0.03 0.03 0.03 0.02 0.01 0.01 0.00 0.00 0.00 0.00 0.00 0.01 0.02 0.02 0.04 0.06 0.07 0.06 0.05 0.04 0.02 0.02 0.07 0.02 0.00 0.01 0.05 0.10 0.14 0.21 0.33 0.51 0.59 0.62 0.59 0.55
0.00 0.01 0.01 0.01 0.01 0.01 0.02 0.02 0.02 0.02 0.01 0.01 0.01 0.00 0.00 0.00 0.00 0.00 0.00 0.00 0.01 0.01 0.04 0.08 0.11 0.12 0.14 0.13 0.10 0.12 0.06 0.04 0.03 0.02 0.03 0.07 0.10 0.14 0.26 0.42 0.62 0.69 0.70
0.00 0.01 0.01 0.01 0.01 0.01 0.01 0.01 0.01 0.01 0.01 0.01 0.01 0.00 0.00 0.00 0.00 0.00 0.00 0.00 0.00 0.00 0.01 0.03 0.07 0.14 0.19 0.20 0.16 0.12 0.12 0.12 0.09 0.07 0.04 0.07 0.08 0.08 0.13 0.24 0.42 0.60 0.73
0.00 0.00 0.01 0.01 0.01 0.01 0.01 0.01 0.01 0.01 0.01 0.01 0.01 0.00 0.00 0.00 0.00 0.00 0.00 0.00 0.00 0.00 0.00 0.00 0.01 0.03 0.07 0.12 0.14 0.12 0.12 0.11 0.12 0.14 0.12 0.12 0.10 0.08 0.10 0.15 0.27 0.44 0.62
0.00 0.00 0.00 0.01 0.01 0.01 0.01 0.01 0.01 0.01 0.01 0.01 0.01 0.01 0.01 0.01 0.01 0.01 0.01 0.01 0.01 0.00 0.00 0.00 0.00 0.00 0.00 0.01 0.02 0.05 0.10 0.12 0.15 0.16 0.14 0.13 0.12 0.09 0.09 0.11 0.18 0.31 0.51
0.00 0.00 0.00 0.01 0.01 0.01 0.02 0.02 0.01 0.01 0.01 0.01 0.01 0.01 0.01 0.01 0.01 0.01 0.01 0.01 0.01 0.00 0.00 0.00 0.00 0.00 0.00 0.00 0.00 0.00 0.01 0.03 0.07 0.12 0.12 0.14 0.16 0.13 0.11 0.12 0.14 0.19 0.33
0.00 0.00 0.00 0.01 0.01 0.01 0.02 0.02 0.02 0.02 0.02 0.02 0.02 0.01 0.01 0.01 0.01 0.01 0.01 0.01 0.01 0.00 0.01 0.01 0.01 0.01 0.01 0.00 0.00 0.00 0.00 0.00 0.00 0.02 0.04 0.09 0.14 0.17 0.15 0.15 0.16 0.17 0.22
0.01 0.00 0.01 0.01 0.01 0.01 0.02 0.02 0.02 0.02 0.03 0.02 0.02 0.02 0.01 0.01 0.01 0.01 0.01 0.01 0.01 0.01 0.01 0.01 0.01 0.00 0.00 0.00 0.00 0.00 0.00 0.00 0.00 0.00 0.00 0.02 0.05 0.11 0.15 0.16 0.16 0.16 0.16
0.01 0.01 0.01 0.01 0.01 0.01 0.02 0.02 0.02 0.03 0.03 0.02 0.01 0.01 0.01 0.01 0.01 0.01 0.01 0.01 0.01 0.01 0.01 0.01 0.01 0.00 0.00 0.01 0.00 0.00 0.00 0.00 0.00 0.00 0.00 0.00 0.01 0.05 0.09 0.12 0.14 0.15 0.15
0.01 0.01 0.01 0.01 0.01 0.01 0.02 0.02 0.02 0.02 0.02 0.01 0.01 0.01 0.01 0.01 0.00 0.01 0.01 0.01 0.01 0.01 0.01 0.01 0.00 0.01 0.01 0.00 0.01 0.00 0.00 0.00 0.00 0.00 0.00 0.00 0.00 0.02 0.06 0.10 0.13 0.14 0.14
0.00 0.01 0.01 0.01 0.01 0.01 0.01 0.01 0.01 0.01 0.01 0.01 0.01 0.01 0.00 0.01 0.00 0.01 0.01 0.01 0.02 0.01 0.01 0.00 0.01 0.02 0.02 0.01 0.03 0.06 0.04 0.01 0.00 0.00 0.00 0.00 0.00 0.00 0.02 0.06 0.12 0.13 0.12
0.00 0.00 0.00 0.00 0.00 0.01 0.01 0.01 0.01 0.02 0.02 0.01 0.01 0.01 0.01 0.01 0.01 0.01 0.01 0.02 0.02 0.02 0.01 0.01 0.02 0.04 0.04 0.02 0.03 0.14 0.24 0.15 0.04 0.00 0.00 0.00 0.00 0.00 0.00 0.02 0.06 0.11 0.14
0.00 0.00 0.00 0.01 0.00 0.01 0.01 0.01 0.01 0.01 0.01 0.01 0.00 0.01 0.01 0.01 0.01 0.01 0.01 0.02 0.02 0.01 0.02 0.02 0.03 0.04 0.08 0.08 0.05 0.06 0.14 0.20 0.24 0.12 0.02 0.03 0.03 0.03 0.02 0.02 0.03 0.07 0.13
0.00 0.00 0.00 0.01 0.01 0.01 0.01 0.01 0.01 0.01 0.01 0.00 0.01 0.01 0.01 0.01 0.01 0.01 0.02 0.02 0.02 0.01 0.02 0.03 0.04 0.05 0.08 0.11 0.11 0.10 0.08 0.07 0.12 0.23 0.11 0.04 0.07 0.08 0.07 0.05 0.06 0.09 0.12
0.00 0.00 0.00 0.01 0.01 0.01 0.01 0.01 0.01 0.01 0.01 0.01 0.01 0.01 0.01 0.01 0.01 0.01 0.02 0.02 0.02 0.02 0.03 0.04 0.05 0.06 0.06 0.08 0.11 0.13 0.16 0.19 0.14 0.19 0.19 0.06 0.03 0.04 0.06 0.08 0.08 0.12 0.15

GEFSSE_prec_meanprecacc_138.txt.gz
Total_Precipitation_Accumulation
0.02 0.06 0.20 0.29 0.26 0.23 0.22 0.20 0.18 0.15 0.14 0.18 0.22 0.24 0.24 0.24 0.24 0.24 0.24 0.25 0.27 0.28 0.30 0.30 0.29 0.27 0.26 0.25 0.23 0.21 0.23 0.28 0.30 0.29 0.29 0.34 0.37 0.34 0.32 0.29 0.20 0.24 0.38
0.02 0.07 0.18 0.22 0.20 0.20 0.18 0.15 0.12 0.10 0.11 0.14 0.17 0.16 0.16 0.18 0.21 0.22 0.22 0.22 0.23 0.26 0.29 0.30 0.26 0.23 0.22 0.21 0.20 0.18 0.18 0.20 0.22 0.23 0.20 0.17 0.31 0.36 0.32 0.33 0.29 0.44 0.51
0.01 0.06 0.11 0.16 0.17 0.17 0.15 0.12 0.08 0.08 0.08 0.11 0.12 0.12 0.11 0.13 0.15 0.17 0.18 0.19 0.19 0.18 0.19 0.21 0.22 0.18 0.16 0.15 0.16 0.15 0.16 0.14 0.13 0.15 0.15 0.10 0.25 0.44 0.40 0.37 0.32 0.47 0.50
0.01 0.05 0.06 0.10 0.14 0.14 0.13 0.10 0.08 0.07 0.07 0.10 0.10 0.09 0.09 0.11 0.12 0.13 0.13 0.13 0.13 0.14 0.14 0.14 0.13 0.13 0.11 0.10 0.11 0.11 0.12 0.12 0.09 0.08 0.04 0.05 0.24 0.43 0.44 0.39 0.34 0.40 0.47
0.02 0.04 0.06 0.11 0.12 0.11 0.10 0.08 0.06 0.05 0.06 0.09 0.09 0.08 0.08 0.09 0.09 0.10 0.10 0.09 0.08 0.08 0.09 0.10 0.10 0.12 0.11 0.10 0.09 0.11 0.12 0.10 0.08 0.04 0.01 0.03 0.16 0.34 0.34 0.36 0.34 0.38 0.43
0.01 0.02 0.05 0.09 0.10 0.09 0.08 0.06 0.05 0.04 0.06 0.08 0.06 0.06 0.07 0.07 0.07 0.07 0.06 0.05 0.05 0.05 0.07 0.08 0.09 0.11 0.12 0.12 0.12 0.17 0.19 0.16 0.08 0.02 0.01 0.02 0.07 0.21 0.31 0.38 0.38 0.37 0.34
0.01 0.02 0.04 0.09 0.10 0.08 0.07 0.06 0.04 0.04 0.05 0.06 0.04 0.05 0.05 0.07 0.07 0.06 0.04 0.05 0.05 0.05 0.06 0.07 0.08 0.10 0.12 0.13 0.15 0.20 0.27 0.22 0.10 0.12 0.08 0.05 0.07 0.15 0.24 0.35 0.39 0.38 0.38
0.01 0.02 0.05 0.10 0.10 0.08 0.08 0.06 0.04 0.04 0.05 0.04 0.03 0.03 0.03 0.03 0.04 0.05 0.05 0.06 0.07 0.07 0.07 0.06 0.06 0.07 0.09 0.12 0.15 0.19 0.23 0.16 0.13 0.21 0.23 0.19 0.15 0.20 0.25 0.33 0.38 0.40 0.43
0.01 0.02 0.05 0.08 0.08 0.09 0.08 0.06 0.05 0.05 0.05 0.04 0.03 0.03 0.02 0.02 0.02 0.02 0.03 0.05 0.06 0.06 0.07 0.06 0.05 0.05 0.06 0.08 0.11 0.16 0.19 0.15 0.21 0.35 0.30 0.33 0.25 0.31 0.36 0.34 0.34 0.40 0.43
0.01 0.02 0.04 0.05 0.05 0.05 0.06 0.06 0.05 0.05 0.04 0.03 0.02 0.02 0.01 0.01 0.02 0.02 0.02 0.03 0.04 0.05 0.07 0.07 0.07 0.06 0.05 0.05 0.06 0.09 0.12 0.11 0.15 0.25 0.36 0.31 0.28 0.41 0.49 0.44 0.37 0.38 0.44
0.03 0.03 0.04 0.04 0.04 0.04 0.04 0.04 0.05 0.05 0.04 0.03 0.02 0.01 0.01 0.01 0.01 0.01 0.01 0.02 0.02 0.04 0.05 0.06 0.06 0.06 0.05 0.02 0.02 0.04 0.05 0.03 0.11 0.22 0.29 0.25 0.30 0.46 0.57 0.54 0.51 0.45 0.45
0.02 0.03 0.03 0.03 0.03 0.03 0.03 0.03 0.04 0.04 0.03 0.02 0.01 0.00 0.00 0.00 0.00 0.00 0.01 0.02 0.03 0.04 0.06 0.07 0.06 0.05 0.04 0.02 0.02 0.07 0.02 0.00 0.01 0.05 0.10 0.14 0.21 0.33 0.52 0.60 0.62 0.59 0.56
0.01 0.02 0.03 0.02 0.02 0.02 0.02 0.03 0.03 0.03 0.02 0.01 0.01 0.00 0.00 0.00 0.00 0.00 0.00 0.01 0.01 0.02 0.04 0.08 0.11 0.12 0.14 0.13 0.10 0.12 0.06 0.04 0.03 0.02 0.03 0.07 0.10 0.15 0.26 0.43 0.62 0.69 0.70
0.02 0.02 0.02 0.02 0.02 0.02 0.02 0.02 0.02 0.02 0.02 0.01 0.01 0.00 0.00 0.00 0.00 0.00 0.00 0.00 0.00 0.00 0.01 0.03 0.07 0.14 0.19 0.20 0.16 0.12 0.12 0.12 0.09 0.07 0.04 0.07 0.08 0.08 0.14 0.24 0.42 0.61 0.73
0.02 0.02 0.02 0.02 0.02 0.02 0.02 0.02 0.02 0.01 0.01 0.01 0.01 0.00 0.00 0.00 0.00 0.00 0.00 0.00 0.00 0.00 0.00 0.00 0.01 0.03 0.07 0.12 0.14 0.12 0.12 0.11 0.12 0.14 0.12 0.12 0.10 0.08 0.10 0.16 0.27 0.44 0.62
0.02 0.02 0.02 0.02 0.02 0.02 0.02 0.02 0.02 0.01 0.01 0.01 0.01 0.01 0.01 0.01 0.01 0.01 0.01 0.01 0.01 0.00 0.00 0.00 0.00 0.00 0.00 0.01 0.02 0.05 0.10 0.12 0.15 0.16 0.14 0.13 0.12 0.09 0.09 0.12 0.18 0.31 0.51
0.03 0.03 0.03 0.03 0.02 0.02 0.03 0.02 0.02 0.02 0.02 0.01 0.01 0.01 0.01 0.01 0.01 0.01 0.01 0.01 0.01 0.00 0.00 0.00 0.00 0.00 0.00 0.00 0.00 0.00 0.01 0.03 0.07 0.12 0.12 0.14 0.16 0.13 0.11 0.12 0.14 0.19 0.33
0.04 0.03 0.04 0.03 0.03 0.03 0.03 0.03 0.03 0.02 0.02 0.02 0.02 0.01 0.01 0.01 0.01 0.01 0.01 0.01 0.01 0.00 0.01 0.01 0.01 0.01 0.01 0.00 0.00 0.00 0.00 0.00 0.00 0.02 0.04 0.09 0.14 0.17 0.15 0.15 0.16 0.17 0.22
0.07 0.05 0.04 0.04 0.03 0.03 0.03 0.03 0.03 0.03 0.03 0.03 0.02 0.02 0.01 0.01 0.01 0.01 0.01 0.01 0.01 0.01 0.01 0.01 0.01 0.00 0.00 0.00 0.00 0.00 0.00 0.00 0.00 0.00 0.00 0.02 0.05 0.11 0.15 0.16 0.16 0.16 0.16
0.08 0.08 0.06 0.05 0.03 0.03 0.04 0.04 0.04 0.04 0.03 0.02 0.02 0.01 0.01 0.01 0.01 0.01 0.01 0.01 0.01 0.01 0.01 0.01 0.01 0.00 0.00 0.01 0.00 0.00 0.00 0.00 0.00 0.00 0.00 0.00 0.01 0.05 0.09 0.12 0.14 0.15 0.15
0.07 0.09 0.09 0.07 0.05 0.05 0.04 0.04 0.04 0.03 0.02 0.01 0.01 0.01 0.01 0.01 0.00 0.01 0.01 0.01 0.01 0.01 0.01 0.01 0.00 0.01 0.01 0.00 0.01 0.00 0.00 0.00 0.00 0.00 0.00 0.00 0.00 0.02 0.06 0.10 0.13 0.14 0.14
0.04 0.05 0.08 0.08 0.05 0.04 0.03 0.02 0.02 0.02 0.02 0.01 0.01 0.01 0.00 0.01 0.00 0.01 0.01 0.01 0.02 0.01 0.01 0.00 0.01 0.02 0.02 0.01 0.03 0.06 0.04 0.01 0.00 0.00 0.00 0.00 0.00 0.00 0.02 0.06 0.12 0.13 0.12
0.02 0.04 0.05 0.06 0.06 0.04 0.04 0.03 0.03 0.03 0.03 0.02 0.01 0.01 0.01 0.01 0.01 0.01 0.01 0.02 0.02 0.02 0.01 0.01 0.02 0.04 0.04 0.02 0.03 0.14 0.24 0.16 0.04 0.00 0.00 0.00 0.00 0.00 0.00 0.02 0.06 0.11 0.14
0.01 0.02 0.04 0.06 0.06 0.06 0.05 0.03 0.02 0.02 0.01 0.01 0.01 0.01 0.01 0.01 0.01 0.01 0.01 0.02 0.02 0.01 0.02 0.02 0.03 0.04 0.08 0.08 0.05 0.06 0.14 0.20 0.24 0.12 0.02 0.03 0.04 0.03 0.02 0.02 0.03 0.07 0.13
0.01 0.01 0.03 0.06 0.06 0.07 0.07 0.04 0.03 0.01 0.01 0.01 0.01 0.01 0.01 0.01 0.01 0.01 0.02 0.02 0.02 0.01 0.02 0.03 0.04 0.05 0.08 0.11 0.11 0.10 0.08 0.07 0.13 0.23 0.11 0.04 0.07 0.08 0.07 0.05 0.06 0.09 0.12
0.01 0.01 0.02 0.05 0.06 0.06 0.08 0.07 0.04 0.03 0.02 0.01 0.01 0.01 0.01 0.01 0.01 0.01 0.02 0.02 0.02 0.02 0.03 0.04 0.05 0.06 0.06 0.08 0.11 0.13 0.16 0.19 0.15 0.20 0.19 0.06 0.03 0.04 0.06 0.09 0.09 0.12 0.15

GEFSSE_prec_meanprecacc_144.txt.gz
Total_Precipitation_Accumulation
0.02 0.07 0.21 0.30 0.27 0.24 0.23 0.21 0.20 0.16 0.15 0.19 0.23 0.25 0.26 0.25 0.25 0.24 0.24 0.26 0.28 0.30 0.32 0.32 0.31 0.29 0.27 0.26 0.24 0.22 0.24 0.29 0.30 0.29 0.30 0.34 0.38 0.35 0.33 0.30 0.21 0.25 0.40
0.02 0.07 0.19 0.23 0.22 0.21 0.19 0.16 0.14 0.11 0.12 0.15 0.18 0.18 0.17 0.19 0.21 0.23 0.23 0.24 0.24 0.27 0.31 0.32 0.28 0.24 0.23 0.22 0.20 0.19 0.19 0.20 0.23 0.23 0.20 0.18 0.32 0.38 0.33 0.34 0.30 0.45 0.52
0.01 0.06 0.12 0.17 0.18 0.18 0.16 0.13 0.09 0.09 0.09 0.12 0.14 0.13 0.12 0.14 0.15 0.18 0.20 0.20 0.20 0.20 0.20 0.22 0.22 0.19 0.17 0.16 0.16 0.15 0.16 0.14 0.13 0.16 0.15 0.11 0.27 0.45 0.41 0.38 0.33 0.48 0.52
0.01 0.05 0.07 0.11 0.15 0.16 0.14 0.11 0.09 0.08 0.08 0.11 0.11 0.10 0.10 0.12 0.13 0.14 0.15 0.14 0.14 0.15 0.14 0.14 0.13 0.14 0.12 0.10 0.11 0.11 0.13 0.12 0.09 0.08 0.04 0.05 0.25 0.45 0.46 0.41 0.36 0.42 0.49
0.02 0.04 0.07 0.12 0.13 0.13 0.12 0.09 0.07 0.07 0.08 0.11 0.10 0.09 0.09 0.10 0.10 0.11 0.11 0.10 0.08 0.08 0.09 0.10 0.11 0.12 0.12 0.10 0.09 0.11 0.12 0.10 0.08 0.04 0.01 0.04 0.17 0.36 0.36 0.37 0.35 0.40 0.44
0.01 0.02 0.06 0.11 0.12 0.11 0.10 0.07 0.06 0.06 0.07 0.10 0.08 0.07 0.08 0.09 0.09 0.08 0.07 0.06 0.05 0.06 0.07 0.08 0.09 0.12 0.12 0.12 0.12 0.17 0.19 0.16 0.08 0.02 0.01 0.03 0.08 0.22 0.32 0.39 0.39 0.38 0.35
0.01 0.02 0.05 0.11 0.12 0.10 0.09 0.07 0.06 0.06 0.07 0.07 0.06 0.06 0.06 0.08 0.09 0.08 0.05 0.05 0.06 0.05 0.07 0.07 0.08 0.10 0.13 0.14 0.15 0.20 0.27 0.22 0.10 0.12 0.09 0.06 0.08 0.16 0.24 0.36 0.40 0.39 0.38
0.01 0.03 0.07 0.13 0.13 0.10 0.10 0.07 0.06 0.06 0.07 0.06 0.05 0.05 0.04 0.05 0.06 0.06 0.05 0.06 0.08 0.07 0.08 0.06 0.06 0.07 0.10 0.13 0.16 0.19 0.23 0.16 0.13 0.21 0.23 0.19 0.16 0.20 0.26 0.33 0.38 0.41 0.43
0.01 0.03 0.07 0.11 0.12 0.12 0.11 0.08 0.06 0.06 0.07 0.06 0.05 0.05 0.04 0.03 0.03 0.03 0.03 0.05 0.07 0.06 0.08 0.07 0.06 0.06 0.06 0.08 0.11 0.16 0.19 0.15 0.21 0.35 0.30 0.33 0.25 0.31 0.36 0.34 0.34 0.41 0.44
0.03 0.04 0.07 0.09 0.09 0.10 0.10 0.08 0.07 0.07 0.07 0.06 0.05 0.04 0.03 0.03 0.04 0.03 0.02 0.03 0.04 0.05 0.07 0.08 0.07 0.06 0.06 0.05 0.06 0.09 0.12 0.11 0.15 0.25 0.36 0.31 0.28 0.42 0.49 0.44 0.38 0.39 0.45
0.05 0.05 0.07 0.08 0.08 0.08 0.08 0.07 0.08 0.08 0.07 0.06 0.04 0.03 0.02 0.02 0.02 0.02 0.02 0.02 0.03 0.05 0.05 0.06 0.06 0.07 0.05 0.03 0.02 0.04 0.05 0.03 0.11 0.22 0.29 0.25 0.31 0.46 0.58 0.54 0.52 0.45 0.45
0.04 0.06 0.07 0.07 0.07 0.07 0.07 0.07 0.08 0.07 0.06 0.04 0.02 0.02 0.01 0.01 0.01 0.00 0.01 0.02 0.03 0.05 0.06 0.07 0.06 0.05 0.04 0.02 0.02 0.07 0.02 0.00 0.01 0.05 0.10 0.14 0.21 0.34 0.52 0.60 0.62 0.60 0.56
0.03 0.06 0.07 0.07 0.07 0.07 0.06 0.06 0.06 0.06 0.05 0.03 0.02 0.01 0.01 0.01 0.00 0.00 0.01 0.01 0.02 0.02 0.04 0.08 0.11 0.12 0.14 0.13 0.10 0.12 0.06 0.04 0.03 0.02 0.03 0.07 0.10 0.15 0.26 0.43 0.62 0.69 0.71
0.05 0.07 0.08 0.09 0.09 0.08 0.06 0.05 0.04 0.04 0.03 0.02 0.01 0.01 0.01 0.01 0.00 0.00 0.01 0.01 0.01 0.01 0.01 0.03 0.07 0.14 0.19 0.20 0.16 0.12 0.12 0.13 0.09 0.07 0.04 0.07 0.08 0.09 0.14 0.25 0.43 0.61 0.73
0.05 0.07 0.09 0.10 0.10 0.09 0.07 0.05 0.04 0.03 0.03 0.01 0.01 0.01 0.00 0.01 0.01 0.00 0.00 0.01 0.00 0.00 0.00 0.00 0.01 0.03 0.07 0.12 0.14 0.12 0.12 0.11 0.12 0.14 0.12 0.12 0.10 0.09 0.10 0.16 0.28 0.45 0.62
0.06 0.08 0.09 0.10 0.10 0.10 0.08 0.06 0.04 0.03 0.03 0.02 0.01 0.01 0.01 0.01 0.01 0.01 0.01 0.01 0.01 0.01 0.00 0.00 0.00 0.00 0.00 0.01 0.02 0.05 0.10 0.12 0.15 0.16 0.14 0.13 0.12 0.09 0.09 0.12 0.19 0.32 0.51
0.06 0.08 0.11 0.10 0.11 0.10 0.09 0.07 0.05 0.04 0.03 0.03 0.02 0.01 0.01 0.01 0.01 0.01 0.01 0.01 0.01 0.01 0.00 0.00 0.00 0.00 0.00 0.00 0.00 0.00 0.01 0.03 0.07 0.12 0.12 0.14 0.16 0.13 0.11 0.12 0.15 0.20 0.33
0.08 0.09 0.12 0.13 0.13 0.12 0.11 0.09 0.07 0.05 0.04 0.04 0.03 0.02 0.01 0.01 0.01 0.01 0.01 0.01 0.01 0.00 0.01 0.01 0.01 0.01 0.01 0.00 0.00 0.00 0.00 0.00 0.00 0.02 0.04 0.09 0.14 0.17 0.15 0.15 0.16 0.17 0.22
0.10 0.10 0.12 0.14 0.14 0.14 0.13 0.11 0.08 0.06 0.06 0.05 0.03 0.03 0.02 0.01 0.01 0.01 0.01 0.01 0.01 0.01 0.01 0.01 0.01 0.00 0.01 0.00 0.00 0.00 0.00 0.00 0.00 0.00 0.00 0.02 0.05 0.11 0.15 0.16 0.16 0.16 0.16
0.10 0.14 0.15 0.16 0.16 0.16 0.17 0.14 0.12 0.09 0.06 0.04 0.03 0.03 0.02 0.01 0.01 0.01 0.01 0.01 0.01 0.01 0.01 0.01 0.01 0.00 0.00 0.01 0.00 0.00 0.00 0.00 0.00 0.00 0.00 0.00 0.01 0.05 0.09 0.12 0.14 0.15 0.15
0.09 0.15 0.17 0.18 0.20 0.21 0.20 0.17 0.13 0.09 0.05 0.03 0.02 0.02 0.02 0.01 0.01 0.01 0.01 0.01 0.01 0.01 0.01 0.01 0.00 0.01 0.01 0.01 0.01 0.01 0.00 0.00 0.00 0.00 0.00 0.00 0.00 0.02 0.06 0.10 0.13 0.14 0.14
0.06 0.09 0.15 0.18 0.18 0.21 0.20 0.17 0.12 0.08 0.05 0.03 0.02 0.02 0.02 0.01 0.01 0.01 0.01 0.01 0.02 0.01 0.01 0.00 0.01 0.02 0.02 0.01 0.03 0.06 0.04 0.01 0.00 0.00 0.00 0.00 0.00 0.00 0.02 0.06 0.12 0.13 0.12
0.05 0.07 0.10 0.14 0.18 0.18 0.20 0.20 0.18 0.14 0.10 0.06 0.03 0.02 0.02 0.02 0.01 0.01 0.01 0.02 0.02 0.02 0.01 0.01 0.02 0.04 0.04 0.02 0.03 0.14 0.24 0.16 0.04 0.00 0.00 0.00 0.00 0.00 0.01 0.02 0.06 0.11 0.14
0.03 0.04 0.08 0.12 0.16 0.20 0.20 0.20 0.18 0.15 0.10 0.05 0.03 0.02 0.02 0.02 0.02 0.01 0.01 0.02 0.02 0.01 0.02 0.02 0.03 0.04 0.08 0.08 0.05 0.06 0.14 0.20 0.24 0.12 0.02 0.03 0.04 0.03 0.02 0.02 0.03 0.07 0.13
0.03 0.05 0.07 0.12 0.15 0.21 0.21 0.18 0.18 0.14 0.10 0.06 0.04 0.04 0.03 0.02 0.02 0.02 0.02 0.02 0.02 0.01 0.02 0.03 0.04 0.05 0.08 0.11 0.11 0.10 0.08 0.07 0.13 0.23 0.11 0.04 0.07 0.08 0.07 0.05 0.06 0.09 0.12
0.04 0.06 0.07 0.10 0.13 0.18 0.24 0.21 0.20 0.15 0.11 0.09 0.05 0.04 0.04 0.03 0.02 0.03 0.02 0.02 0.02 0.02 0.03 0.04 0.05 0.06 0.06 0.08 0.11 0.13 0.17 0.19 0.15 0.20 0.20 0.07 0.03 0.04 0.06 0.09 0.09 0.12 0.15

GEFSSE_prec_meanprecacc_150.txt.gz
Total_Precipitation_Accumulation
0.02 0.07 0.21 0.31 0.28 0.25 0.24 0.23 0.21 0.18 0.16 0.20 0.24 0.26 0.26 0.26 0.25 0.25 0.25 0.26 0.28 0.30 0.33 0.34 0.32 0.30 0.28 0.26 0.25 0.23 0.25 0.29 0.31 0.30 0.31 0.36 0.39 0.36 0.34 0.31 0.21 0.26 0.41
0.02 0.08 0.19 0.24 0.23 0.22 0.21 0.18 0.15 0.12 0.13 0.17 0.19 0.19 0.18 0.20 0.22 0.23 0.24 0.24 0.25 0.28 0.32 0.34 0.30 0.25 0.24 0.22 0.21 0.19 0.19 0.20 0.23 0.24 0.21 0.19 0.34 0.39 0.34 0.35 0.31 0.46 0.54
0.01 0.06 0.13 0.17 0.20 0.19 0.18 0.15 0.11 0.10 0.10 0.14 0.15 0.14 0.14 0.15 0.16 0.19 0.21 0.21 0.21 0.21 0.22 0.24 0.24 0.20 0.18 0.17 0.16 0.15 0.16 0.14 0.14 0.16 0.16 0.12 0.27 0.46 0.42 0.39 0.35 0.50 0.54
0.01 0.05 0.07 0.12 0.17 0.17 0.16 0.13 0.11 0.10 0.10 0.13 0.13 0.11 0.12 0.13 0.14 0.16 0.16 0.16 0.16 0.16 0.15 0.15 0.14 0.14 0.12 0.10 0.11 0.12 0.13 0.12 0.09 0.09 0.04 0.06 0.26 0.46 0.48 0.43 0.39 0.44 0.50
0.02 0.04 0.07 0.13 0.15 0.15 0.14 0.12 0.10 0.09 0.10 0.13 0.12 0.10 0.11 0.12 0.12 0.13 0.13 0.11 0.09 0.09 0.10 0.11 0.11 0.13 0.12 0.10 0.09 0.11 0.12 0.10 0.08 0.05 0.02 0.05 0.18 0.38 0.38 0.38 0.36 0.41 0.46
0.01 0.02 0.07 0.12 0.14 0.13 0.12 0.10 0.09 0.08 0.10 0.12 0.10 0.09 0.10 0.11 0.11 0.10 0.09 0.07 0.06 0.06 0.07 0.08 0.09 0.12 0.13 0.12 0.12 0.17 0.19 0.16 0.08 0.02 0.02 0.04 0.09 0.24 0.33 0.40 0.40 0.39 0.36
0.01 0.02 0.06 0.12 0.14 0.13 0.12 0.10 0.09 0.09 0.10 0.10 0.08 0.08 0.09 0.10 0.11 0.09 0.06 0.06 0.06 0.06 0.07 0.08 0.08 0.11 0.13 0.14 0.16 0.20 0.27 0.22 0.10 0.13 0.09 0.06 0.08 0.16 0.25 0.37 0.41 0.39 0.39
0.01 0.03 0.07 0.15 0.15 0.13 0.13 0.11 0.10 0.10 0.11 0.09 0.08 0.07 0.07 0.07 0.07 0.07 0.06 0.07 0.08 0.08 0.08 0.07 0.07 0.08 0.10 0.13 0.16 0.19 0.23 0.16 0.13 0.21 0.24 0.19 0.16 0.21 0.27 0.34 0.38 0.41 0.44
0.02 0.04 0.08 0.14 0.16 0.17 0.16 0.14 0.12 0.12 0.12 0.09 0.09 0.09 0.07 0.06 0.05 0.05 0.04 0.06 0.07 0.07 0.08 0.07 0.06 0.06 0.07 0.08 0.11 0.16 0.19 0.15 0.21 0.35 0.30 0.33 0.25 0.32 0.36 0.34 0.35 0.41 0.45
0.03 0.05 0.08 0.12 0.13 0.15 0.17 0.15 0.14 0.14 0.14 0.12 0.10 0.09 0.06 0.05 0.06 0.04 0.03 0.04 0.05 0.06 0.08 0.08 0.07 0.07 0.06 0.05 0.06 0.09 0.12 0.11 0.15 0.25 0.37 0.31 0.29 0.42 0.50 0.45 0.39 0.40 0.45
0.06 0.08 0.10 0.12 0.13 0.14 0.15 0.14 0.15 0.16 0.15 0.15 0.12 0.09 0.07 0.05 0.04 0.03 0.02 0.03 0.03 0.05 0.06 0.06 0.07 0.07 0.05 0.03 0.02 0.04 0.05 0.03 0.11 0.22 0.29 0.25 0.31 0.47 0.58 0.55 0.53 0.46 0.46
0.06 0.09 0.11 0.12 0.14 0.17 0.17 0.17 0.17 0.17 0.15 0.14 0.09 0.07 0.07 0.05 0.03 0.02 0.02 0.03 0.04 0.06 0.07 0.08 0.07 0.05 0.04 0.03 0.02 0.07 0.02 0.00 0.01 0.05 0.10 0.14 0.22 0.34 0.53 0.61 0.63 0.60 0.56
0.05 0.09 0.12 0.14 0.15 0.18 0.19 0.18 0.17 0.16 0.14 0.13 0.08 0.06 0.06 0.05 0.03 0.01 0.02 0.02 0.02 0.03 0.05 0.09 0.11 0.12 0.14 0.13 0.10 0.12 0.06 0.04 0.03 0.02 0.03 0.07 0.11 0.16 0.27 0.43 0.62 0.69 0.71
0.07 0.11 0.13 0.16 0.18 0.20 0.21 0.20 0.17 0.14 0.13 0.11 0.08 0.06 0.05 0.04 0.02 0.01 0.01 0.01 0.01 0.01 0.02 0.03 0.07 0.14 0.19 0.20 0.16 0.12 0.12 0.13 0.09 0.07 0.04 0.07 0.09 0.10 0.14 0.25 0.43 0.62 0.73
0.08 0.12 0.16 0.19 0.20 0.22 0.25 0.23 0.20 0.17 0.13 0.10 0.08 0.06 0.03 0.02 0.02 0.01 0.01 0.01 0.01 0.01 0.01 0.01 0.01 0.03 0.08 0.12 0.15 0.12 0.12 0.11 0.12 0.14 0.12 0.12 0.10 0.09 0.11 0.17 0.28 0.46 0.62
0.10 0.15 0.17 0.20 0.20 0.21 0.24 0.24 0.20 0.19 0.17 0.13 0.09 0.06 0.04 0.03 0.02 0.02 0.01 0.01 0.01 0.01 0.01 0.00 0.00 0.00 0.00 0.01 0.02 0.05 0.10 0.12 0.15 0.16 0.14 0.14 0.13 0.10 0.10 0.12 0.20 0.33 0.51
0.10 0.15 0.20 0.20 0.20 0.21 0.23 0.26 0.26 0.22 0.19 0.16 0.10 0.07 0.05 0.03 0.02 0.02 0.02 0.02 0.01 0.01 0.00 0.00 0.00 0.00 0.00 0.00 0.00 0.00 0.01 0.03 0.07 0.12 0.12 0.14 0.16 0.13 0.11 0.12 0.16 0.21 0.33
0.12 0.15 0.22 0.22 0.22 0.23 0.23 0.27 0.29 0.29 0.22 0.17 0.13 0.09 0.06 0.04 0.02 0.02 0.02 0.02 0.01 0.01 0.01 0.01 0.01 0.01 0.01 0.00 0.00 0.00 0.00 0.00 0.00 0.02 0.04 0.09 0.14 0.17 0.15 0.15 0.17 0.18 0.22
0.13 0.17 0.23 0.25 0.23 0.24 0.26 0.26 0.30 0.32 0.28 0.21 0.15 0.12 0.08 0.05 0.03 0.02 0.02 0.02 0.01 0.01 0.01 0.01 0.01 0.00 0.01 0.00 0.00 0.00 0.00 0.00 0.00 0.00 0.00 0.02 0.05 0.11 0.15 0.16 0.16 0.16 0.16
0.15 0.21 0.24 0.29 0.28 0.27 0.32 0.32 0.32 0.35 0.30 0.23 0.16 0.12 0.09 0.06 0.04 0.02 0.02 0.01 0.01 0.01 0.01 0.01 0.01 0.00 0.00 0.01 0.00 0.00 0.00 0.00 0.00 0.00 0.00 0.00 0.01 0.05 0.09 0.12 0.14 0.15 0.15
0.14 0.22 0.26 0.29 0.35 0.34 0.35 0.36 0.32 0.31 0.29 0.24 0.17 0.13 0.10 0.07 0.04 0.02 0.02 0.01 0.01 0.01 0.01 0.01 0.00 0.01 0.01 0.01 0.01 0.01 0.00 0.00 0.00 0.00 0.00 0.00 0.00 0.02 0.06 0.10 0.13 0.14 0.14
0.12 0.15 0.21 0.25 0.30 0.32 0.33 0.35 0.34 0.29 0.27 0.25 0.19 0.14 0.12 0.09 0.05 0.03 0.02 0.02 0.02 0.02 0.01 0.00 0.01 0.02 0.02 0.01 0.03 0.06 0.04 0.01 0.00 0.00 0.00 0.00 0.00 0.00 0.02 0.06 0.12 0.13 0.12
0.12 0.13 0.14 0.19 0.25 0.28 0.31 0.37 0.43 0.42 0.35 0.29 0.23 0.17 0.13 0.11 0.06 0.03 0.03 0.02 0.02 0.02 0.01 0.01 0.02 0.04 0.04 0.02 0.03 0.14 0.24 0.16 0.05 0.00 0.00 0.00 0.00 0.01 0.01 0.02 0.06 0.11 0.14
0.11 0.11 0.13 0.16 0.22 0.28 0.31 0.34 0.41 0.47 0.38 0.27 0.23 0.18 0.16 0.11 0.08 0.04 0.03 0.03 0.02 0.02 0.02 0.02 0.03 0.04 0.08 0.09 0.05 0.06 0.14 0.20 0.24 0.12 0.02 0.03 0.04 0.03 0.02 0.02 0.03 0.07 0.13
0.14 0.15 0.14 0.17 0.20 0.28 0.31 0.31 0.34 0.38 0.40 0.32 0.26 0.22 0.20 0.15 0.10 0.06 0.05 0.03 0.02 0.02 0.02 0.03 0.04 0.05 0.08 0.11 0.12 0.10 0.08 0.07 0.13 0.23 0.11 0.04 0.08 0.08 0.07 0.05 0.06 0.09 0.12
0.18 0.21 0.17 0.18 0.20 0.26 0.33 0.33 0.35 0.35 0.38 0.40 0.33 0.27 0.24 0.19 0.13 0.09 0.06 0.04 0.02 0.02 0.03 0.04 0.05 0.06 0.06 0.08 0.11 0.13 0.17 0.19 0.15 0.20 0.20 0.07 0.03 0.04 0.06 0.09 0.09 0.12 0.15

GEFSSE_prec_meanprecacc_156.txt.gz
Total_Precipitation_Accumulation
0.02 0.07 0.22 0.32 0.29 0.27 0.25 0.24 0.22 0.18 0.17 0.21 0.25 0.26 0.27 0.26 0.26 0.25 0.25 0.27 0.28 0.30 0.34 0.36 0.34 0.32 0.30 0.28 0.26 0.24 0.26 0.30 0.32 0.31 0.32 0.38 0.41 0.37 0.35 0.31 0.22 0.27 0.42
0.02 0.08 0.20 0.24 0.24 0.24 0.22 0.19 0.17 0.14 0.13 0.17 0.20 0.19 0.19 0.21 0.23 0.24 0.24 0.25 0.25 0.29 0.33 0.36 0.31 0.27 0.25 0.23 0.21 0.19 0.19 0.21 0.23 0.25 0.22 0.20 0.34 0.40 0.35 0.35 0.31 0.48 0.56
0.01 0.06 0.13 0.18 0.21 0.21 0.20 0.17 0.13 0.11 0.12 0.15 0.16 0.15 0.14 0.16 0.17 0.19 0.22 0.22 0.22 0.22 0.23 0.26 0.26 0.21 0.18 0.17 0.17 0.16 0.17 0.15 0.14 0.17 0.17 0.12 0.28 0.48 0.43 0.40 0.37 0.54 0.57
0.01 0.05 0.08 0.13 0.18 0.19 0.18 0.15 0.13 0.12 0.11 0.14 0.14 0.12 0.12 0.14 0.15 0.16 0.17 0.17 0.17 0.17 0.17 0.17 0.15 0.15 0.13 0.10 0.11 0.12 0.14 0.13 0.10 0.09 0.05 0.06 0.26 0.49 0.51 0.46 0.41 0.46 0.52
0.02 0.04 0.08 0.14 0.16 0.16 0.16 0.14 0.13 0.11 0.12 0.14 0.14 0.11 0.12 0.13 0.14 0.15 0.15 0.13 0.10 0.10 0.11 0.12 0.11 0.13 0.12 0.10 0.10 0.12 0.13 0.11 0.09 0.05 0.02 0.05 0.19 0.41 0.40 0.40 0.37 0.42 0.46
0.01 0.02 0.07 0.13 0.15 0.15 0.14 0.13 0.13 0.13 0.15 0.16 0.13 0.11 0.12 0.13 0.13 0.13 0.11 0.09 0.07 0.07 0.08 0.09 0.10 0.12 0.13 0.12 0.13 0.18 0.20 0.17 0.08 0.02 0.02 0.04 0.10 0.26 0.34 0.41 0.41 0.39 0.36
0.02 0.02 0.07 0.13 0.15 0.14 0.14 0.13 0.13 0.14 0.16 0.16 0.13 0.13 0.12 0.13 0.14 0.12 0.09 0.07 0.07 0.07 0.08 0.08 0.08 0.11 0.13 0.14 0.16 0.20 0.27 0.23 0.11 0.13 0.09 0.06 0.09 0.18 0.26 0.38 0.41 0.40 0.39
0.02 0.04 0.08 0.17 0.17 0.16 0.16 0.14 0.14 0.16 0.17 0.16 0.15 0.14 0.12 0.12 0.11 0.10 0.08 0.09 0.09 0.09 0.09 0.07 0.07 0.08 0.10 0.13 0.16 0.19 0.24 0.16 0.14 0.21 0.24 0.19 0.17 0.23 0.28 0.34 0.39 0.42 0.45
0.03 0.05 0.10 0.16 0.19 0.21 0.21 0.19 0.18 0.19 0.19 0.17 0.16 0.16 0.13 0.11 0.10 0.08 0.07 0.08 0.08 0.08 0.09 0.08 0.07 0.06 0.07 0.08 0.11 0.16 0.19 0.15 0.21 0.35 0.30 0.33 0.26 0.33 0.37 0.35 0.36 0.42 0.46
0.06 0.07 0.11 0.14 0.16 0.19 0.22 0.21 0.21 0.21 0.22 0.21 0.19 0.18 0.14 0.12 0.12 0.09 0.06 0.06 0.06 0.07 0.08 0.09 0.08 0.07 0.06 0.06 0.06 0.09 0.12 0.11 0.15 0.25 0.37 0.31 0.29 0.43 0.51 0.46 0.40 0.40 0.46
0.12 0.12 0.14 0.15 0.16 0.18 0.21 0.20 0.22 0.25 0.25 0.27 0.24 0.20 0.19 0.15 0.13 0.09 0.05 0.04 0.04 0.06 0.07 0.07 0.07 0.07 0.06 0.03 0.02 0.04 0.05 0.03 0.11 0.22 0.29 0.26 0.32 0.48 0.59 0.56 0.53 0.46 0.46
0.12 0.15 0.16 0.18 0.19 0.22 0.24 0.24 0.25 0.26 0.26 0.27 0.22 0.20 0.19 0.16 0.12 0.08 0.05 0.05 0.06 0.06 0.08 0.08 0.07 0.06 0.05 0.03 0.02 0.07 0.02 0.00 0.01 0.05 0.10 0.15 0.22 0.35 0.54 0.62 0.63 0.60 0.56
0.10 0.15 0.18 0.21 0.22 0.24 0.27 0.26 0.24 0.24 0.24 0.24 0.22 0.20 0.19 0.18 0.14 0.10 0.07 0.06 0.05 0.04 0.06 0.10 0.12 0.12 0.14 0.13 0.10 0.12 0.06 0.04 0.03 0.02 0.03 0.08 0.11 0.17 0.29 0.44 0.63 0.70 0.71
0.12 0.16 0.19 0.24 0.29 0.29 0.28 0.28 0.24 0.23 0.23 0.22 0.20 0.19 0.19 0.16 0.13 0.09 0.07 0.05 0.04 0.02 0.02 0.03 0.08 0.14 0.19 0.20 0.16 0.12 0.12 0.13 0.09 0.07 0.04 0.07 0.09 0.11 0.15 0.25 0.43 0.62 0.74
0.12 0.17 0.21 0.27 0.30 0.33 0.34 0.30 0.27 0.25 0.23 0.23 0.22 0.19 0.17 0.14 0.12 0.08 0.07 0.06 0.05 0.02 0.01 0.01 0.01 0.03 0.08 0.12 0.15 0.12 0.12 0.11 0.12 0.14 0.12 0.12 0.11 0.10 0.11 0.17 0.29 0.46 0.63
0.14 0.19 0.24 0.29 0.31 0.33 0.36 0.33 0.28 0.27 0.26 0.25 0.24 0.21 0.18 0.16 0.12 0.09 0.08 0.06 0.05 0.03 0.01 0.01 0.00 0.00 0.00 0.01 0.02 0.05 0.10 0.12 0.15 0.16 0.14 0.14 0.13 0.10 0.10 0.13 0.20 0.33 0.52
0.15 0.20 0.27 0.29 0.32 0.33 0.36 0.37 0.34 0.30 0.28 0.28 0.25 0.23 0.22 0.18 0.15 0.12 0.09 0.07 0.05 0.03 0.02 0.01 0.00 0.00 0.00 0.00 0.00 0.00 0.01 0.03 0.07 0.12 0.12 0.14 0.16 0.14 0.12 0.13 0.16 0.21 0.34
0.17 0.22 0.30 0.32 0.34 0.35 0.35 0.39 0.38 0.37 0.31 0.30 0.30 0.27 0.24 0.22 0.19 0.15 0.12 0.08 0.05 0.04 0.03 0.02 0.01 0.01 0.01 0.01 0.00 0.00 0.00 0.00 0.00 0.02 0.04 0.09 0.14 0.17 0.15 0.15 0.17 0.19 0.22
0.18 0.24 0.31 0.36 0.35 0.37 0.37 0.37 0.39 0.41 0.39 0.35 0.33 0.32 0.28 0.25 0.23 0.20 0.16 0.10 0.06 0.04 0.03 0.02 0.01 0.01 0.01 0.00 0.00 0.00 0.00 0.00 0.00 0.00 0.00 0.02 0.05 0.11 0.15 0.16 0.17 0.17 0.17
0.19 0.27 0.33 0.42 0.42 0.43 0.45 0.43 0.43 0.45 0.41 0.39 0.35 0.34 0.32 0.28 0.24 0.23 0.20 0.15 0.09 0.06 0.04 0.02 0.01 0.01 0.01 0.01 0.00 0.00 0.00 0.00 0.00 0.00 0.00 0.00 0.01 0.05 0.09 0.12 0.14 0.15 0.15
0.20 0.28 0.35 0.42 0.52 0.51 0.52 0.49 0.43 0.42 0.41 0.39 0.36 0.35 0.35 0.32 0.27 0.23 0.22 0.20 0.15 0.08 0.05 0.03 0.01 0.01 0.01 0.01 0.01 0.01 0.00 0.00 0.00 0.00 0.00 0.00 0.00 0.02 0.06 0.11 0.13 0.14 0.15
0.19 0.22 0.30 0.39 0.49 0.53 0.50 0.49 0.43 0.39 0.39 0.39 0.37 0.36 0.36 0.36 0.31 0.26 0.23 0.21 0.19 0.12 0.06 0.03 0.02 0.03 0.02 0.01 0.03 0.06 0.04 0.01 0.00 0.00 0.00 0.00 0.00 0.00 0.02 0.06 0.12 0.13 0.12
0.21 0.22 0.24 0.32 0.43 0.52 0.51 0.54 0.57 0.52 0.49 0.46 0.41 0.37 0.37 0.38 0.34 0.28 0.24 0.21 0.20 0.17 0.10 0.05 0.04 0.04 0.05 0.02 0.03 0.14 0.24 0.16 0.05 0.00 0.00 0.00 0.01 0.01 0.01 0.02 0.06 0.11 0.14
0.21 0.23 0.24 0.30 0.37 0.50 0.52 0.53 0.55 0.57 0.50 0.42 0.40 0.38 0.37 0.38 0.39 0.34 0.28 0.25 0.20 0.18 0.13 0.07 0.05 0.05 0.08 0.09 0.05 0.06 0.14 0.20 0.24 0.12 0.02 0.03 0.04 0.03 0.02 0.02 0.03 0.07 0.13
0.25 0.30 0.28 0.33 0.36 0.46 0.50 0.49 0.49 0.48 0.50 0.46 0.45 0.43 0.43 0.41 0.40 0.40 0.33 0.30 0.25 0.20 0.15 0.10 0.06 0.06 0.08 0.11 0.12 0.10 0.08 0.07 0.13 0.23 0.11 0.04 0.08 0.08 0.07 0.05 0.06 0.09 0.12
0.29 0.38 0.35 0.36 0.39 0.43 0.50 0.49 0.48 0.46 0.48 0.53 0.52 0.49 0.48 0.46 0.43 0.40 0.37 0.30 0.26 0.24 0.19 0.12 0.08 0.07 0.07 0.08 0.11 0.13 0.17 0.19 0.15 0.20 0.20 0.07 0.03 0.04 0.06 0.09 0.09 0.12 0.15

GEFSSE_prec_meanprecacc_162.txt.gz
Total_Precipitation_Accumulation
0.02 0.07 0.23 0.34 0.31 0.28 0.27 0.25 0.23 0.19 0.18 0.21 0.26 0.27 0.28 0.28 0.26 0.25 0.26 0.27 0.29 0.31 0.35 0.38 0.37 0.35 0.32 0.30 0.28 0.26 0.27 0.32 0.33 0.32 0.33 0.38 0.41 0.38 0.35 0.32 0.23 0.28 0.45
0.02 0.08 0.21 0.27 0.26 0.26 0.24 0.21 0.18 0.15 0.14 0.18 0.21 0.21 0.20 0.22 0.24 0.24 0.25 0.26 0.26 0.30 0.35 0.38 0.34 0.30 0.28 0.25 0.22 0.20 0.20 0.21 0.24 0.25 0.22 0.21 0.35 0.41 0.35 0.36 0.33 0.51 0.60
0.01 0.06 0.15 0.21 0.23 0.23 0.22 0.19 0.15 0.13 0.13 0.16 0.17 0.17 0.16 0.18 0.19 0.21 0.22 0.23 0.23 0.24 0.25 0.28 0.28 0.23 0.20 0.18 0.17 0.16 0.17 0.15 0.15 0.17 0.17 0.12 0.29 0.49 0.45 0.42 0.40 0.58 0.59
0.02 0.05 0.09 0.17 0.21 0.22 0.20 0.18 0.16 0.15 0.14 0.17 0.17 0.15 0.16 0.18 0.18 0.19 0.19 0.18 0.19 0.19 0.18 0.19 0.17 0.15 0.13 0.11 0.12 0.13 0.14 0.13 0.10 0.09 0.05 0.07 0.27 0.51 0.53 0.48 0.45 0.48 0.53
0.02 0.05 0.10 0.18 0.20 0.20 0.19 0.17 0.16 0.15 0.16 0.20 0.19 0.16 0.17 0.18 0.19 0.19 0.18 0.16 0.13 0.11 0.12 0.13 0.12 0.13 0.12 0.11 0.10 0.12 0.13 0.11 0.09 0.05 0.02 0.05 0.20 0.44 0.43 0.43 0.40 0.43 0.47
0.02 0.04 0.09 0.17 0.20 0.19 0.19 0.17 0.17 0.17 0.20 0.23 0.21 0.19 0.18 0.20 0.18 0.18 0.16 0.13 0.10 0.09 0.09 0.10 0.10 0.13 0.13 0.13 0.14 0.18 0.20 0.17 0.08 0.02 0.02 0.04 0.11 0.29 0.37 0.43 0.42 0.40 0.37
0.03 0.04 0.09 0.17 0.21 0.20 0.20 0.18 0.17 0.19 0.22 0.23 0.22 0.22 0.22 0.22 0.21 0.18 0.14 0.12 0.11 0.10 0.09 0.09 0.09 0.11 0.14 0.15 0.16 0.21 0.28 0.23 0.11 0.13 0.09 0.07 0.10 0.20 0.28 0.39 0.43 0.41 0.40
0.04 0.06 0.12 0.22 0.24 0.23 0.23 0.21 0.20 0.22 0.24 0.23 0.23 0.24 0.23 0.23 0.20 0.17 0.15 0.14 0.14 0.12 0.11 0.08 0.07 0.08 0.11 0.14 0.16 0.20 0.24 0.16 0.14 0.21 0.24 0.20 0.18 0.25 0.30 0.36 0.40 0.43 0.46
0.05 0.08 0.14 0.21 0.25 0.29 0.29 0.26 0.24 0.25 0.27 0.26 0.26 0.25 0.24 0.23 0.22 0.19 0.16 0.15 0.15 0.13 0.12 0.09 0.07 0.06 0.07 0.09 0.12 0.16 0.19 0.15 0.21 0.35 0.30 0.33 0.28 0.35 0.39 0.36 0.37 0.43 0.47
0.09 0.11 0.16 0.20 0.23 0.27 0.30 0.29 0.27 0.28 0.29 0.29 0.29 0.29 0.25 0.23 0.24 0.22 0.18 0.16 0.15 0.14 0.14 0.11 0.09 0.08 0.07 0.06 0.07 0.09 0.12 0.11 0.15 0.25 0.37 0.32 0.31 0.45 0.52 0.47 0.41 0.41 0.47
0.16 0.17 0.20 0.23 0.24 0.26 0.30 0.29 0.30 0.31 0.32 0.34 0.33 0.30 0.30 0.26 0.25 0.22 0.18 0.17 0.15 0.15 0.14 0.12 0.09 0.08 0.07 0.03 0.03 0.04 0.05 0.03 0.11 0.22 0.29 0.26 0.33 0.49 0.61 0.57 0.54 0.47 0.46
0.18 0.21 0.23 0.25 0.28 0.31 0.33 0.35 0.35 0.34 0.33 0.34 0.30 0.28 0.29 0.26 0.24 0.21 0.19 0.19 0.18 0.18 0.18 0.16 0.11 0.07 0.05 0.03 0.03 0.07 0.02 0.00 0.01 0.05 0.10 0.15 0.23 0.37 0.56 0.63 0.64 0.61 0.57
0.16 0.21 0.26 0.29 0.31 0.34 0.36 0.36 0.34 0.34 0.31 0.31 0.28 0.27 0.28 0.27 0.25 0.22 0.21 0.21 0.20 0.18 0.17 0.19 0.18 0.15 0.15 0.13 0.10 0.12 0.07 0.04 0.03 0.02 0.03 0.08 0.12 0.19 0.30 0.45 0.63 0.70 0.72
0.17 0.23 0.27 0.33 0.39 0.40 0.38 0.37 0.35 0.32 0.30 0.27 0.26 0.24 0.24 0.23 0.23 0.21 0.19 0.18 0.19 0.17 0.14 0.12 0.13 0.17 0.21 0.21 0.16 0.12 0.12 0.13 0.09 0.07 0.04 0.08 0.10 0.12 0.18 0.27 0.44 0.63 0.75
0.17 0.24 0.30 0.37 0.40 0.44 0.46 0.40 0.37 0.34 0.30 0.28 0.28 0.25 0.21 0.20 0.19 0.18 0.19 0.20 0.18 0.16 0.14 0.11 0.07 0.07 0.09 0.13 0.15 0.12 0.12 0.11 0.12 0.14 0.12 0.12 0.11 0.11 0.13 0.19 0.29 0.47 0.64
0.19 0.27 0.33 0.40 0.41 0.43 0.47 0.43 0.38 0.36 0.35 0.31 0.29 0.26 0.24 0.21 0.19 0.18 0.18 0.18 0.18 0.17 0.15 0.12 0.09 0.05 0.03 0.02 0.03 0.05 0.10 0.12 0.15 0.16 0.14 0.14 0.13 0.11 0.12 0.15 0.21 0.34 0.52
0.20 0.28 0.36 0.40 0.44 0.43 0.45 0.47 0.44 0.39 0.38 0.35 0.30 0.28 0.27 0.24 0.21 0.20 0.20 0.19 0.17 0.17 0.16 0.14 0.12 0.09 0.05 0.03 0.01 0.00 0.01 0.03 0.07 0.12 0.12 0.14 0.17 0.14 0.13 0.14 0.18 0.22 0.34
0.21 0.29 0.40 0.43 0.45 0.45 0.44 0.50 0.48 0.45 0.40 0.38 0.36 0.31 0.28 0.26 0.23 0.22 0.22 0.21 0.20 0.20 0.19 0.16 0.12 0.10 0.07 0.04 0.02 0.01 0.00 0.00 0.00 0.02 0.04 0.09 0.14 0.17 0.16 0.16 0.18 0.20 0.23
0.21 0.29 0.41 0.47 0.45 0.47 0.47 0.48 0.50 0.49 0.47 0.42 0.40 0.37 0.32 0.29 0.27 0.25 0.23 0.22 0.22 0.22 0.21 0.19 0.14 0.10 0.08 0.05 0.03 0.01 0.00 0.00 0.00 0.00 0.00 0.02 0.06 0.11 0.15 0.17 0.17 0.18 0.18
0.22 0.31 0.41 0.51 0.51 0.52 0.56 0.54 0.54 0.56 0.50 0.46 0.43 0.41 0.36 0.32 0.30 0.28 0.27 0.24 0.24 0.25 0.23 0.20 0.15 0.12 0.09 0.06 0.04 0.02 0.01 0.00 0.00 0.00 0.00 0.00 0.02 0.05 0.10 0.13 0.15 0.15 0.16
0.23 0.31 0.42 0.51 0.61 0.61 0.62 0.59 0.53 0.52 0.51 0.47 0.43 0.42 0.42 0.37 0.32 0.30 0.30 0.30 0.28 0.26 0.24 0.21 0.18 0.16 0.13 0.08 0.06 0.05 0.03 0.01 0.00 0.00 0.00 0.00 0.00 0.02 0.06 0.11 0.13 0.14 0.15
0.21 0.25 0.36 0.48 0.58 0.62 0.57 0.57 0.52 0.49 0.49 0.49 0.46 0.44 0.45 0.43 0.36 0.31 0.30 0.30 0.30 0.29 0.25 0.22 0.19 0.19 0.18 0.12 0.10 0.11 0.08 0.04 0.02 0.01 0.00 0.00 0.00 0.01 0.02 0.06 0.12 0.13 0.13
0.24 0.24 0.28 0.40 0.54 0.60 0.58 0.61 0.66 0.64 0.63 0.58 0.52 0.47 0.46 0.46 0.41 0.34 0.30 0.29 0.29 0.29 0.28 0.25 0.22 0.20 0.20 0.16 0.11 0.19 0.28 0.18 0.06 0.01 0.01 0.00 0.01 0.01 0.01 0.02 0.06 0.11 0.14
0.24 0.26 0.27 0.35 0.48 0.61 0.60 0.60 0.64 0.67 0.62 0.54 0.49 0.46 0.47 0.49 0.50 0.42 0.36 0.32 0.28 0.27 0.27 0.26 0.24 0.22 0.23 0.22 0.14 0.12 0.18 0.22 0.25 0.13 0.02 0.03 0.04 0.03 0.02 0.02 0.03 0.07 0.13
0.29 0.33 0.31 0.37 0.45 0.60 0.60 0.55 0.57 0.56 0.58 0.56 0.56 0.53 0.52 0.53 0.54 0.51 0.44 0.40 0.35 0.29 0.26 0.26 0.25 0.24 0.25 0.25 0.21 0.17 0.12 0.10 0.14 0.24 0.12 0.05 0.08 0.09 0.07 0.05 0.06 0.09 0.12
0.32 0.41 0.39 0.41 0.45 0.54 0.64 0.58 0.56 0.55 0.56 0.61 0.63 0.61 0.59 0.58 0.56 0.54 0.49 0.41 0.37 0.34 0.30 0.28 0.26 0.24 0.22 0.21 0.22 0.21 0.21 0.22 0.17 0.21 0.20 0.08 0.04 0.04 0.06 0.09 0.09 0.12 0.16